GFSSGP_sfc_30mbdewp_000.txt.gz
Dewpoint
35 25 28 16 11 12 10 10 15 13 14 33 42 41 44 46 45 42 61 65 66 66 64 63 66 65 67 68 69 70 69 69 69 67 67 68 66 65 65 65 66 67 66 66 67 67 68 68 69
28 19 14 11 11 10 10 14 14 13 9 16 36 45 41 46 52 56 58 64 65 65 63 62 66 66 66 66 66 67 68 68 66 67 67 67 66 61 59 66 65 65 66 67 67 66 66 67 67
28 4 5 8 11 10 13 14 9 4 9 16 39 45 46 50 56 58 63 64 65 64 64 64 67 66 66 65 66 66 66 66 66 66 67 67 66 66 63 67 66 66 66 67 67 66 67 67 67
16 5 4 5 5 6 8 7 8 4 21 32 40 46 54 56 61 61 62 64 64 64 63 66 66 66 66 64 64 66 66 65 65 65 66 67 66 66 65 65 66 65 65 65 65 66 66 65 65
9 4 0 3 5 4 6 9 12 17 31 36 40 45 52 55 62 62 62 62 62 63 63 64 67 66 66 65 64 65 65 64 65 66 66 67 67 67 67 66 65 66 65 65 65 65 65 64 64
5 7 1 1 3 3 6 10 19 28 32 37 43 45 50 58 60 63 63 63 61 61 63 64 66 67 66 66 65 65 65 65 65 65 66 66 66 66 66 67 67 67 66 65 65 65 64 63 64
5 3 3 3 3 4 7 11 20 21 29 35 39 40 50 53 55 58 62 61 60 60 60 62 62 63 65 64 64 65 64 64 65 65 65 66 66 66 66 65 64 65 65 65 64 64 63 62 62
6 4 2 2 2 3 9 16 23 25 27 32 35 37 45 50 53 55 54 57 58 57 58 60 61 61 62 61 60 60 62 63 64 65 65 63 64 65 65 63 63 64 64 64 64 63 63 62 62
8 1 1 4 3 4 9 8 27 32 30 34 36 40 46 51 51 55 55 53 52 52 53 60 61 61 60 57 55 60 61 61 61 62 63 62 62 62 63 59 59 62 62 63 64 63 63 62 62
5 3 8 16 13 8 8 13 20 24 28 35 40 41 45 48 50 49 46 44 43 45 45 51 58 59 58 54 55 61 62 61 61 61 61 60 62 61 61 59 59 57 57 56 63 62 61 60 57
16 11 14 19 22 21 11 14 23 19 18 28 33 39 40 41 41 40 36 36 38 41 42 45 50 55 57 57 57 59 62 60 58 59 59 61 59 59 60 59 58 57 56 57 56 61 60 60 59
18 24 24 25 23 19 18 21 19 21 24 31 36 38 37 35 34 32 32 33 35 39 39 40 47 52 54 53 53 54 52 52 53 57 59 60 60 59 59 59 58 56 56 56 57 58 58 60 60
22 25 29 27 25 24 24 22 22 22 28 31 31 31 30 29 29 30 31 32 32 35 37 36 41 46 48 50 49 48 47 46 47 49 53 54 56 58 58 55 56 55 57 57 57 55 57 59 60
29 29 30 29 28 27 26 24 24 25 29 29 29 28 28 28 27 28 29 31 30 31 32 33 35 40 41 45 45 43 41 39 39 43 48 51 52 56 58 56 55 57 59 59 58 58 57 58 59
28 25 28 26 27 27 26 22 22 23 28 27 27 27 27 27 27 27 28 29 28 27 29 29 30 35 36 39 36 34 33 32 35 41 47 49 49 52 53 51 51 51 56 57 59 59 60 59 59
25 23 14 21 23 26 23 7 19 24 25 25 26 27 27 26 26 26 27 28 27 24 24 26 22 30 31 32 30 29 31 31 34 40 42 43 43 44 45 46 48 49 50 51 51 50 52 56 58
17 10 14 14 21 20 19 13 12 23 24 21 20 24 26 26 27 26 27 27 26 23 22 25 27 27 27 28 30 33 34 30 32 35 35 37 36 37 35 37 40 40 39 42 42 43 48 48 50
14 14 16 16 14 18 15 14 12 13 15 19 20 21 24 26 26 27 28 26 26 25 23 25 26 28 28 27 28 29 30 31 30 29 31 33 33 32 30 32 35 32 30 29 31 31 33 38 46
20 18 14 13 17 20 16 16 15 15 16 17 21 22 23 25 27 27 28 27 26 26 24 24 25 27 26 26 25 25 25 28 29 28 29 32 28 29 29 27 28 29 30 32 30 27 26 28 35
19 18 16 16 19 20 19 16 15 15 15 20 22 22 24 25 27 27 28 29 28 26 25 23 23 25 25 23 24 24 24 24 24 27 31 31 31 30 27 27 26 29 26 27 29 29 26 23 28
19 18 17 18 20 18 18 10 12 15 19 21 22 24 25 25 25 26 27 28 29 29 27 26 23 23 24 24 24 24 25 26 25 25 26 30 33 33 33 31 30 29 30 27 28 28 28 24 23
18 21 20 20 19 12 19 9 13 15 16 18 22 23 23 24 25 25 26 27 29 30 30 28 24 23 23 26 22 24 21 19 20 24 25 28 31 33 34 34 34 35 33 30 28 25 27 27 25
20 22 21 21 19 18 17 15 14 18 15 16 19 22 23 24 25 25 26 26 28 30 31 30 25 24 23 26 28 26 25 23 24 26 28 29 30 32 32 33 35 36 35 33 33 33 29 28 27
22 23 23 22 20 18 17 16 14 15 17 19 19 23 25 24 25 26 26 26 27 29 31 31 28 25 25 27 28 28 26 26 25 25 25 24 25 25 27 29 30 31 32 32 32 33 33 32 30
24 23 22 19 18 16 19 18 17 19 20 21 22 24 25 26 27 27 26 25 26 27 29 28 27 25 25 27 28 29 29 29 26 25 22 24 22 22 22 23 24 23 24 25 26 27 28 29 28
22 22 22 22 17 18 19 17 15 20 21 23 24 24 26 27 28 27 26 26 26 27 27 27 24 25 25 27 28 29 27 23 22 22 21 20 21 21 22 23 22 22 23 23 23 23 23 24 28
25 24 24 21 22 20 19 19 20 20 22 24 24 26 26 28 29 28 27 26 27 27 27 28 26 24 24 27 28 25 25 23 20 22 22 20 21 19 17 21 22 23 24 25 25 25 25 26 28
26 25 25 24 24 21 17 18 17 20 22 23 25 26 28 29 30 30 30 29 29 29 27 28 28 24 25 25 25 24 23 21 20 21 21 21 21 20 20 21 22 22 23 24 24 24 24 24 27
28 27 23 23 23 23 22 20 22 23 24 25 26 27 29 30 31 31 30 30 30 29 27 27 26 23 23 23 24 23 20 20 21 21 21 20 21 21 21 21 22 22 22 23 23 24 24 24 25
29 28 26 25 24 26 27 25 26 26 26 27 27 28 30 31 31 30 32 31 29 26 24 24 24 22 23 23 24 22 21 22 21 20 21 21 21 22 22 22 21 20 20 20 21 22 22 23 24

GFSSGP_sfc_30mbdewp_003.txt.gz
Dewpoint
37 27 16 15 9 5 5 8 11 10 16 35 34 35 42 43 45 45 57 63 65 64 62 61 64 65 67 69 69 69 69 70 69 68 68 66 65 64 66 65 64 66 65 64 65 66 66 66 67
24 9 11 11 7 5 4 11 8 9 10 24 37 34 38 46 48 53 55 62 65 64 62 60 64 65 66 67 67 68 68 68 68 68 68 66 66 62 63 61 58 62 66 66 64 64 65 66 66
28 9 4 5 3 8 12 11 10 7 14 20 33 41 43 49 52 54 58 61 62 62 61 63 66 66 65 65 66 66 67 66 66 67 67 66 67 62 61 60 62 64 67 66 65 64 66 66 66
11 3 4 4 4 9 12 11 11 8 21 24 32 43 51 57 55 55 59 60 63 64 64 65 66 66 65 62 64 66 65 65 65 66 67 66 66 64 60 61 65 66 66 66 64 64 66 65 65
7 2 -1 2 3 4 8 11 14 14 27 31 33 39 49 57 61 61 60 61 60 63 65 65 67 67 66 64 62 64 66 65 65 66 67 66 66 66 66 66 65 64 65 64 65 65 65 64 64
3 3 -1 -0 2 4 8 13 19 24 29 35 36 42 48 58 60 62 59 57 57 59 62 64 65 66 65 65 65 64 64 65 65 65 65 65 66 65 65 65 66 66 65 65 65 65 64 63 63
4 2 -1 -0 2 3 5 8 11 15 24 30 36 34 48 52 59 61 58 58 57 56 58 59 60 63 64 62 61 62 63 63 64 65 65 65 66 65 64 63 62 63 63 63 63 64 63 62 63
5 -0 -2 -1 0 2 5 11 14 12 11 27 27 30 41 50 59 58 58 58 58 57 56 57 58 58 60 60 58 60 61 62 63 64 64 63 64 64 61 60 59 59 58 57 61 62 63 62 62
5 -1 -2 -1 1 1 4 5 15 19 16 19 25 28 45 53 56 55 54 54 53 52 54 59 59 60 58 54 53 61 61 60 61 62 61 60 61 62 60 59 58 58 58 57 57 54 60 62 61
5 2 4 7 4 3 3 4 11 14 18 23 29 39 47 50 49 48 48 47 44 45 46 50 58 60 58 53 52 58 60 58 58 59 60 58 59 60 60 60 60 59 58 57 54 54 53 60 58
12 6 6 10 14 11 8 7 13 12 12 15 23 33 43 45 45 45 43 40 37 42 43 47 54 58 59 56 56 60 60 59 58 58 57 59 57 57 58 60 59 59 57 57 56 55 55 54 55
13 15 15 18 19 16 15 17 15 16 16 23 25 31 38 40 40 39 36 33 36 39 41 44 53 55 55 53 53 55 54 53 53 56 57 56 55 58 57 58 57 58 58 57 56 55 56 55 55
19 20 22 22 22 23 23 20 21 19 21 25 30 34 35 35 34 32 31 32 34 37 39 41 47 51 53 51 50 49 47 46 46 47 51 50 50 54 54 53 53 54 55 57 57 56 55 58 58
22 24 25 25 24 23 23 16 19 19 24 26 28 29 29 29 28 28 30 31 33 33 37 40 42 45 46 48 48 44 42 41 40 43 47 51 50 52 52 52 52 52 56 58 59 59 58 58 58
25 23 22 22 20 20 21 13 19 16 23 22 25 27 27 27 27 27 29 30 32 32 34 35 37 40 41 42 38 34 34 36 39 43 46 46 46 48 45 44 45 47 51 54 54 53 56 58 59
20 20 6 12 17 18 15 4 9 15 19 20 20 23 25 26 27 27 28 29 31 30 30 31 22 32 34 34 33 30 32 34 38 41 42 42 42 42 42 41 41 42 42 44 46 48 50 52 55
11 7 10 11 12 14 11 10 8 11 15 18 17 15 20 24 25 26 27 29 30 29 28 29 27 29 31 31 29 33 35 31 34 36 36 38 36 36 33 35 37 36 33 33 32 32 37 40 44
10 13 14 13 11 14 15 15 14 14 13 11 12 16 16 18 23 25 28 29 29 29 28 28 28 28 29 29 31 31 31 32 33 32 32 35 33 31 30 31 34 33 30 31 33 31 29 30 32
18 17 17 16 17 19 18 17 15 13 12 13 15 18 18 19 21 25 28 30 30 29 29 27 28 28 28 26 26 27 29 30 30 30 31 32 29 31 31 29 29 31 29 31 33 32 30 28 28
17 17 17 18 19 20 19 16 14 13 15 16 17 19 21 23 24 26 28 30 31 30 29 27 27 27 28 26 26 26 27 26 28 29 31 33 32 31 30 29 29 28 29 31 31 31 30 29 28
17 19 18 19 21 20 18 13 12 16 17 17 21 23 22 23 23 25 28 29 32 32 31 30 27 26 28 26 24 26 27 28 26 26 29 33 34 33 32 32 31 31 32 30 30 30 30 28 30
18 22 22 22 21 15 18 8 13 14 14 16 20 22 23 24 24 25 26 28 30 33 33 32 30 28 27 28 25 25 23 23 23 24 24 24 28 32 33 32 30 30 31 31 32 30 32 32 30
21 24 24 23 22 20 17 14 12 15 13 15 18 22 24 25 25 26 27 27 28 31 34 34 32 30 27 26 29 28 28 28 25 25 26 28 29 30 31 31 30 31 31 31 34 35 35 33 33
24 25 23 24 22 20 20 15 11 13 15 17 19 22 24 25 27 27 28 28 28 30 34 35 34 32 29 27 27 31 31 30 27 27 28 29 28 28 27 26 28 29 29 29 31 34 34 34 34
26 23 23 21 18 17 19 18 15 16 18 18 20 22 24 26 28 29 29 28 28 28 31 34 34 33 30 28 29 31 31 31 30 29 27 25 26 24 25 25 27 25 24 24 25 28 30 29 29
26 24 24 22 18 18 19 16 15 18 18 20 22 24 26 27 30 30 30 30 29 29 29 31 31 31 29 29 28 29 30 30 30 26 25 24 22 23 23 23 23 22 22 22 24 25 27 27 27
27 27 27 24 25 24 21 18 19 20 19 22 24 25 27 29 30 31 32 32 32 31 31 32 32 32 30 28 28 30 31 29 25 23 25 23 22 20 19 21 22 21 21 21 23 26 26 27 28
28 28 27 28 26 22 20 20 19 20 21 22 24 26 28 30 31 31 32 32 33 33 33 34 33 32 31 27 28 30 28 26 24 24 23 22 22 22 21 20 20 20 20 21 23 25 25 27 28
28 28 27 25 25 24 22 21 23 24 26 26 26 27 29 29 31 31 31 32 34 35 33 32 31 31 30 26 28 27 25 23 22 22 21 22 22 21 20 20 19 20 21 21 22 22 24 24 25
27 28 28 26 25 27 28 27 27 27 27 26 28 28 29 30 31 32 32 34 34 34 30 29 29 28 26 26 26 25 24 22 21 22 22 22 22 21 21 20 20 20 19 19 19 20 20 21 21

GFSSGP_sfc_30mbdewp_006.txt.gz
Dewpoint
34 25 29 16 13 7 6 6 10 10 16 33 33 41 44 47 46 48 60 64 64 62 61 59 64 64 66 68 69 69 70 68 68 68 67 67 67 67 66 65 63 65 60 59 64 66 64 66 66
29 21 7 13 10 7 8 10 9 8 11 25 31 42 49 47 52 54 60 62 63 62 61 62 65 65 64 65 66 68 68 68 67 67 66 67 66 65 66 62 57 62 62 61 63 66 66 65 65
34 21 5 7 7 10 14 11 9 7 14 21 30 48 52 50 51 54 61 63 63 62 62 64 65 65 63 64 65 66 66 67 67 67 66 66 67 65 64 64 63 64 66 67 65 63 66 64 64
11 8 5 5 4 9 12 12 11 8 17 18 28 44 54 54 52 57 58 61 62 62 63 65 66 65 63 61 64 65 65 66 67 67 67 68 66 63 61 60 61 65 66 64 62 60 64 65 63
9 7 2 1 2 3 9 12 13 10 24 27 29 48 52 57 58 57 58 58 60 62 64 64 65 66 66 64 65 65 66 65 65 66 67 66 66 67 66 66 65 64 64 59 60 59 62 63 65
6 4 1 0 1 4 10 14 17 21 26 30 45 48 51 57 58 58 57 55 58 61 63 64 65 65 65 64 64 63 64 65 65 65 65 66 66 65 65 65 65 65 64 63 62 63 63 63 63
6 5 -0 0 1 3 5 9 12 13 25 26 41 47 50 53 58 58 55 55 54 55 57 61 64 64 64 63 62 63 62 63 65 65 64 65 66 65 64 64 63 61 62 63 63 63 63 63 63
5 2 -2 -0 1 1 4 9 11 12 10 11 13 32 48 50 58 57 56 55 56 56 56 57 57 64 63 60 59 60 62 62 64 65 65 65 65 63 62 61 61 60 61 59 58 57 62 62 62
5 1 -2 -1 2 1 3 3 13 15 13 17 18 30 48 54 56 54 53 52 52 51 53 58 59 60 59 59 59 61 61 62 63 62 63 62 63 62 61 59 59 59 58 57 55 53 54 57 59
8 4 4 4 3 6 3 3 8 8 11 16 24 30 42 49 51 48 46 46 46 44 45 50 56 59 60 56 53 62 61 61 61 61 61 61 60 61 61 60 60 59 58 57 56 55 54 53 53
11 5 7 10 14 8 9 8 12 10 10 19 19 29 35 40 41 42 40 40 39 43 45 48 54 59 60 58 60 60 59 60 59 59 59 60 58 59 59 59 60 59 57 58 57 56 55 53 55
14 13 15 17 17 16 18 19 17 16 15 21 22 26 32 36 38 39 38 35 36 38 42 45 54 56 57 57 55 57 55 55 55 56 57 57 57 57 57 57 56 57 57 57 57 56 54 54 54
17 18 20 21 22 20 20 18 18 17 17 23 23 30 31 34 36 36 34 32 33 36 40 43 49 53 55 53 53 52 50 49 49 51 52 54 53 55 55 54 54 55 55 56 57 56 55 55 56
21 21 20 21 19 18 20 16 14 13 18 21 23 28 30 32 32 31 31 31 33 34 38 42 45 49 50 52 51 50 47 46 45 47 50 52 53 54 54 53 52 52 53 55 56 57 57 57 58
21 21 22 21 16 12 18 11 11 18 21 20 20 24 26 27 28 28 29 31 32 34 36 39 42 46 47 48 47 46 42 41 43 47 48 48 49 48 46 46 46 48 50 51 52 53 53 55 57
20 19 9 11 14 15 13 7 9 14 15 18 19 20 24 25 26 27 29 30 31 33 34 36 33 39 41 42 39 38 38 40 42 46 46 45 44 44 44 43 44 43 43 43 41 41 42 48 50
14 10 12 15 13 12 12 11 12 14 11 14 18 18 19 24 25 26 27 30 31 33 33 33 31 31 36 36 37 36 38 38 40 43 43 42 40 38 37 39 42 40 37 36 36 36 35 34 35
15 16 17 16 16 17 18 18 17 17 15 14 14 16 17 17 19 26 27 29 31 34 33 33 33 33 35 35 35 37 38 38 37 38 39 38 37 35 35 37 37 37 35 36 37 37 37 37 35
16 16 16 18 17 18 19 19 17 14 12 13 15 18 19 19 20 23 29 31 32 33 33 32 31 33 33 32 32 33 34 35 37 37 36 37 36 36 35 35 34 36 35 36 36 37 36 35 37
13 15 18 19 20 20 20 19 17 14 17 16 17 20 22 23 24 26 30 32 33 33 34 33 32 32 33 32 33 32 34 34 35 35 36 35 37 34 35 36 33 34 34 35 37 38 35 36 34
14 21 20 21 22 20 18 13 15 15 17 18 21 23 23 24 24 25 27 29 35 35 36 35 33 32 33 32 32 33 33 32 31 31 34 37 36 38 37 37 36 35 36 36 37 35 35 34 36
17 22 23 24 23 19 21 13 12 14 16 18 21 24 25 26 26 27 27 28 31 35 38 37 36 34 32 35 31 31 30 29 29 30 31 32 39 38 36 36 37 37 36 35 37 36 39 37 35
21 24 25 24 23 22 19 14 13 14 13 16 20 22 25 27 28 28 29 30 30 32 38 38 38 37 35 34 34 32 32 32 32 32 32 32 33 33 33 33 34 36 37 37 37 36 36 37 37
25 25 24 24 23 22 21 19 16 14 16 15 18 22 25 27 29 30 31 31 31 34 34 38 38 37 37 36 35 35 32 33 34 33 32 32 32 32 33 32 32 32 32 32 32 32 32 32 33
26 25 25 24 21 22 20 19 19 19 18 19 20 23 26 27 29 31 32 32 33 33 35 38 38 37 37 38 38 35 36 35 34 35 34 31 30 28 29 28 29 28 28 28 29 29 29 30 30
26 26 26 23 20 23 23 18 16 18 19 19 22 24 26 28 31 31 33 34 34 35 36 35 34 34 35 37 38 37 36 35 35 35 33 28 27 26 27 26 27 27 27 28 28 28 29 29 29
26 26 28 25 26 27 25 23 23 21 20 23 25 25 28 29 31 32 33 34 35 36 36 37 37 37 36 36 38 36 36 35 34 32 30 28 28 25 27 27 27 27 29 29 29 28 27 29 29
28 29 27 28 27 22 20 22 22 23 26 28 29 28 31 32 33 33 34 34 36 37 38 38 39 36 35 35 36 33 33 33 30 28 28 26 26 25 27 26 26 26 26 26 26 27 28 28 28
26 26 29 27 27 25 26 24 27 28 29 29 29 30 32 32 33 33 34 34 36 37 37 37 34 32 33 32 33 32 31 30 27 26 25 25 27 26 26 26 25 24 24 24 25 25 26 25 25
26 27 28 27 29 29 29 28 30 29 28 30 30 30 31 32 32 33 33 34 36 37 39 39 34 31 31 31 31 30 29 27 26 25 26 27 27 27 26 25 24 23 23 23 23 23 23 23 23

GFSSGP_sfc_30mbdewp_009.txt.gz
Dewpoint
34 28 31 24 15 14 9 9 10 15 22 47 48 50 50 51 50 50 63 64 62 61 61 64 64 65 66 68 69 69 68 68 69 68 68 67 67 67 66 66 66 66 62 61 63 65 65 65 66
37 27 15 11 13 10 10 7 8 12 20 44 43 42 49 52 58 60 61 63 62 61 63 64 64 64 65 66 67 68 68 67 67 68 68 67 67 66 65 65 62 62 62 62 65 66 64 64 66
36 32 10 9 11 8 11 11 8 13 15 20 46 45 50 52 56 60 63 63 62 62 64 64 64 63 63 66 67 67 67 66 66 67 67 68 66 64 64 64 64 64 64 65 63 62 65 66 65
26 16 9 4 5 8 11 12 12 15 17 43 51 50 55 58 57 61 63 62 62 63 64 65 65 64 63 66 67 66 66 67 66 67 68 67 66 64 63 61 62 64 66 66 65 60 62 65 63
23 11 5 3 5 9 11 12 14 26 41 46 48 48 51 58 58 58 61 61 63 64 64 65 65 65 65 64 64 65 65 65 66 67 67 67 67 66 64 64 65 65 63 63 63 62 59 60 64
8 8 4 3 5 6 6 9 11 21 31 42 47 49 52 58 59 58 58 61 62 63 63 64 64 64 64 63 62 63 64 65 65 65 67 66 66 67 66 66 66 66 63 61 60 60 59 56 58
6 6 5 2 4 3 6 8 10 12 17 26 43 42 50 53 59 59 55 55 60 63 64 64 64 64 63 62 62 61 62 64 65 65 65 66 65 64 64 64 63 64 64 64 64 64 63 63 63
4 5 2 3 2 2 3 9 13 13 9 25 41 42 43 49 59 59 56 56 55 57 59 63 64 63 61 60 60 61 61 62 64 65 65 64 63 62 62 61 62 62 62 61 60 62 63 62 62
6 5 3 4 2 2 2 7 14 15 13 17 34 47 47 52 58 57 55 55 52 53 57 56 58 62 61 58 59 60 61 62 63 63 63 64 63 62 59 60 60 59 59 57 56 56 59 57 56
9 4 4 12 10 7 10 7 8 8 9 19 36 50 54 55 56 55 53 50 45 45 51 54 56 58 59 59 60 60 62 62 62 62 61 61 62 61 59 59 59 59 58 58 57 55 54 53 54
13 12 15 16 16 15 15 19 15 11 12 22 26 42 51 53 53 50 43 42 42 44 47 52 57 59 59 59 61 61 60 60 59 59 60 58 59 59 60 60 60 59 57 57 56 56 55 53 53
16 17 20 18 19 19 20 20 19 17 18 22 23 34 37 39 41 40 39 37 39 43 46 52 55 57 56 55 58 58 58 57 58 58 58 57 58 57 57 56 57 56 57 56 56 56 55 52 53
18 19 20 21 21 21 20 18 18 18 18 23 24 31 33 36 38 38 34 33 36 38 43 49 53 55 55 53 52 51 50 50 51 52 52 54 56 56 56 55 53 55 55 56 56 56 55 54 54
22 22 22 22 21 19 19 20 19 15 18 22 24 29 31 33 34 35 32 31 33 34 42 46 49 51 52 53 51 49 47 46 46 49 51 52 53 53 54 54 53 52 53 54 54 53 53 55 57
23 20 23 21 18 13 14 12 12 15 21 21 22 26 28 30 33 31 31 30 32 34 40 42 44 48 48 51 49 47 45 44 45 48 48 47 51 48 47 46 47 47 49 51 49 50 50 50 52
23 22 17 21 18 17 13 10 12 15 21 21 20 23 25 26 27 29 30 31 31 35 37 39 40 45 45 47 46 45 40 40 44 47 46 45 44 46 45 45 43 39 42 42 35 37 35 37 36
19 16 17 18 16 15 15 16 19 20 18 18 19 19 23 25 26 27 29 30 32 34 35 36 32 38 39 38 40 39 39 39 43 47 45 44 42 39 38 42 40 37 40 37 36 35 36 34 35
15 15 17 18 18 20 20 20 20 21 20 18 18 20 20 23 24 26 29 31 32 33 33 34 32 30 36 36 35 38 37 36 40 44 43 42 40 37 35 40 40 37 37 38 36 35 37 37 34
16 15 17 20 22 22 21 21 21 20 17 17 19 22 23 24 29 31 32 32 33 34 32 31 32 33 34 32 32 33 35 36 37 36 40 40 39 36 34 35 38 38 36 37 37 37 35 33 36
17 20 22 22 24 24 23 21 21 17 17 20 22 22 23 24 26 30 32 32 31 32 33 32 32 32 33 32 33 32 32 34 35 36 37 38 38 36 35 34 35 34 34 33 34 39 36 37 35
18 22 22 23 25 26 23 18 16 17 18 22 22 23 23 23 24 26 27 31 33 33 33 34 33 33 34 32 32 33 35 35 33 34 36 37 36 37 37 36 37 36 35 34 36 35 34 33 36
17 24 24 25 25 22 25 18 17 16 17 20 22 24 25 26 27 28 27 28 32 34 36 36 35 35 34 35 31 30 30 30 30 30 31 35 37 38 38 37 38 38 37 36 38 38 37 36 35
21 24 25 26 26 25 22 19 14 17 16 19 24 26 27 28 28 28 30 31 32 33 36 38 38 37 37 36 36 32 31 33 32 32 32 35 38 40 39 38 37 37 37 34 33 32 31 34 34
26 28 27 29 25 22 23 21 19 18 16 20 25 26 28 28 29 31 32 32 32 35 35 37 37 36 37 37 37 37 34 33 33 33 33 35 36 33 32 31 31 30 29 28 29 28 26 25 28
27 27 24 16 21 21 23 20 17 23 21 22 23 24 26 27 31 30 31 32 33 34 35 36 37 37 37 38 38 38 37 36 33 33 35 31 32 30 29 28 28 29 29 29 28 27 28 28 27
27 26 27 22 22 23 25 21 21 23 23 25 23 24 29 29 31 32 34 35 35 35 36 37 37 37 37 38 39 39 39 39 36 36 36 33 29 29 30 30 30 29 31 32 34 32 28 29 29
26 28 29 26 27 25 26 26 23 26 28 29 30 30 30 31 33 33 34 35 36 37 38 38 38 38 37 37 36 36 39 39 37 34 29 29 29 29 31 32 31 34 35 35 32 31 29 29 29
28 30 27 28 25 24 24 24 23 27 27 29 31 31 31 33 34 34 34 35 36 38 39 39 39 38 36 34 34 34 35 31 32 31 28 27 29 31 32 34 35 35 34 31 27 28 28 28 29
28 27 29 30 29 29 27 27 29 29 30 31 30 31 32 33 33 34 34 36 38 39 39 40 40 40 35 33 34 33 31 28 28 28 27 28 29 32 34 34 34 31 26 26 27 27 27 26 26
27 30 29 28 30 30 30 29 31 31 32 31 31 32 33 32 34 35 36 37 37 38 40 40 40 40 32 32 32 31 29 27 26 25 27 29 30 31 29 29 28 26 27 27 26 25 25 24 24

GFSSGP_sfc_30mbdewp_012.txt.gz
Dewpoint
33 31 29 19 12 12 9 8 11 21 44 51 52 49 50 52 50 45 63 61 60 59 62 63 65 67 68 69 69 68 69 69 69 68 67 67 67 67 66 66 66 63 63 63 65 66 66 65 65
35 27 13 13 11 9 8 9 11 38 48 46 47 53 53 55 59 60 61 60 60 61 63 64 65 66 67 67 67 67 67 67 68 68 68 68 67 66 66 64 62 61 62 65 66 65 64 65 65
31 30 7 9 11 9 10 11 10 41 45 43 51 54 55 55 60 61 63 61 61 62 64 63 62 65 67 66 66 66 66 66 67 68 68 67 67 66 65 64 64 64 64 64 64 65 66 65 62
24 12 8 4 8 10 10 15 16 26 45 50 52 53 57 57 59 62 63 62 62 62 63 63 61 63 66 66 66 66 66 66 66 68 68 67 66 65 63 61 62 64 66 67 65 65 65 62 58
20 9 4 3 6 8 8 20 33 39 44 46 47 48 54 58 61 62 62 63 62 62 63 63 62 63 63 65 66 65 65 66 66 66 66 67 67 66 66 65 64 65 65 64 64 65 65 64 60
8 8 4 4 4 5 6 12 18 33 45 45 43 47 51 58 59 61 62 63 63 61 63 64 63 62 62 62 63 64 64 65 65 66 66 66 66 66 66 66 66 65 63 60 60 60 61 59 63
7 5 4 4 4 5 6 11 12 11 16 35 43 39 51 54 58 59 61 62 63 63 63 64 64 64 62 61 61 61 63 64 65 65 66 65 64 64 64 64 64 64 65 65 64 61 61 63 62
7 4 2 3 1 1 2 10 13 12 11 43 46 36 41 54 58 56 58 60 61 63 63 63 63 63 62 61 61 61 61 63 64 64 64 63 63 63 62 63 63 63 62 61 63 63 63 62 62
7 4 7 6 5 7 7 11 13 14 15 24 44 42 46 52 59 56 55 55 56 61 62 63 63 62 60 58 59 61 61 61 63 63 64 62 62 61 60 61 61 60 59 58 57 57 58 56 57
9 6 11 11 9 11 14 15 9 8 20 40 46 51 52 57 56 55 54 52 50 53 54 56 58 60 61 59 59 60 61 61 61 62 63 63 62 60 60 59 59 59 58 57 57 56 55 53 53
14 15 16 17 16 17 20 19 18 14 19 40 44 50 54 55 53 54 54 48 46 47 52 55 56 59 58 59 59 61 61 61 61 61 60 61 60 60 59 59 60 58 58 57 56 55 54 53 53
16 19 18 19 19 19 20 19 19 18 18 23 49 52 53 51 51 53 47 45 43 45 49 54 56 57 55 59 61 60 59 60 59 59 58 58 58 58 58 58 58 57 56 56 56 55 55 53 51
18 19 20 20 21 20 20 17 17 18 19 23 42 47 50 50 51 46 40 41 43 43 48 52 55 56 54 53 52 52 53 54 53 53 53 56 57 56 57 56 53 54 55 55 55 56 55 54 54
23 22 22 22 21 22 20 20 20 19 19 23 32 34 36 37 38 36 34 37 40 41 46 51 52 53 54 52 51 48 48 47 49 51 51 53 55 55 55 54 54 53 53 52 51 51 50 50 52
23 21 21 22 20 17 15 12 12 14 19 21 27 29 30 32 35 35 32 32 33 39 43 47 49 50 49 51 50 48 45 44 47 49 49 50 51 48 52 51 51 50 51 51 48 46 43 41 41
24 21 18 20 22 17 13 11 13 17 20 21 22 26 29 30 31 34 33 32 33 36 42 44 46 48 48 50 48 47 45 44 45 47 47 46 47 47 45 45 44 42 46 45 36 36 34 35 35
18 15 16 18 19 21 15 16 19 22 20 20 21 22 25 26 27 30 31 32 32 36 40 39 41 46 44 46 45 42 42 39 42 47 47 45 44 43 41 45 42 38 40 38 35 35 35 34 34
15 14 15 18 20 24 21 20 23 23 19 19 19 20 20 22 24 26 29 32 34 36 37 36 32 39 39 38 38 38 39 38 40 45 46 45 43 41 38 41 41 38 38 37 37 35 37 36 34
17 19 21 22 22 25 24 24 23 21 19 20 22 23 26 28 31 31 31 33 33 33 33 33 31 30 35 34 34 33 35 36 37 39 45 44 42 40 37 36 40 39 37 37 37 36 36 34 36
19 21 21 23 24 26 25 23 19 19 18 21 23 23 25 27 30 31 31 32 32 31 31 31 31 32 33 32 32 32 32 33 35 36 39 43 42 40 36 35 36 38 38 37 37 38 36 36 37
18 21 22 23 26 27 24 20 16 18 22 23 23 23 24 25 27 30 31 30 31 31 32 32 32 32 33 33 33 33 34 35 34 34 36 38 41 40 37 36 36 35 36 33 34 36 35 33 37
17 21 24 25 25 22 25 21 19 17 19 21 23 23 24 25 26 26 27 30 33 32 34 34 35 34 34 34 33 31 30 30 31 31 33 36 39 39 39 38 37 37 38 37 38 37 37 36 33
21 23 26 26 26 25 23 20 18 17 17 20 24 26 27 28 28 29 30 31 30 33 33 36 37 36 36 37 36 34 32 32 32 33 32 32 35 38 39 39 39 40 39 35 30 28 26 29 28
28 28 28 29 26 22 23 21 18 21 21 24 26 26 27 28 29 31 32 32 33 34 35 37 38 37 38 38 38 37 36 35 34 34 34 33 36 38 39 38 35 32 31 30 30 31 30 30 30
28 28 23 17 21 21 26 23 20 24 26 24 23 26 27 28 30 30 31 32 33 34 35 37 37 37 38 38 38 38 39 39 37 36 35 35 34 32 31 31 31 32 34 35 36 36 36 34 30
27 28 25 19 22 23 26 21 22 28 30 29 26 27 29 29 30 33 35 35 36 37 38 37 38 39 38 38 38 38 39 40 40 39 37 36 34 31 32 34 36 37 38 38 38 36 35 33 30
27 27 29 26 27 26 26 26 25 25 29 31 31 32 32 33 34 34 35 36 37 38 39 39 39 39 38 39 39 36 36 38 38 37 35 34 32 33 35 37 39 39 39 39 36 34 31 32 31
28 30 26 28 24 24 26 25 24 26 30 31 32 32 33 33 34 35 35 37 38 38 39 40 39 39 39 40 35 34 35 35 33 30 29 31 34 36 38 39 39 39 38 34 30 32 32 29 29
28 30 30 30 30 28 27 27 29 29 31 31 31 32 32 34 35 36 37 38 38 38 39 39 40 40 40 34 33 34 30 31 30 29 30 31 34 36 37 37 35 34 33 33 32 29 28 28 27
31 31 31 28 27 29 28 27 30 31 30 31 32 34 35 35 37 39 39 39 39 39 39 39 39 40 33 31 33 32 29 28 27 28 29 31 32 32 32 33 32 31 31 29 28 27 26 25 24

GFSSGP_sfc_30mbdewp_015.txt.gz
Dewpoint
42 33 29 19 11 10 8 9 12 34 49 52 51 48 50 54 47 42 62 61 61 62 63 65 67 69 69 68 68 69 70 69 69 67 68 68 67 67 67 66 65 63 63 64 66 66 67 66 66
40 29 13 15 10 7 7 12 34 45 52 54 53 54 53 54 59 61 59 59 59 62 63 64 66 67 67 67 67 68 68 68 68 68 68 67 67 67 66 64 62 61 63 65 65 66 66 66 66
32 24 6 10 11 10 11 16 43 47 50 44 52 55 55 56 60 61 61 61 62 62 62 63 65 66 66 66 66 66 66 67 68 68 68 67 67 66 66 64 64 64 64 64 65 65 64 66 64
24 11 8 8 7 10 17 20 43 46 47 51 54 53 56 58 60 62 61 61 60 61 61 61 64 65 65 65 65 65 65 65 67 68 68 67 66 64 61 61 63 65 65 66 64 65 66 64 62
12 8 5 5 6 14 27 37 38 39 44 46 47 50 55 59 62 62 62 61 59 61 62 61 62 64 65 65 64 64 65 65 66 66 67 67 66 66 66 65 62 65 65 65 65 64 65 64 61
8 8 5 4 4 6 12 28 36 40 43 43 47 48 53 58 61 62 62 61 59 60 62 63 62 61 61 62 63 64 64 65 65 65 66 67 66 66 66 65 66 65 62 60 60 60 63 62 61
5 4 4 4 3 4 8 13 12 25 34 35 44 45 54 57 60 62 62 62 61 62 62 63 63 63 61 61 61 63 64 64 65 65 65 64 64 64 65 65 65 65 65 65 63 60 60 61 62
7 5 2 3 2 1 3 11 13 13 26 44 45 38 53 55 59 61 62 63 62 61 62 62 62 62 61 61 61 61 63 64 64 65 64 63 63 62 63 64 63 63 62 62 63 63 62 61 61
8 8 6 5 5 9 12 11 14 16 34 30 46 42 45 56 58 58 58 59 61 62 62 62 62 62 60 59 59 61 61 62 64 64 64 63 62 61 60 61 61 60 59 58 57 57 56 55 54
9 10 10 11 8 12 16 13 11 20 36 42 43 50 52 58 56 55 57 57 58 61 61 62 62 62 61 58 58 60 61 62 62 62 63 62 60 59 60 59 58 59 58 58 57 57 55 54 53
17 14 15 17 15 16 20 19 18 18 29 41 33 48 55 57 56 54 54 54 56 58 56 59 59 60 60 60 58 59 60 61 61 61 61 61 61 60 59 59 59 58 57 56 55 54 54 51 50
15 19 18 17 19 20 18 19 18 18 17 35 39 48 55 56 54 54 54 50 50 50 52 54 57 56 55 59 59 60 60 60 59 59 59 59 58 59 58 58 58 57 56 55 55 55 55 54 53
19 19 20 21 20 20 20 18 17 17 19 26 46 52 53 54 52 53 53 49 45 46 49 53 56 56 54 58 56 58 57 59 58 57 55 57 57 56 56 56 55 54 55 55 55 55 54 54 53
23 23 22 22 21 22 20 20 20 19 19 23 47 50 51 48 49 50 45 46 44 44 47 52 54 55 53 52 51 51 51 52 52 52 52 54 56 55 55 55 53 54 54 53 51 49 47 47 48
24 21 22 22 22 20 19 13 13 16 19 23 39 48 48 46 47 46 43 43 42 43 46 51 52 54 53 51 51 48 47 47 47 50 51 52 53 52 54 54 53 52 51 50 48 45 39 37 37
21 19 16 19 22 18 13 13 13 16 19 20 28 36 39 43 40 39 37 38 39 41 44 49 49 50 49 51 50 49 47 45 45 48 49 48 50 49 48 48 49 48 49 47 37 36 34 34 35
17 14 15 17 22 24 18 16 18 21 21 19 21 26 29 30 30 33 34 33 34 38 43 45 46 48 48 49 49 47 45 44 43 46 47 47 46 47 46 45 45 42 42 43 36 35 35 33 33
15 13 17 18 22 25 24 22 24 25 21 20 21 21 23 25 25 27 29 33 33 38 42 41 41 46 46 43 42 41 40 40 40 41 46 47 46 45 42 43 44 40 39 39 37 35 36 35 34
17 20 21 22 23 25 25 25 24 22 19 19 20 20 24 27 31 31 30 33 34 38 38 36 33 40 39 37 35 35 35 36 38 38 42 46 46 44 41 40 42 40 37 36 37 36 34 35 36
20 20 19 23 25 27 25 24 17 18 20 23 25 26 27 29 30 32 33 33 33 34 34 34 32 31 33 34 33 33 33 34 36 37 38 41 44 44 42 38 39 40 38 37 37 36 36 36 37
18 19 20 22 25 26 25 21 17 20 22 23 24 25 27 28 29 30 31 31 31 31 31 32 32 32 33 33 33 33 34 34 34 34 35 37 43 44 43 39 37 39 40 37 37 37 36 33 36
20 20 23 24 25 22 25 18 19 17 20 23 24 24 25 26 28 29 30 30 31 31 32 33 33 34 34 34 34 32 31 31 31 32 33 35 38 41 43 41 38 37 38 38 37 38 37 36 34
23 27 27 27 27 25 23 19 20 22 17 23 25 25 26 27 28 28 28 28 30 32 33 35 37 38 38 38 37 36 36 35 35 35 34 34 35 39 41 41 40 39 39 38 37 34 30 29 28
28 28 28 28 26 20 24 22 22 22 22 24 25 27 28 28 28 29 31 32 32 34 35 37 37 37 39 38 38 38 38 38 38 38 37 37 37 36 39 40 40 38 34 32 32 32 32 32 32
28 28 19 17 20 20 26 22 23 25 25 24 24 27 28 28 29 31 31 32 34 36 38 38 39 38 39 39 38 39 39 39 39 39 39 38 37 35 35 36 34 35 37 38 39 38 37 37 35
27 28 23 14 19 22 26 21 23 27 31 29 31 31 32 31 31 34 35 36 37 38 39 39 39 38 39 39 39 41 38 37 38 39 40 39 36 33 36 37 38 39 39 39 39 38 38 39 38
28 27 30 26 27 26 26 27 27 28 30 32 32 33 34 34 34 34 36 37 38 38 38 39 39 39 39 40 40 37 34 34 36 37 36 35 34 36 38 39 40 39 38 39 40 37 35 35 34
29 30 27 28 23 22 25 25 24 26 30 30 32 32 33 35 36 37 37 38 38 38 39 39 40 39 40 40 35 32 33 34 35 33 33 33 34 37 39 39 38 38 38 38 38 35 33 32 31
30 30 30 30 29 27 26 26 31 29 30 30 33 35 35 35 37 38 39 39 39 39 39 39 39 39 40 35 31 32 33 32 32 31 32 34 37 37 38 34 34 36 36 35 34 32 31 29 28
31 31 30 27 26 29 27 25 29 30 32 34 36 37 37 36 38 39 40 39 40 40 40 39 39 40 34 32 31 32 33 30 29 30 31 33 33 33 31 32 33 33 33 32 29 28 27 25 24

GFSSGP_sfc_30mbdewp_018.txt.gz
Dewpoint
42 32 28 19 11 9 8 9 12 40 47 52 52 49 51 55 47 39 62 62 61 62 65 67 68 69 68 69 69 70 70 69 68 68 67 67 67 68 67 66 64 62 64 64 66 66 66 66 65
42 28 14 14 9 11 16 21 28 45 53 53 53 52 54 52 59 60 58 59 60 61 63 65 67 67 67 67 68 68 68 69 69 68 68 67 67 67 66 64 61 61 64 64 65 65 66 65 66
31 15 7 12 12 11 17 29 46 51 50 46 52 56 55 56 60 60 60 59 61 61 62 65 66 66 66 65 65 66 67 68 68 68 68 68 67 67 65 65 64 64 64 64 64 65 65 66 65
22 9 9 18 21 20 19 30 48 49 48 52 54 51 56 59 60 62 60 61 60 60 61 64 64 64 64 64 64 64 65 66 67 68 67 67 66 64 62 61 62 64 65 65 64 65 66 65 64
11 9 7 14 18 23 31 38 43 44 45 48 49 51 55 60 62 60 60 60 59 59 60 62 64 64 64 64 63 64 64 65 65 66 67 66 67 67 66 64 62 65 65 64 66 64 65 65 63
7 8 6 8 8 9 24 34 40 41 44 47 50 50 53 60 60 61 61 60 60 59 61 61 62 62 63 63 63 64 64 65 65 65 66 67 66 66 65 66 66 64 62 61 61 60 64 62 60
3 5 4 4 5 6 10 12 30 34 37 37 47 47 54 59 61 62 62 59 60 61 61 61 62 62 61 61 62 63 64 64 65 64 64 63 64 64 65 65 65 64 64 64 63 62 63 63 62
6 4 3 2 2 2 5 12 12 19 28 45 43 43 50 57 60 62 62 61 60 61 61 61 61 61 60 59 61 61 62 64 64 64 63 63 62 62 63 62 62 61 61 61 61 59 58 58 57
9 5 3 3 4 10 13 11 14 23 37 34 46 46 47 57 59 60 60 61 61 60 61 61 61 61 60 58 59 61 61 62 64 64 63 62 61 60 60 61 60 60 59 58 58 57 56 54 54
10 8 9 10 8 14 16 12 11 23 34 38 41 49 54 57 58 59 59 59 60 60 61 61 61 61 60 58 57 59 60 61 62 63 62 61 60 59 59 59 59 59 59 58 57 56 54 52 51
18 12 15 17 14 15 19 19 17 26 28 35 29 47 56 57 56 58 58 58 58 60 61 61 61 61 61 60 58 58 60 60 60 60 62 61 61 59 59 58 58 57 57 55 55 54 54 51 51
16 18 17 17 19 20 17 19 18 19 16 27 38 51 56 56 55 56 56 56 56 58 59 59 58 58 58 59 59 58 59 60 60 60 59 60 60 59 58 57 58 57 56 54 54 54 55 53 53
19 20 20 21 20 20 20 19 17 18 19 23 42 53 56 56 55 55 55 54 53 55 53 53 56 57 55 58 58 59 59 59 59 58 58 58 58 57 57 57 56 56 55 54 54 54 53 52 50
23 22 22 22 22 22 21 20 19 18 19 22 44 47 54 55 55 54 54 53 49 50 50 52 55 56 54 56 56 57 56 56 56 56 54 54 56 56 55 55 54 53 54 54 51 48 45 44 45
24 20 19 21 21 18 19 15 14 18 17 20 34 47 49 52 52 50 50 50 49 46 47 50 53 55 53 52 51 51 51 51 51 52 52 52 54 55 55 54 53 53 53 51 48 47 40 37 37
18 18 14 19 22 20 15 16 16 16 19 20 22 43 48 49 47 47 46 46 45 44 45 49 52 53 53 52 51 50 48 47 46 48 49 50 51 51 52 53 52 52 51 50 44 37 34 34 34
17 12 14 17 23 25 24 21 21 22 23 23 21 25 41 43 41 35 38 38 40 42 44 47 49 49 49 49 50 49 48 47 45 45 47 48 48 50 48 48 49 49 47 48 42 36 34 33 33
14 14 18 19 21 25 25 24 25 24 24 22 21 21 27 32 32 28 29 34 35 38 42 45 46 47 47 47 46 44 43 42 42 42 44 46 47 47 47 46 46 45 43 42 40 35 36 34 33
17 19 20 21 23 25 25 25 19 19 21 21 20 21 22 25 30 31 30 32 33 36 40 42 41 41 44 42 39 37 36 37 38 38 40 42 45 46 46 44 44 44 42 40 39 36 34 35 37
19 19 17 22 24 26 25 23 19 21 23 24 26 27 28 29 30 32 32 33 34 36 39 39 37 34 39 39 35 34 34 34 36 37 37 39 42 45 45 44 42 43 42 40 38 36 35 35 37
21 17 19 21 25 26 24 20 20 19 22 23 24 26 28 28 28 30 31 32 33 34 35 35 34 34 33 33 34 33 34 34 33 33 34 34 37 40 43 44 42 41 42 40 38 37 36 33 36
21 20 23 24 25 21 25 17 20 22 21 23 23 24 25 27 29 30 30 31 31 31 32 33 34 35 36 36 35 35 34 34 34 34 35 35 36 37 40 43 43 41 40 40 39 38 38 36 34
24 28 28 27 26 25 24 18 20 22 20 23 25 26 26 27 27 27 28 30 32 33 35 37 38 39 39 39 39 38 37 38 39 39 38 39 38 38 38 40 42 42 40 40 39 38 37 35 35
29 29 26 28 26 21 24 22 23 23 23 25 27 28 28 28 28 29 32 33 35 38 38 39 39 39 39 39 40 39 39 39 38 37 38 39 40 39 38 39 41 40 37 35 33 34 33 33 34
29 26 16 19 20 20 26 22 25 27 27 29 30 32 33 33 30 34 35 37 38 38 38 39 39 39 39 40 40 39 36 36 35 36 37 38 39 35 35 36 37 38 38 38 38 38 38 38 38
28 28 22 13 18 22 26 21 25 29 31 31 33 34 34 34 35 36 37 37 38 38 38 39 39 39 39 40 40 39 35 34 35 36 37 38 37 35 38 38 39 39 39 40 40 40 40 40 39
28 27 30 26 27 25 25 27 27 30 31 32 33 33 34 35 36 37 37 38 38 38 39 39 39 39 39 40 40 35 34 33 33 34 35 35 35 37 39 39 39 38 39 39 39 38 37 37 36
29 30 26 27 21 20 24 24 23 28 29 31 33 35 35 35 37 37 38 39 39 39 40 40 40 39 40 40 35 33 33 34 33 33 33 34 36 38 38 38 36 36 35 37 36 37 37 36 35
29 29 30 30 29 26 24 24 30 29 31 32 35 37 37 35 36 38 39 40 40 40 40 40 40 39 40 35 33 33 33 33 32 31 33 34 37 38 38 36 35 34 32 35 36 36 33 31 29
32 29 29 23 24 28 27 24 30 31 33 35 37 37 38 38 37 38 39 40 40 40 40 40 40 39 39 34 34 33 33 31 30 31 32 35 34 34 32 33 32 33 33 32 30 29 28 26 24

GFSSGP_sfc_30mbdewp_021.txt.gz
Dewpoint
39 30 27 20 12 15 15 20 17 45 47 52 52 47 48 54 46 39 62 62 61 63 65 67 68 68 68 69 70 69 69 68 67 67 67 67 67 66 66 65 62 63 64 65 65 65 66 66 64
38 22 17 16 17 22 28 23 25 47 52 53 53 54 52 50 59 59 60 60 59 61 64 66 67 67 67 67 68 69 69 69 68 68 68 67 67 67 66 63 62 63 64 63 64 65 66 66 65
28 13 12 14 14 20 32 34 47 52 49 49 53 55 55 55 59 59 59 58 59 59 62 65 66 66 66 66 66 67 68 68 68 68 68 68 68 67 65 64 63 63 64 64 64 65 65 66 65
19 11 15 21 20 19 27 43 49 48 48 53 53 49 56 59 59 61 58 59 58 59 61 64 65 65 64 64 65 65 66 67 68 68 67 67 66 65 63 63 63 64 65 66 65 65 66 64 62
12 14 21 22 26 29 35 45 49 45 46 49 50 51 55 60 62 59 60 59 57 58 60 63 64 64 64 64 64 64 64 64 65 67 67 67 67 66 66 63 64 65 64 63 64 64 65 64 61
8 12 17 21 19 15 29 39 41 43 45 48 49 50 54 61 60 60 60 59 58 56 59 61 63 64 64 63 63 64 64 64 64 65 66 66 65 65 65 65 65 64 64 64 61 62 62 62 63
7 8 6 8 11 13 17 12 37 40 42 40 49 48 55 60 61 61 61 59 59 59 59 60 61 61 61 61 62 63 63 64 64 64 63 63 64 64 64 65 64 64 64 64 64 63 62 61 60
8 7 4 4 4 5 6 12 17 23 34 44 45 44 51 57 61 62 61 59 59 60 60 61 62 61 60 60 60 61 63 64 64 64 62 62 62 63 62 63 62 62 61 61 61 59 58 58 57
11 5 3 3 5 10 13 12 14 30 40 35 43 47 48 59 61 61 60 59 59 60 61 61 61 61 60 58 60 60 61 63 64 63 62 61 61 60 60 61 60 60 59 58 58 57 56 55 55
11 9 9 9 9 14 17 12 12 24 34 40 43 49 54 59 60 60 59 59 59 60 60 61 62 62 61 59 59 60 61 61 62 63 62 62 61 60 59 59 59 59 59 58 57 56 54 51 51
17 13 15 16 13 18 19 18 18 25 22 30 27 45 56 59 59 59 59 58 58 60 61 62 62 63 63 62 59 59 60 61 62 62 63 62 61 61 60 59 59 59 58 56 55 55 55 55 55
17 18 17 18 19 19 15 19 18 24 16 23 37 50 56 57 58 59 59 58 58 59 61 62 62 62 62 61 61 59 59 60 61 61 62 62 62 62 61 59 59 59 58 56 56 56 56 55 54
20 20 20 21 19 19 20 19 18 18 20 23 41 54 55 56 56 58 59 59 58 58 59 60 59 58 58 58 59 60 60 61 61 61 61 61 60 60 60 59 58 58 58 56 55 55 54 52 50
23 23 23 22 22 20 21 20 19 18 19 26 43 51 55 56 55 56 56 56 55 56 58 56 55 57 57 57 59 59 60 60 60 60 59 59 59 58 57 57 57 56 56 55 56 53 47 45 45
23 18 20 22 21 21 19 18 15 17 17 20 35 46 53 55 56 54 55 55 55 53 54 53 54 56 57 55 56 56 56 56 57 57 58 56 56 56 56 56 56 55 55 56 54 50 47 41 40
18 17 14 18 23 24 21 18 19 21 21 20 23 31 47 52 54 54 52 52 52 52 49 51 51 54 56 54 53 53 51 51 51 51 52 53 54 54 54 54 54 55 55 54 52 49 43 38 36
17 9 14 18 24 25 24 20 24 24 25 26 25 23 34 47 48 44 40 45 46 47 48 48 51 52 53 53 52 52 52 51 50 49 48 50 51 52 52 51 51 54 54 53 52 47 42 37 35
14 15 18 19 22 26 25 25 24 21 22 22 22 22 24 35 42 34 33 35 39 45 47 48 50 50 51 50 50 49 48 47 47 46 45 47 47 50 50 49 50 50 50 50 50 48 43 38 36
17 19 20 21 24 25 26 24 21 23 25 26 27 26 24 27 31 32 33 33 36 40 44 45 46 48 47 46 44 42 41 40 40 40 42 43 43 46 48 47 48 49 47 47 48 46 44 39 39
20 18 17 22 24 27 25 21 20 23 24 26 27 28 29 30 30 32 33 35 37 38 41 43 43 39 38 41 39 38 37 37 37 38 40 41 41 43 44 46 45 46 46 46 46 45 41 39 39
22 19 20 21 24 27 24 21 22 21 24 25 25 27 29 30 31 32 33 35 36 37 37 36 36 37 38 39 37 38 39 39 38 38 38 39 41 41 42 43 44 44 45 44 45 44 42 39 38
21 22 27 26 25 21 25 16 22 22 23 25 27 27 27 28 29 30 31 33 36 37 40 40 41 40 40 41 40 40 39 38 38 39 38 40 41 41 42 42 42 43 44 43 43 43 43 41 38
25 29 28 27 27 25 25 19 22 23 24 27 29 31 32 33 31 31 33 36 39 41 41 42 41 41 41 41 42 40 38 38 39 39 39 38 39 41 42 41 41 42 43 43 43 43 42 40 39
30 29 27 28 26 22 25 22 24 24 27 29 31 34 35 34 33 36 38 39 39 41 41 42 41 40 41 41 42 42 39 38 37 37 36 35 37 40 40 39 41 41 41 40 39 38 39 37 37
30 25 17 20 21 20 26 22 26 29 30 31 33 34 35 36 37 37 38 38 39 39 40 40 40 39 41 41 42 42 38 38 37 36 35 35 35 37 37 39 40 39 39 39 39 40 40 40 39
29 28 22 11 16 21 27 23 26 31 32 34 34 35 36 37 37 38 38 39 39 40 40 41 40 39 40 40 41 41 38 37 36 35 36 36 36 37 39 39 39 39 40 40 40 40 40 38 37
28 28 30 26 27 25 25 27 30 32 32 33 34 36 35 36 38 38 39 40 40 40 41 42 41 39 39 40 41 37 37 37 36 36 36 35 37 38 40 40 39 39 39 39 39 38 37 37 37
29 31 26 28 20 18 22 25 23 29 30 32 35 36 37 36 37 37 38 40 41 41 41 42 42 40 40 40 39 35 37 36 36 35 33 34 37 39 39 39 38 38 37 37 37 36 36 36 36
30 29 30 30 29 25 23 22 30 29 31 32 35 37 38 38 38 38 39 40 41 42 41 41 41 41 40 40 36 37 37 37 34 32 33 35 38 39 38 35 34 34 35 35 35 35 34 33 31
32 29 28 21 22 28 28 23 29 32 33 35 37 38 39 39 39 39 40 41 40 39 36 38 41 42 41 37 38 37 37 34 30 32 33 35 34 36 37 37 37 37 35 32 30 29 28 26 24

GFSSGP_sfc_30mbdewp_024.txt.gz
Dewpoint
37 29 28 21 17 23 25 32 39 42 42 48 48 43 45 49 43 43 59 58 56 58 62 65 68 68 69 69 69 69 68 68 67 67 67 67 67 67 66 64 63 64 64 64 64 65 65 66 65
29 19 18 16 20 20 25 32 35 40 46 48 47 45 42 46 54 57 58 57 55 57 60 63 67 67 68 68 69 70 69 69 68 66 67 67 67 67 65 63 65 64 64 63 64 65 66 67 66
22 17 14 17 17 18 22 30 40 45 47 46 45 48 48 47 54 56 59 55 53 56 59 64 66 66 66 66 67 68 68 69 68 68 68 68 67 66 65 64 64 64 65 65 65 66 66 65 63
17 15 22 13 16 25 27 37 42 42 45 45 42 43 52 56 55 56 57 55 52 52 56 63 65 64 64 64 64 65 67 68 68 68 67 66 65 64 63 62 62 65 65 65 65 66 65 63 62
12 18 16 16 23 30 34 39 40 38 40 42 43 44 49 57 60 58 58 57 51 51 53 56 63 64 64 63 64 64 64 64 66 67 67 67 67 66 66 63 65 64 63 62 62 63 64 62 61
14 21 16 19 26 32 36 40 37 33 37 41 40 40 48 59 58 59 58 55 50 50 54 55 63 64 63 63 63 63 64 63 65 65 65 65 65 65 65 65 65 64 64 62 62 62 63 63 63
14 14 15 19 21 23 27 33 30 29 34 34 40 35 50 56 57 58 56 52 51 51 53 55 57 60 62 62 63 63 64 64 64 63 63 63 64 64 65 64 64 64 64 64 63 62 62 61 60
10 9 10 10 9 10 12 18 28 24 26 42 42 32 41 50 57 57 54 52 53 55 55 57 58 58 58 58 60 62 63 64 64 63 62 62 62 62 63 63 62 62 62 62 61 59 59 58 57
12 3 4 5 5 8 12 11 15 30 32 36 38 39 46 54 57 55 52 52 54 56 59 59 58 60 59 57 59 60 62 63 63 62 62 61 58 58 59 60 61 60 59 59 58 57 56 55 55
7 4 5 8 10 8 10 9 15 21 22 27 36 44 51 56 56 53 50 51 52 55 57 59 61 61 61 56 58 59 59 58 59 59 60 58 60 59 57 59 60 59 59 58 57 55 52 51 48
13 7 11 10 13 11 11 12 13 14 14 16 18 36 50 55 55 54 51 48 49 54 56 59 62 63 61 56 55 54 55 57 59 61 61 60 60 59 59 58 58 58 58 54 53 52 48 50 50
11 14 8 12 16 13 11 13 14 15 13 21 27 36 47 49 50 51 48 46 49 51 54 59 61 62 60 54 53 54 54 56 57 58 62 60 58 57 58 56 56 56 54 55 53 50 53 53 51
17 20 21 19 19 20 21 18 18 16 17 21 32 41 43 44 45 47 47 45 47 49 52 58 61 60 54 57 55 57 57 56 57 58 59 60 57 56 56 55 54 53 52 52 51 51 51 50 48
23 22 22 22 22 21 20 20 20 18 19 22 32 36 41 43 43 46 49 48 50 51 54 58 59 56 54 54 56 55 56 55 57 55 55 60 59 55 53 51 49 48 49 49 50 50 49 45 43
24 20 21 22 22 23 20 16 15 21 19 19 29 34 39 42 44 45 45 47 47 50 54 57 57 54 54 53 53 53 51 55 51 50 54 56 57 53 53 48 47 45 47 51 52 51 50 47 42
18 17 12 21 23 24 23 15 19 25 23 22 21 27 38 42 44 45 48 49 51 53 52 55 54 52 52 51 52 50 48 49 47 48 48 51 52 53 51 48 46 46 47 48 48 48 46 44 41
12 5 9 16 23 23 22 16 23 22 23 25 25 26 27 35 43 47 49 50 49 50 51 53 54 53 50 51 50 51 51 49 46 47 46 46 49 50 50 47 46 47 47 46 47 46 46 43 40
8 9 16 14 19 21 22 21 21 24 24 24 24 24 25 30 39 45 44 43 43 45 49 50 52 51 51 50 50 47 47 45 45 42 41 43 43 45 47 45 46 47 46 45 45 46 45 44 41
15 15 15 16 23 24 24 19 21 23 24 25 25 26 28 30 35 35 36 37 38 43 46 49 48 49 48 46 44 41 40 38 38 38 39 43 43 43 44 44 44 44 45 46 46 45 45 45 43
19 17 17 21 24 26 23 19 21 23 25 26 26 27 28 29 32 34 37 39 40 42 43 43 42 41 39 37 38 40 40 39 41 42 42 42 42 42 41 42 43 43 43 44 45 47 46 44 43
22 20 23 22 24 26 23 21 20 23 24 25 27 27 28 30 30 32 35 38 39 40 40 39 40 41 42 41 40 40 39 39 38 38 38 39 40 40 40 40 41 42 43 42 43 44 44 44 44
20 24 28 26 24 15 25 16 21 22 24 27 30 33 34 32 31 33 35 38 41 42 42 41 41 40 41 43 40 41 39 38 39 39 39 38 37 37 38 39 40 41 41 41 41 41 43 43 42
26 30 28 28 25 23 22 17 22 22 25 28 32 34 35 34 35 35 37 39 41 43 43 42 41 41 41 42 42 41 40 39 39 39 38 37 35 34 34 38 40 41 41 40 42 43 43 43 42
31 29 28 29 27 22 25 22 21 23 27 29 32 34 36 36 36 37 38 38 39 41 42 41 40 39 41 41 42 41 40 39 37 36 33 31 31 31 33 36 39 41 41 41 41 41 41 41 41
28 26 19 22 22 20 26 22 26 29 30 31 32 34 36 37 37 37 37 38 39 40 41 40 40 38 38 38 38 38 36 35 34 34 32 33 32 32 34 38 39 40 41 41 40 40 40 40 40
29 28 24 18 16 19 26 18 25 30 31 32 33 35 36 37 38 37 37 39 39 41 41 41 40 38 37 36 36 36 36 36 36 35 35 34 33 34 37 39 40 39 39 39 40 40 40 38 38
29 28 30 28 29 25 20 26 29 31 31 32 33 33 34 36 37 36 37 39 39 40 41 41 39 37 37 37 38 39 38 39 37 36 35 32 35 35 38 39 38 39 40 39 38 39 38 37 37
30 31 28 27 24 16 13 20 19 29 30 31 32 33 35 36 37 37 37 38 39 39 40 40 37 37 38 39 40 38 39 39 37 35 33 34 36 38 38 39 37 37 38 38 39 38 38 36 36
29 29 30 28 29 23 19 13 28 28 30 31 33 35 36 37 38 37 38 39 39 38 37 35 37 38 39 39 39 39 39 38 35 32 33 36 37 37 36 37 38 38 38 37 36 35 34 32 30
31 29 27 25 24 27 25 19 27 28 32 33 34 36 37 37 35 36 37 38 35 35 33 36 37 37 36 35 36 37 37 36 33 33 34 35 35 38 39 38 37 35 33 34 33 29 27 25 23

GFSSGP_sfc_30mbdewp_027.txt.gz
Dewpoint
44 33 25 21 16 18 26 29 33 35 37 42 40 40 39 45 47 48 55 54 58 59 63 65 69 70 70 69 69 69 68 67 67 67 66 66 67 67 65 64 64 64 63 63 64 64 66 66 66
28 15 17 15 15 16 24 30 29 35 38 39 37 35 34 43 52 54 52 53 56 58 60 64 67 68 68 69 69 70 69 68 67 67 66 66 67 66 65 64 64 65 65 65 65 66 66 66 65
35 16 13 10 17 18 24 28 33 36 38 36 35 39 41 46 50 53 52 51 52 55 61 65 66 66 67 67 68 69 69 69 68 69 68 68 67 66 65 64 64 64 65 65 65 66 65 64 63
17 13 17 13 18 20 24 30 33 35 37 36 32 37 49 49 51 53 51 49 51 55 59 64 64 64 64 65 66 67 68 68 68 68 67 66 66 65 63 62 64 65 64 66 66 66 64 63 62
16 14 12 14 20 25 30 32 33 31 32 33 31 34 46 53 54 53 53 49 48 48 54 58 63 64 64 63 64 64 65 67 67 67 67 67 67 66 66 64 65 64 63 62 62 64 63 62 61
12 18 13 18 23 29 32 33 30 28 29 28 29 35 47 54 53 54 53 48 45 47 50 53 62 63 64 64 64 64 64 65 65 66 66 65 65 65 65 65 65 64 64 63 63 63 63 63 63
13 16 16 19 23 26 29 29 24 24 24 26 27 31 46 50 53 52 49 45 44 47 49 51 55 59 62 62 63 63 64 64 63 63 63 63 64 64 64 64 64 64 63 63 62 62 61 61 60
12 14 14 16 16 17 16 22 22 20 25 28 32 26 41 49 52 51 46 45 45 48 49 51 53 55 57 59 62 63 63 63 63 62 62 62 62 62 62 63 62 62 62 62 61 59 59 58 57
10 6 6 6 6 5 8 7 10 18 19 25 28 36 40 50 51 48 46 45 47 49 52 53 52 55 54 53 58 61 62 62 62 61 60 60 58 58 59 59 60 60 59 59 58 57 56 56 56
8 3 4 5 5 5 6 6 11 19 17 21 28 34 45 49 48 45 44 44 47 49 51 53 55 56 55 50 53 54 54 55 56 56 57 54 57 58 55 58 59 59 59 59 58 57 55 54 48
7 6 6 5 6 4 3 4 8 10 13 17 21 30 42 45 46 45 42 42 44 48 48 50 57 57 55 51 50 50 50 51 54 57 57 56 55 55 55 55 59 60 59 54 57 54 51 47 48
6 4 3 5 9 9 7 9 8 8 12 17 21 31 38 41 43 44 43 41 42 47 47 50 55 57 55 50 47 48 49 51 51 54 56 55 53 53 53 51 51 50 50 50 51 49 49 52 51
8 8 7 10 13 14 16 12 10 11 14 16 23 31 37 41 41 42 42 41 42 43 45 50 56 59 51 51 49 51 52 51 54 53 54 55 52 52 52 51 50 49 48 47 47 47 47 48 48
15 17 18 18 18 19 18 15 17 16 17 17 22 28 34 35 38 40 41 40 41 43 45 49 55 58 50 49 51 50 52 51 52 50 51 53 53 51 51 49 47 46 45 45 46 45 46 46 44
18 17 19 20 20 21 19 13 12 17 17 18 23 25 30 34 35 38 42 43 42 43 45 49 55 56 53 50 50 47 47 48 47 46 48 50 51 49 50 47 46 45 45 46 46 47 47 46 45
16 16 14 19 20 21 20 16 15 21 21 20 18 25 29 33 35 37 39 40 42 42 44 48 52 54 55 48 48 46 45 46 45 44 45 47 49 50 49 47 46 46 48 46 46 45 45 44 43
13 10 8 16 19 19 17 16 21 22 22 20 19 20 24 30 36 37 41 44 44 44 46 48 51 54 53 49 48 47 48 47 43 44 44 44 46 46 47 46 46 47 46 46 46 45 46 44 44
5 4 8 8 17 16 15 16 19 23 22 23 24 23 24 26 32 40 45 42 42 44 48 50 51 53 52 50 48 45 44 43 42 41 40 42 43 44 45 45 45 46 45 45 46 48 46 46 46
9 8 10 13 18 18 19 17 20 23 22 24 24 25 27 32 38 39 40 41 40 44 45 48 50 51 49 46 44 41 40 40 39 39 42 44 44 44 44 43 43 44 43 45 47 48 47 48 47
15 15 15 18 20 20 20 17 21 23 25 25 26 27 29 31 34 37 39 41 41 42 42 43 43 43 41 39 40 41 42 41 42 42 42 41 42 42 41 40 40 39 41 43 44 46 46 46 47
19 18 21 20 21 21 21 18 20 22 24 26 26 28 29 30 32 35 39 41 42 42 41 41 41 42 43 42 40 40 39 39 39 39 41 41 42 41 40 39 39 40 41 40 42 42 42 42 43
19 23 24 23 21 16 21 14 20 21 24 28 31 33 32 31 33 35 38 40 42 43 42 41 41 41 41 43 41 43 42 41 41 42 41 41 40 37 36 34 35 38 40 41 41 39 43 42 41
24 28 26 25 23 19 19 13 20 21 24 28 31 33 35 36 36 37 37 40 42 43 43 43 40 41 42 43 43 43 42 40 38 38 37 36 33 33 32 33 35 38 40 41 41 42 41 40 40
28 28 25 26 23 20 17 18 20 21 24 29 32 34 35 36 36 37 38 38 40 42 43 42 41 40 40 41 41 40 39 38 35 35 34 33 34 33 33 33 36 38 39 39 40 43 42 42 41
26 24 21 21 21 20 24 20 24 28 29 30 32 34 35 36 37 36 37 38 40 41 42 42 40 40 39 39 38 38 37 36 35 35 35 36 34 32 31 34 37 37 39 41 41 40 40 40 39
26 25 25 19 18 17 22 14 25 29 31 32 32 34 35 35 36 36 36 38 39 40 41 42 41 38 37 37 38 38 38 37 38 38 38 36 33 32 34 36 40 41 42 41 41 41 40 39 39
27 27 28 25 30 23 15 24 29 29 30 31 32 32 34 34 35 35 36 38 38 38 38 40 40 37 37 38 38 39 40 38 38 38 36 34 33 33 37 40 39 39 39 39 39 40 40 40 37
26 29 26 27 24 17 10 14 16 29 29 31 31 32 34 35 35 36 36 36 37 38 37 38 36 36 37 38 38 37 37 36 36 36 33 32 34 39 38 39 38 38 38 38 37 38 38 37 38
24 26 27 25 24 22 17 14 24 25 26 28 30 32 33 35 36 35 35 36 37 36 36 34 36 36 34 31 30 31 33 34 34 32 32 34 36 36 37 37 38 36 35 34 34 34 33 32 30
27 26 25 23 21 24 26 22 25 24 28 29 29 32 35 35 34 34 35 36 36 34 33 33 33 27 26 26 27 29 32 32 31 33 35 35 35 36 35 37 36 34 33 29 27 28 25 24 24

GFSSGP_sfc_30mbdewp_030.txt.gz
Dewpoint
38 28 30 27 21 17 16 28 33 34 36 38 38 37 43 49 50 48 55 57 62 63 65 68 70 70 70 70 69 69 68 69 68 68 68 68 68 66 65 65 65 65 65 65 66 67 67 66 66
33 32 28 19 18 16 26 29 33 35 35 31 35 33 44 47 51 51 52 57 59 63 64 67 69 69 69 69 70 69 69 69 68 67 68 68 67 66 65 64 65 65 65 65 66 66 66 66 64
43 32 16 16 14 13 25 33 35 33 33 32 35 43 44 47 52 50 53 55 58 63 64 66 67 67 68 68 69 69 69 69 69 69 68 67 66 66 65 64 65 66 65 65 66 66 64 63 63
30 21 14 15 15 24 27 32 31 31 34 33 36 42 46 49 50 50 50 53 56 60 64 64 64 64 65 67 67 68 68 68 68 68 67 67 66 65 63 66 65 64 64 65 66 65 64 63 62
27 19 12 15 22 27 30 30 29 31 30 30 32 43 48 51 50 49 48 50 52 57 60 61 63 64 64 64 64 65 66 67 68 67 67 67 66 66 66 65 64 64 63 63 63 63 63 62 62
15 15 14 17 24 27 30 30 29 30 30 26 33 42 48 52 51 51 47 47 48 52 56 58 63 64 64 64 64 64 65 65 66 66 65 65 65 65 65 65 64 64 64 64 63 63 63 63 62
18 15 16 22 23 26 30 29 23 24 23 24 26 40 47 50 52 50 45 44 47 49 52 56 60 62 62 62 63 63 63 63 63 63 63 64 64 64 64 64 64 63 63 63 62 62 61 60 60
14 13 17 20 21 23 21 22 23 21 26 23 32 36 43 50 50 47 44 44 46 48 50 54 57 59 60 61 62 63 63 62 62 61 61 62 62 62 63 63 62 62 61 61 60 59 59 58 58
11 13 14 13 16 11 11 11 12 19 17 23 34 34 46 50 49 45 44 43 46 48 52 53 55 56 60 60 61 62 62 62 62 60 59 61 62 62 61 59 59 59 58 58 57 57 56 56 56
8 7 5 6 6 5 6 5 12 19 18 23 32 44 48 48 47 44 43 44 46 50 51 55 55 56 54 50 59 61 61 62 62 61 60 61 57 57 55 59 59 59 59 59 58 58 56 56 54
8 7 5 5 7 3 5 5 12 12 14 22 25 40 45 46 45 44 43 44 47 49 50 54 57 57 55 53 52 55 57 58 58 57 57 57 56 59 59 60 59 60 60 60 59 58 57 54 53
6 3 1 5 8 5 4 4 6 9 14 17 25 31 43 43 43 43 41 41 44 48 49 55 56 56 54 53 52 52 52 55 54 58 57 58 56 56 54 55 54 56 57 55 52 52 52 52 53
4 0 5 6 9 14 11 9 7 10 14 17 26 31 38 39 40 42 42 42 42 47 48 53 56 56 54 51 53 54 53 56 55 54 56 56 55 56 55 53 53 52 50 49 50 49 50 50 51
9 10 11 13 15 14 13 14 14 12 15 15 23 30 36 39 40 42 42 40 42 43 47 53 57 58 51 51 52 52 54 55 55 53 54 53 55 55 54 52 51 50 49 49 49 49 50 50 50
14 15 16 17 18 19 16 14 13 16 17 18 20 23 31 34 36 39 40 41 41 43 46 50 55 58 54 51 52 50 50 48 49 50 51 51 52 53 52 52 51 50 51 50 50 51 50 50 49
12 15 15 16 18 20 19 16 12 17 18 18 18 22 25 33 34 38 41 42 42 43 45 49 52 57 56 54 51 49 49 49 47 47 48 49 49 50 51 51 51 51 51 50 51 50 49 49 48
14 12 14 17 17 19 17 16 18 22 22 20 19 20 25 28 34 36 39 40 42 46 47 49 51 54 56 55 50 50 49 49 49 48 47 49 48 49 49 49 50 51 50 50 50 49 49 48 48
9 5 6 9 16 13 13 13 19 21 21 20 20 19 23 25 35 41 43 44 46 48 49 50 51 55 55 53 51 49 47 47 47 46 46 47 46 48 48 48 48 50 49 48 49 50 51 50 50
8 7 6 10 17 15 12 16 19 21 22 23 24 25 32 37 40 42 44 45 45 47 49 50 50 50 49 49 46 44 44 43 43 43 45 45 46 45 46 46 46 45 45 46 47 47 47 47 49
10 13 14 17 18 16 18 16 20 23 25 25 28 31 33 35 38 41 43 44 43 43 43 44 44 44 44 43 43 44 44 44 44 44 43 44 46 45 44 44 44 44 44 44 45 45 46 46 46
15 16 22 19 20 20 18 18 20 23 25 27 29 30 31 33 36 40 42 44 44 44 43 42 42 43 44 45 43 44 45 44 42 45 45 45 45 44 43 41 40 42 43 43 44 43 43 43 44
17 25 24 21 20 16 19 14 19 22 24 28 31 32 31 33 36 39 41 44 45 45 45 43 42 42 43 45 45 46 45 44 43 41 42 42 39 40 38 38 40 41 42 43 43 42 44 44 42
23 26 24 23 22 20 17 19 18 22 23 29 32 34 35 36 37 38 40 42 44 45 45 44 42 41 43 43 43 43 43 42 41 40 39 38 40 39 39 37 38 41 41 42 44 44 43 43 42
25 27 25 25 23 22 20 16 19 21 24 30 32 34 35 36 37 38 39 40 43 44 44 44 42 41 42 41 42 41 41 41 39 40 39 40 40 38 37 37 38 41 44 43 43 43 42 41 40
26 24 24 25 23 22 24 21 25 27 28 31 33 34 36 37 37 37 37 38 40 41 42 43 43 41 40 40 41 41 41 41 40 40 41 40 38 37 36 40 43 42 42 42 42 42 41 40 39
26 23 26 22 25 26 23 17 27 30 31 32 33 34 35 36 36 35 36 38 39 39 40 40 41 40 38 39 41 43 43 42 41 41 40 38 37 36 42 42 41 41 40 40 40 40 40 41 40
25 28 25 22 29 28 18 26 29 30 30 31 32 33 34 35 35 36 37 37 38 38 39 39 39 37 37 39 40 39 40 39 39 39 38 36 37 38 40 40 40 39 39 39 39 39 39 38 38
25 24 23 28 23 20 14 16 26 28 29 31 31 32 33 34 34 35 36 36 37 38 38 39 36 37 37 34 32 30 33 35 36 37 36 38 37 37 37 38 38 38 38 38 36 35 35 36 37
23 23 25 23 22 22 21 18 21 23 27 29 30 30 32 34 35 34 34 36 37 38 37 35 35 34 29 29 29 31 33 34 35 37 37 36 37 37 37 36 36 37 37 35 35 34 34 34 34
25 25 24 24 24 28 26 25 24 24 27 28 30 32 33 34 34 34 35 37 37 36 35 34 31 26 27 28 30 31 33 33 35 35 36 38 36 35 37 37 37 37 34 32 30 29 28 27 26

GFSSGP_sfc_30mbdewp_033.txt.gz
Dewpoint
32 31 30 29 22 22 18 22 36 36 33 44 48 50 51 52 50 50 62 65 66 67 69 69 69 70 70 70 69 69 69 69 69 69 69 68 67 66 65 65 66 66 65 66 67 67 67 66 65
39 31 32 22 18 17 28 34 32 30 35 44 47 50 49 50 53 56 61 64 65 66 68 69 69 69 70 69 69 69 69 69 68 69 68 68 67 66 65 65 65 66 65 65 66 66 65 65 64
37 32 22 16 16 17 33 32 31 32 35 40 44 47 50 49 51 54 62 63 64 65 67 67 67 68 69 69 69 69 69 69 69 69 68 67 66 65 65 66 66 65 66 66 66 65 64 63 62
32 24 14 12 12 20 33 32 32 32 33 43 44 48 48 51 50 54 62 63 64 64 65 65 65 66 67 68 68 68 68 68 68 68 67 67 66 65 66 65 65 64 64 65 65 64 63 62 62
31 23 14 13 27 31 31 31 32 31 34 46 48 49 47 48 50 52 57 61 61 62 62 63 64 64 64 64 65 66 67 67 67 67 66 66 66 66 65 65 64 64 63 63 63 63 63 63 62
22 19 14 13 26 29 29 28 33 32 29 46 48 49 49 49 48 49 56 58 59 59 61 62 63 64 63 63 63 64 64 65 65 65 65 65 65 65 65 65 64 64 64 64 63 63 62 62 61
22 19 15 15 27 28 27 24 26 24 24 35 48 48 50 51 48 46 50 54 55 57 58 61 62 62 62 62 62 62 62 63 63 62 63 63 63 64 64 63 63 63 63 62 62 61 60 59 59
19 16 12 13 21 20 21 14 24 23 19 31 44 46 49 51 48 44 47 51 52 54 57 58 59 61 61 62 62 62 61 61 60 61 61 62 62 63 62 61 62 62 61 61 60 58 57 57 57
18 13 11 12 15 14 13 12 15 21 27 40 40 48 50 50 45 43 45 46 49 52 56 58 58 59 59 61 61 61 61 60 60 60 60 61 61 62 62 62 60 59 59 58 57 56 56 55 55
13 10 6 9 9 7 8 8 14 19 25 43 48 50 50 48 44 42 43 45 48 52 55 56 58 60 60 58 60 60 61 61 60 60 60 61 61 62 61 59 58 58 59 58 58 58 57 57 55
6 4 5 8 5 5 9 11 16 17 23 39 47 48 48 47 44 43 43 45 49 50 55 57 56 55 56 57 59 60 60 61 61 61 59 60 58 59 58 59 59 59 59 59 59 59 58 56 54
1 4 6 9 9 3 3 4 8 15 22 30 47 47 47 46 44 43 43 46 49 50 54 56 56 54 53 53 54 58 58 59 59 59 57 55 56 56 56 59 58 59 59 59 59 58 56 55 53
1 5 6 8 14 13 9 5 10 14 21 28 44 45 45 45 44 44 43 45 48 51 54 55 55 55 52 51 53 53 55 56 55 58 57 55 54 54 54 53 52 51 51 50 50 49 49 49 49
5 5 7 9 15 14 12 13 14 13 16 28 34 42 42 43 43 43 42 43 47 50 54 56 55 56 51 53 51 52 53 55 53 56 54 55 55 53 53 52 51 50 50 50 50 48 48 48 49
15 12 13 15 16 15 16 16 13 14 14 22 28 36 38 40 40 41 42 42 46 47 54 55 57 53 50 52 51 51 55 48 51 52 52 53 52 52 52 51 51 52 53 50 50 49 50 50 50
13 16 14 17 18 19 18 16 13 17 17 18 21 21 33 39 40 41 41 41 42 46 52 56 59 56 53 51 51 49 50 49 48 49 51 51 50 50 51 50 49 50 50 49 49 49 49 49 49
13 12 16 16 18 20 18 17 17 20 21 20 20 22 24 37 40 42 43 47 49 50 51 55 58 59 60 58 53 50 48 47 47 50 50 49 48 48 47 47 48 49 50 50 50 50 50 49 49
10 11 17 16 14 12 12 19 21 21 21 22 27 33 40 41 43 45 46 48 50 51 52 53 53 54 56 55 53 51 49 47 48 47 46 45 47 47 47 46 46 47 45 46 45 45 45 46 47
10 12 12 16 17 14 14 18 21 23 25 33 36 37 39 41 43 45 45 46 46 47 46 45 44 46 47 45 43 44 42 43 44 46 45 44 47 47 45 45 44 44 44 43 44 45 43 43 45
12 16 20 18 19 15 15 19 23 25 28 32 34 36 38 41 43 45 45 46 46 44 44 44 43 44 44 45 44 45 45 44 45 46 46 46 44 44 44 42 42 43 43 44 44 42 41 43 44
23 22 21 20 20 21 19 19 23 26 28 30 32 35 38 41 42 43 44 44 44 43 42 43 43 43 45 45 46 46 46 45 43 42 43 40 41 40 39 38 39 40 42 42 42 42 44 43 44
24 28 25 22 21 19 21 15 22 24 26 30 32 33 37 40 42 43 44 44 44 44 43 43 42 42 44 44 44 43 43 42 42 41 41 41 41 40 38 38 38 40 42 43 44 43 43 42 40
24 25 25 25 24 23 22 18 20 24 30 32 34 35 37 38 40 42 43 44 44 44 43 43 43 43 43 44 43 42 42 41 41 40 40 41 41 38 38 38 42 43 43 42 42 42 41 41 40
26 26 27 27 26 22 27 24 20 23 30 33 34 35 36 37 38 41 43 44 44 45 44 43 42 42 41 42 43 42 42 41 40 40 41 40 39 38 41 42 42 42 42 42 42 41 41 40 39
27 25 25 23 26 23 31 29 32 31 32 33 34 36 36 37 38 38 39 41 42 42 42 42 41 39 39 41 42 42 41 41 40 41 39 38 37 39 42 41 40 40 41 40 40 40 40 40 39
27 26 26 21 22 25 24 26 29 31 34 35 36 36 37 37 36 37 38 39 38 39 39 39 39 38 40 42 40 39 39 39 40 40 38 37 38 40 40 40 39 39 39 39 39 39 40 39 38
22 27 25 22 30 27 25 28 30 31 32 33 34 34 35 36 35 37 37 37 38 38 39 39 37 38 36 32 30 31 34 34 34 38 38 38 38 38 39 39 39 39 38 38 38 38 37 36 37
28 24 22 29 22 21 21 26 29 30 30 31 32 34 35 35 35 37 36 37 38 38 38 36 37 33 29 29 30 31 32 33 37 37 36 36 36 37 37 38 37 35 36 37 37 36 35 35 36
25 25 25 25 25 21 21 20 27 30 32 30 33 34 35 35 35 35 36 38 37 37 36 35 28 27 27 28 29 31 32 35 36 37 37 38 38 36 36 37 37 37 37 37 35 34 33 32 32
25 25 26 23 23 27 26 23 29 33 34 34 33 33 35 36 36 36 36 37 37 35 34 28 26 26 27 28 30 30 31 36 37 37 38 38 38 38 38 37 36 35 35 34 33 29 28 25 23

GFSSGP_sfc_30mbdewp_036.txt.gz
Dewpoint
32 29 30 28 20 22 19 23 38 40 47 51 51 51 52 53 49 47 64 67 68 68 69 69 69 69 69 69 70 70 69 69 69 69 68 67 66 65 65 65 67 66 65 66 66 66 66 65 64
35 31 31 21 18 17 31 32 41 45 49 49 49 51 52 54 59 62 63 66 68 68 69 69 69 69 69 69 69 69 69 69 69 68 67 66 66 66 65 66 67 66 65 66 66 65 64 64 63
33 31 18 15 16 16 30 30 35 44 47 46 48 50 50 54 60 61 64 66 67 67 68 68 68 69 69 69 69 69 69 69 69 68 67 67 66 66 66 65 65 65 66 66 65 65 64 63 62
31 22 14 12 11 14 32 32 38 42 47 48 49 47 49 52 57 63 64 65 65 65 66 67 67 68 68 68 68 68 68 68 68 68 67 66 66 66 65 65 64 63 63 64 63 62 62 62 62
30 22 14 11 22 31 32 32 34 40 47 48 47 46 47 59 63 63 63 63 63 63 64 64 65 66 67 67 67 67 67 68 68 67 67 66 65 65 65 64 64 63 63 63 63 63 62 62 61
19 19 13 23 30 34 26 31 38 47 48 47 46 47 47 58 60 61 61 61 61 60 62 62 63 63 63 64 64 64 65 65 65 65 65 65 64 64 63 63 63 63 63 62 62 61 61 60 60
19 17 14 27 33 31 23 26 40 47 47 49 50 46 48 48 57 58 58 58 58 60 61 62 62 62 61 61 62 62 62 62 63 63 63 63 63 62 63 63 63 62 62 62 60 59 58 58 58
22 17 13 26 35 26 21 23 22 35 42 50 50 48 46 48 53 54 55 54 56 58 59 59 60 61 60 60 60 60 60 61 61 61 61 61 62 62 62 62 62 62 62 61 60 58 57 56 55
18 16 12 11 18 15 13 20 23 36 41 45 45 50 49 46 48 51 51 51 53 55 56 58 59 59 59 60 60 60 60 60 60 60 60 61 61 62 62 61 60 60 60 59 58 57 56 56 55
19 14 12 12 15 9 9 18 22 38 45 48 49 51 49 44 46 48 48 49 51 53 55 56 58 58 59 59 61 60 60 60 59 60 60 60 60 61 62 61 59 59 59 58 58 58 58 58 56
12 5 7 8 7 8 14 16 18 37 44 48 48 49 46 43 44 45 46 48 50 54 56 56 58 59 58 58 60 59 60 60 60 59 59 60 61 61 61 59 59 58 59 59 59 59 58 57 56
4 7 9 10 7 9 9 10 13 21 39 49 49 48 46 43 42 43 44 47 50 53 55 57 57 59 58 58 58 59 59 60 60 61 60 58 58 58 59 59 58 58 58 58 58 57 57 55 55
4 6 8 15 13 6 5 11 15 20 40 49 49 48 46 44 43 43 44 46 50 54 56 56 55 54 52 54 55 57 58 59 60 60 57 55 55 54 54 53 53 52 51 51 50 51 49 48 48
6 6 6 13 14 14 12 13 14 19 42 47 47 46 47 45 44 44 44 45 49 54 55 55 54 53 50 52 53 53 56 56 56 58 56 54 55 53 53 51 52 51 51 51 50 49 49 49 50
8 9 11 14 14 11 17 15 12 19 41 45 46 46 46 45 45 44 44 44 49 53 54 54 55 53 52 52 51 52 54 53 56 56 55 55 53 53 51 51 50 50 52 51 50 50 50 50 50
13 15 13 15 16 18 16 14 14 15 29 39 42 43 43 43 43 43 43 44 49 53 54 56 56 53 54 53 53 50 52 49 50 53 53 53 53 51 51 50 49 50 49 49 48 48 46 46 47
15 12 14 16 19 19 18 17 17 16 19 23 27 38 41 44 45 47 50 50 51 54 56 58 56 56 57 57 55 52 50 49 49 50 51 51 50 50 48 48 48 48 45 45 45 44 46 45 44
13 10 16 16 17 17 17 18 18 21 30 36 40 41 43 44 44 46 47 48 48 49 52 54 55 58 59 57 53 48 46 45 48 47 46 47 49 47 46 46 45 45 44 43 44 44 43 43 42
12 14 16 16 16 14 16 19 22 33 36 39 40 41 42 43 45 46 47 48 48 48 46 48 48 49 49 48 46 45 44 44 46 46 46 46 44 43 41 42 41 42 42 43 43 43 41 40 44
18 17 17 18 20 14 19 22 26 32 35 38 40 41 42 43 44 44 45 46 46 47 47 44 44 44 45 45 46 46 46 45 43 43 42 41 40 39 38 39 40 41 41 40 41 43 42 44 44
26 23 22 20 22 21 20 22 27 30 34 37 39 41 42 42 43 44 44 44 44 43 43 43 43 44 44 44 44 44 45 44 42 41 41 41 39 38 37 38 39 41 42 42 43 43 42 42 42
25 26 24 22 20 11 21 17 24 28 31 35 38 40 42 42 43 43 43 43 43 42 43 43 43 43 44 44 43 42 42 40 41 41 41 41 39 38 39 41 42 43 43 42 42 42 41 40 39
24 25 23 24 23 24 23 20 21 31 31 34 36 39 41 42 43 43 43 43 43 43 43 42 42 42 42 43 43 42 41 42 42 42 41 40 39 39 42 42 42 41 41 41 41 41 40 40 38
27 27 29 28 27 22 27 26 21 29 32 34 36 38 40 41 42 43 43 44 44 44 43 43 39 39 41 42 42 42 41 41 40 41 40 39 39 41 41 41 41 41 40 40 41 40 40 39 38
27 27 23 23 25 23 30 29 30 32 33 35 36 37 38 39 40 42 43 43 44 43 42 40 39 39 42 42 41 41 40 40 40 41 38 37 37 40 40 39 39 39 39 39 38 38 38 39 37
26 28 24 19 19 19 28 28 30 34 36 36 36 37 37 37 38 40 41 42 40 39 39 40 39 40 40 35 32 34 36 36 37 38 38 38 39 40 40 39 38 38 37 37 37 37 37 38 35
23 26 25 24 28 24 26 29 30 34 34 35 38 39 41 38 36 38 40 38 38 39 39 38 38 33 30 30 31 32 33 34 37 37 37 37 37 38 39 39 39 38 38 37 37 37 36 36 35
26 25 24 26 19 18 22 27 29 31 33 34 34 36 36 37 36 38 38 38 38 38 37 34 29 28 28 29 30 32 33 37 37 37 36 36 37 37 37 37 37 36 37 37 37 36 35 34 34
24 25 25 26 26 20 21 20 31 31 32 33 35 36 37 36 36 37 38 37 36 36 30 27 27 27 27 28 30 31 32 36 37 37 37 37 37 36 37 38 37 36 35 35 33 32 33 31 27
26 26 26 19 19 27 25 21 33 32 32 33 33 36 36 37 36 36 35 34 34 34 28 27 26 26 26 27 29 30 31 36 36 37 37 36 34 36 36 36 36 33 33 33 29 27 26 24 23

GFSSGP_sfc_30mbdewp_039.txt.gz
Dewpoint
39 33 31 28 20 21 19 21 40 41 46 51 52 51 51 55 51 47 63 67 68 67 68 68 69 70 70 70 70 70 70 69 68 67 67 66 66 65 65 66 66 66 66 66 66 65 65 64 64
34 32 28 20 15 14 30 33 43 46 49 51 51 53 53 55 61 63 63 68 68 68 68 69 69 69 70 70 70 70 69 69 68 67 67 66 66 66 66 66 67 66 66 65 65 64 64 63 62
40 30 15 15 16 15 29 36 46 48 49 47 49 49 52 57 61 62 65 67 68 68 68 69 68 69 69 69 69 69 69 69 68 68 67 66 67 66 65 65 65 66 65 64 64 63 62 62 62
32 19 15 12 12 15 32 39 46 47 48 49 50 48 50 56 61 64 66 67 66 67 67 68 68 68 68 68 68 69 69 68 68 68 67 66 66 65 64 64 63 63 63 62 62 62 62 62 61
29 18 12 11 18 24 30 40 44 44 47 48 48 47 50 62 64 65 65 65 65 65 66 67 67 68 68 68 68 68 68 68 68 68 67 66 65 64 64 63 63 63 62 62 62 62 61 61 60
18 18 14 24 33 34 28 37 46 47 47 48 49 49 53 62 62 63 63 63 63 63 63 64 65 66 67 67 67 67 67 66 66 65 65 64 64 63 63 63 63 63 62 62 61 60 59 59 58
17 15 13 35 31 32 27 37 46 45 47 47 48 48 56 59 61 61 61 60 60 60 60 61 62 62 63 63 63 64 64 64 63 63 63 63 62 63 63 63 63 62 61 60 59 58 57 57 56
21 16 15 36 31 31 31 28 40 45 47 50 48 48 53 54 59 59 58 57 58 59 59 59 60 60 60 61 61 61 61 61 61 61 61 62 62 62 62 61 61 61 60 59 58 57 56 56 55
19 15 17 36 30 31 31 23 28 43 49 47 46 47 51 55 55 54 52 54 55 56 58 59 59 59 59 59 60 60 60 60 60 61 61 61 61 62 62 61 61 60 59 59 58 57 57 56 56
20 16 14 34 37 35 20 34 37 45 47 49 48 48 52 52 51 48 46 48 51 52 55 58 58 58 58 59 60 59 60 60 60 60 60 60 60 61 61 61 61 60 59 59 59 59 59 59 56
16 10 9 13 32 27 17 23 33 46 46 48 47 46 48 49 48 45 44 46 46 51 54 56 57 57 57 57 59 59 59 59 59 59 59 60 60 60 61 60 58 58 58 58 58 58 58 58 56
8 7 8 9 11 12 14 17 37 35 45 50 48 45 46 46 47 47 45 47 49 52 53 56 57 57 57 58 58 57 59 59 59 59 60 59 59 59 59 60 58 57 57 56 56 56 56 53 53
6 10 12 11 8 8 10 13 18 26 48 50 48 44 44 44 45 46 46 48 50 53 54 56 57 58 58 57 58 58 58 59 59 60 60 58 57 55 56 57 55 52 51 50 50 50 49 49 50
6 7 12 14 14 13 13 15 18 28 49 48 48 45 43 43 43 44 45 47 50 52 55 56 57 58 55 56 56 57 58 59 59 59 59 56 55 54 53 52 51 51 52 51 50 50 50 49 49
10 7 12 14 12 13 16 13 18 34 48 48 47 47 45 43 43 43 44 46 50 53 55 56 55 53 53 53 53 54 56 56 56 58 58 55 55 53 52 51 50 50 50 49 48 46 46 45 46
13 15 11 14 16 17 15 9 15 39 47 47 47 46 45 45 47 47 44 44 50 54 55 55 55 54 57 57 54 52 52 50 51 55 54 54 53 52 51 49 48 49 47 46 44 45 43 44 43
15 13 14 16 17 19 17 16 18 29 43 38 40 41 44 46 47 48 51 51 52 56 57 57 58 59 59 57 54 51 47 49 49 50 51 50 50 49 48 46 45 45 44 44 44 44 43 41 40
10 12 14 14 17 18 17 18 21 22 33 38 41 43 44 45 46 47 48 50 52 54 55 57 58 59 58 53 51 47 47 46 46 46 46 45 44 44 43 42 42 43 42 41 41 41 41 40 43
16 13 15 16 16 14 17 21 29 37 39 40 42 43 44 45 46 47 48 48 51 52 54 54 54 52 50 48 46 45 44 45 43 42 42 41 40 39 39 40 39 40 38 40 41 41 39 40 43
19 16 16 20 22 17 21 25 31 35 39 41 42 42 43 44 44 45 47 48 48 49 48 46 46 46 46 45 46 46 44 42 41 41 40 39 38 37 37 37 39 41 40 41 42 42 42 43 42
25 20 20 19 21 21 23 24 30 35 38 40 42 42 42 42 44 45 45 46 46 44 43 43 43 43 44 44 44 45 44 43 41 40 40 40 38 38 38 39 40 41 42 42 42 41 39 38 40
23 26 23 22 19 12 21 19 28 32 35 39 41 41 42 43 44 44 43 43 42 43 43 43 43 43 43 43 42 41 40 39 41 41 41 40 39 39 41 42 42 42 41 40 40 41 40 40 38
24 25 23 24 22 23 25 19 23 32 33 36 39 41 42 43 42 42 42 42 42 43 42 43 43 43 43 43 43 41 41 42 42 42 41 40 39 42 42 42 41 40 40 40 40 40 39 39 38
27 27 30 30 27 22 27 27 22 30 32 35 38 40 42 42 43 43 43 43 43 44 41 40 40 41 43 42 42 41 41 40 39 40 40 39 39 41 40 39 39 39 39 39 39 39 38 38 38
28 27 23 23 23 22 29 28 29 31 33 36 38 40 41 42 42 42 43 43 44 43 42 39 39 41 41 40 39 39 38 38 38 38 38 38 37 40 39 38 38 38 38 37 37 36 36 37 36
27 28 21 19 20 19 28 27 29 34 36 37 38 38 38 39 41 42 43 43 43 42 40 39 41 40 35 31 32 34 34 34 35 37 38 38 38 38 39 39 38 37 37 36 37 36 36 36 36
24 24 26 27 27 23 27 29 32 35 35 36 36 37 38 39 40 38 40 39 39 39 39 39 36 31 30 31 31 32 33 34 35 37 37 37 37 38 39 38 38 38 38 37 37 36 35 35 35
22 26 24 24 15 15 22 27 28 33 34 36 37 38 39 38 37 38 38 37 37 37 37 34 30 28 28 29 30 31 32 36 37 37 36 36 36 37 37 37 37 37 37 37 37 34 33 33 33
24 23 26 27 25 19 19 21 27 32 33 34 35 37 35 37 37 36 35 35 35 35 29 28 27 27 26 28 30 31 31 35 37 36 36 37 37 36 36 36 37 37 34 33 33 32 29 25 24
26 26 24 11 18 27 24 20 33 33 34 35 36 36 36 36 36 35 34 34 34 34 29 28 27 27 27 27 28 29 31 32 35 36 37 37 36 34 35 35 36 35 31 28 26 25 25 23 22

GFSSGP_sfc_30mbdewp_042.txt.gz
Dewpoint
41 32 30 28 21 19 16 19 36 42 48 52 54 50 53 57 52 47 65 67 67 67 68 69 70 70 70 69 70 70 69 68 67 67 67 66 66 65 66 66 67 66 65 65 65 64 64 63 63
36 32 27 21 13 10 28 29 43 48 52 53 53 54 54 56 61 62 63 67 67 67 68 69 70 70 70 70 70 69 68 68 67 67 66 66 66 66 66 67 66 66 64 63 64 64 62 62 62
37 30 17 15 17 15 27 38 46 49 49 49 48 51 55 58 62 62 66 67 68 68 68 69 69 70 70 70 70 70 69 69 68 67 66 66 67 66 65 65 66 65 64 63 62 61 61 61 62
30 20 15 12 11 15 29 39 47 48 48 49 47 46 51 60 61 64 67 67 66 67 67 68 68 69 69 69 69 69 69 68 68 67 67 67 65 64 64 64 64 63 62 61 61 61 61 61 61
26 18 12 11 22 26 25 44 47 46 47 45 43 44 51 62 65 66 66 66 65 66 67 67 67 68 68 68 68 68 68 68 68 67 67 65 64 63 63 63 63 63 62 61 61 60 60 59 58
20 17 13 25 32 33 34 42 48 47 48 48 49 50 56 63 64 65 65 65 65 65 66 67 67 68 68 68 67 67 67 67 67 66 66 64 64 63 63 63 63 62 62 61 60 59 58 57 57
18 14 23 33 31 31 31 44 45 46 47 48 49 52 59 61 63 63 63 62 63 63 63 64 65 66 66 66 66 66 66 65 65 64 63 63 62 63 63 63 62 61 60 59 59 58 57 57 57
21 16 25 35 31 32 28 43 45 44 46 49 52 51 56 59 61 60 60 60 60 59 59 59 61 61 61 62 63 63 63 63 62 62 61 62 62 62 61 61 61 60 59 59 58 58 57 57 57
19 14 26 35 36 34 34 42 41 46 48 48 48 53 56 59 58 57 56 56 56 57 57 58 58 59 59 59 61 61 61 61 60 61 61 61 61 61 61 60 60 60 59 59 59 59 59 59 57
20 16 24 35 36 35 37 31 37 47 48 48 47 54 57 57 57 55 52 50 51 53 55 57 58 57 58 59 60 59 60 60 60 60 60 60 60 60 61 61 61 60 60 59 59 59 59 58 57
19 16 15 34 36 32 33 30 37 46 45 47 46 53 55 55 53 51 48 48 47 51 54 56 57 57 57 57 58 58 59 59 59 59 59 59 60 60 60 60 59 58 58 57 57 57 57 57 55
15 13 13 30 39 36 26 25 43 41 39 48 49 53 53 52 49 45 43 45 46 49 51 55 57 57 57 57 58 57 58 58 58 58 58 58 58 59 59 59 58 57 56 53 52 51 50 49 50
8 9 12 17 26 20 18 20 38 28 48 48 48 51 50 48 45 43 41 44 47 49 51 54 56 57 57 57 57 57 58 59 59 59 60 59 58 57 57 58 55 52 51 51 50 50 49 48 48
7 12 13 9 9 10 15 16 21 33 50 47 46 48 47 46 46 46 46 45 48 49 51 54 56 58 57 56 57 57 57 58 59 59 60 59 56 55 54 52 51 51 51 50 49 48 46 45 45
11 12 13 14 12 14 16 14 17 42 49 48 45 44 44 44 44 44 45 46 49 51 54 56 56 54 54 53 52 53 55 56 56 57 58 56 55 53 52 51 49 49 48 46 45 44 44 43 42
13 14 8 13 14 17 13 10 15 46 48 48 47 46 45 46 47 49 48 45 48 52 55 56 56 57 57 56 53 51 50 50 51 53 53 52 52 51 49 47 46 46 45 44 44 44 41 41 40
15 12 14 14 18 18 15 15 17 46 47 44 43 44 45 46 47 48 50 50 50 55 57 57 59 58 57 58 54 51 50 50 50 49 48 48 48 46 43 42 43 43 42 42 41 41 40 38 39
11 11 14 14 17 18 17 20 31 34 41 42 42 44 45 46 46 48 51 53 55 57 58 59 59 58 56 54 52 51 47 44 44 43 43 42 42 42 41 41 41 40 39 39 40 39 40 40 43
15 13 12 16 17 16 22 28 34 38 40 41 43 44 45 45 46 48 50 52 54 55 57 58 58 57 54 52 47 45 42 43 41 41 40 39 39 39 39 39 39 40 39 41 42 42 41 41 42
17 16 16 20 20 17 26 30 34 37 40 42 43 44 44 44 45 46 47 48 49 51 52 53 51 50 48 46 45 43 42 41 41 40 39 38 38 38 38 39 39 40 40 41 41 40 39 40 41
24 19 20 19 20 23 24 24 32 37 40 42 42 43 43 44 44 45 45 47 48 45 43 44 44 44 44 45 45 45 43 42 40 40 39 39 39 39 40 40 41 41 41 39 39 40 38 38 39
21 26 23 21 17 15 22 16 28 35 38 40 41 42 42 43 45 45 45 42 42 42 43 43 43 42 43 43 41 40 39 39 40 41 40 39 39 41 41 41 41 40 39 38 38 40 39 38 37
24 26 25 24 22 22 25 19 23 34 36 38 40 41 42 43 43 42 42 42 42 43 43 43 43 43 43 43 42 41 41 42 42 42 41 40 40 42 41 40 39 37 38 38 39 39 38 38 37
27 28 29 29 26 22 28 27 23 30 32 36 39 41 42 42 42 42 42 43 43 43 42 42 41 42 42 42 42 41 41 40 39 40 40 39 39 40 40 38 38 38 37 37 37 37 36 36 37
28 25 22 22 22 21 28 27 26 30 34 37 38 40 41 42 42 42 43 43 44 43 40 39 41 41 41 40 39 39 38 36 34 35 35 36 37 38 39 38 37 37 37 37 37 36 35 35 35
28 26 22 20 21 21 28 26 28 35 35 37 39 40 41 41 42 42 43 44 44 42 40 39 41 38 33 32 32 33 32 31 33 35 37 37 37 38 38 38 38 37 37 37 36 36 35 35 35
27 24 26 26 27 22 25 28 32 35 36 37 38 39 40 40 40 40 41 41 39 39 39 40 36 31 30 30 31 31 31 32 34 36 37 36 37 37 38 38 38 37 37 37 37 36 35 34 34
22 28 24 23 12 7 21 24 26 33 34 36 37 37 38 40 38 39 38 38 38 37 36 31 30 28 28 29 30 31 31 33 35 36 35 36 36 36 36 37 36 36 37 37 36 36 34 32 32
25 24 26 27 24 14 14 18 28 33 35 35 36 37 37 37 36 35 34 35 33 29 28 28 27 27 26 27 28 30 31 32 36 36 36 36 36 36 35 35 35 36 36 34 33 32 28 25 24
26 25 22 9 16 26 23 19 33 33 34 35 36 36 36 35 35 34 34 34 33 34 34 31 30 32 31 28 28 28 30 30 31 33 35 37 37 37 34 35 35 35 34 31 27 26 25 22 22

GFSSGP_sfc_30mbdewp_045.txt.gz
Dewpoint
46 33 32 29 22 18 14 19 33 46 49 53 53 51 53 55 52 48 66 67 66 66 67 69 70 69 69 70 70 69 69 68 68 67 68 67 66 67 67 67 67 66 64 65 65 63 62 62 62
34 32 26 23 14 7 25 28 44 50 53 54 52 55 54 56 61 63 63 66 65 66 68 69 70 70 70 70 69 69 68 68 68 67 66 66 66 66 66 66 67 65 63 64 62 61 61 62 62
36 27 20 18 17 15 28 43 49 51 54 52 50 52 55 57 61 62 66 66 65 67 68 69 70 70 70 70 69 69 69 68 68 67 66 67 66 66 66 67 66 64 63 61 61 61 61 61 61
30 21 17 14 13 16 31 47 48 47 48 48 48 44 55 61 61 65 67 66 65 67 68 69 69 69 70 70 70 69 68 68 67 67 67 66 65 64 64 64 64 62 61 60 60 60 60 59 58
25 18 13 14 25 27 26 47 48 46 47 45 44 44 54 62 64 66 66 65 65 66 67 68 68 69 69 69 69 68 68 67 67 67 67 65 64 63 63 63 63 62 60 60 59 59 58 58 57
22 19 14 25 32 32 41 48 44 47 47 47 47 49 57 64 64 65 66 65 65 65 66 66 68 68 68 68 68 67 67 67 67 67 65 64 64 63 63 63 62 61 60 60 59 58 58 57 58
21 16 25 33 32 35 40 48 44 45 43 47 50 53 59 62 64 65 65 65 65 65 65 66 66 67 67 67 66 66 67 66 65 64 64 63 62 62 62 62 61 61 60 59 59 58 58 58 58
21 19 34 35 32 32 39 44 44 45 47 50 54 50 56 60 62 63 63 63 63 63 63 64 64 64 65 65 65 65 65 63 63 63 62 62 62 61 61 60 60 60 60 60 59 59 59 59 58
20 16 30 34 34 38 41 38 42 48 48 49 49 55 59 61 61 61 60 59 60 59 59 60 60 61 61 61 62 62 62 62 61 61 61 60 60 60 60 59 60 60 60 60 60 60 60 59 57
20 15 24 36 39 42 41 39 40 46 47 47 51 57 60 60 60 59 58 57 55 54 55 57 59 58 59 58 60 61 60 59 60 60 61 60 61 61 60 61 60 60 59 59 59 58 57 57 53
20 15 21 35 36 40 40 34 44 46 46 46 49 57 59 59 58 57 56 53 49 51 54 57 58 58 58 58 59 58 59 59 59 60 60 61 61 61 61 61 60 60 58 57 55 54 54 53 52
15 15 21 35 37 30 32 32 43 45 41 48 54 58 58 57 56 55 52 47 47 49 52 56 58 58 58 58 58 58 58 58 58 59 60 60 60 61 61 60 60 58 55 53 52 52 53 52 50
15 11 12 17 31 23 26 31 39 39 48 50 55 56 56 55 54 52 47 44 46 48 51 55 57 58 58 58 58 58 59 59 60 60 60 61 60 60 59 59 56 53 53 52 52 51 48 47 46
11 12 11 16 27 22 21 20 33 35 47 50 54 54 53 52 50 46 43 42 45 47 51 55 57 59 58 57 57 58 59 59 60 61 61 61 59 58 56 54 53 52 50 49 47 47 45 44 43
13 12 13 14 16 19 17 16 19 44 46 47 51 51 49 47 46 44 45 44 45 48 53 56 57 57 55 54 53 53 53 54 56 58 59 58 58 56 54 52 50 48 47 47 46 45 44 41 39
13 13 8 15 15 17 15 13 18 49 47 45 46 46 46 46 47 48 50 48 48 50 54 56 57 57 57 55 54 52 52 53 55 55 56 56 55 53 50 47 46 46 44 43 43 41 40 38 37
15 8 11 14 19 17 15 15 28 42 48 46 45 45 46 46 47 49 52 54 48 55 56 58 58 58 57 56 56 56 53 52 52 51 50 50 48 47 45 45 44 43 41 41 39 38 39 36 37
12 13 14 14 17 18 18 25 33 39 44 43 44 45 46 46 47 50 54 56 57 58 59 59 59 58 56 56 55 52 50 46 46 47 44 45 44 44 43 41 42 41 40 40 40 39 38 38 39
13 13 13 16 18 24 26 30 35 40 42 43 44 45 46 47 49 52 54 57 58 58 58 59 58 57 56 54 50 46 45 44 43 42 42 42 41 41 42 41 41 41 40 41 40 38 37 34 38
17 16 18 21 22 22 29 32 37 39 41 42 44 45 46 48 49 50 52 54 56 57 58 58 57 55 53 50 47 45 43 43 42 41 41 41 42 42 41 42 41 41 39 40 39 39 35 34 38
23 20 20 19 23 25 25 25 32 39 42 43 44 45 46 46 45 46 48 50 52 53 54 52 51 52 51 48 47 45 44 43 41 41 40 41 42 42 42 42 42 41 39 37 37 38 37 33 36
22 25 22 20 16 17 22 14 26 36 40 42 43 43 44 44 45 45 45 44 45 45 46 45 45 45 46 46 45 44 41 40 42 42 41 40 42 43 42 42 41 40 39 37 37 37 38 38 33
25 26 25 24 23 21 26 18 22 36 38 40 41 42 43 44 44 43 42 42 43 45 45 45 45 45 45 45 45 43 43 43 43 43 43 42 42 42 41 41 40 38 37 37 37 36 36 36 35
31 29 29 29 27 20 26 26 25 30 34 39 40 41 42 43 43 42 42 43 43 45 45 44 44 43 44 44 44 44 43 41 39 39 39 39 40 41 41 40 40 39 38 37 36 37 37 36 36
28 25 18 18 21 18 28 27 27 31 33 39 39 40 42 42 42 42 42 42 43 43 42 42 43 42 42 41 40 39 38 35 32 33 32 34 36 38 39 41 40 38 38 38 38 37 37 37 36
28 25 21 15 21 23 27 26 27 34 36 37 39 40 41 42 43 43 43 44 44 44 41 42 42 38 35 35 35 35 34 32 32 34 34 35 36 36 39 40 40 39 39 38 38 38 38 38 38
28 25 27 25 27 22 22 28 30 35 36 37 38 40 41 42 42 43 44 44 43 42 42 43 37 34 33 33 34 33 34 35 35 36 38 38 38 38 39 40 39 39 39 39 39 38 37 37 36
26 29 24 24 12 6 17 23 23 32 34 37 38 39 40 40 40 40 40 40 39 39 37 35 32 30 30 31 32 32 33 34 35 37 38 38 38 37 38 38 38 37 37 38 38 37 35 35 34
26 25 27 27 23 7 6 11 29 31 35 36 38 39 40 39 38 36 36 35 32 31 31 30 29 29 31 29 31 32 32 33 33 33 34 34 36 37 38 38 36 35 36 37 36 33 32 28 27
26 25 25 15 16 25 23 15 32 34 35 37 37 38 38 36 34 34 34 34 34 35 35 34 35 34 32 31 31 30 31 32 32 31 31 33 34 36 37 38 36 36 36 35 32 30 26 25 23

GFSSGP_sfc_30mbdewp_048.txt.gz
Dewpoint
42 31 23 29 23 19 19 20 39 47 49 51 51 51 50 52 49 49 64 63 63 63 66 67 69 69 69 69 70 70 70 69 68 68 68 67 67 67 67 67 66 65 65 64 62 61 61 61 62
24 24 23 23 17 11 11 21 38 49 52 52 51 51 52 54 59 62 62 64 63 63 64 66 69 69 70 70 69 69 68 68 68 67 66 66 66 66 66 67 65 64 63 61 61 61 61 61 59
29 25 20 14 8 7 15 30 48 50 48 47 47 51 51 55 60 61 64 64 64 64 64 67 69 70 70 69 69 69 69 68 68 67 66 66 66 67 67 66 65 63 61 60 60 60 59 58 58
20 18 18 9 5 19 33 44 49 48 47 47 51 51 56 60 61 65 65 64 63 64 65 68 69 70 70 70 69 69 68 67 67 67 67 66 64 64 64 65 63 61 60 59 58 58 58 58 58
20 18 10 7 10 19 40 45 45 43 41 41 43 43 52 61 63 64 65 63 62 62 65 67 69 69 69 69 69 68 67 67 67 68 66 64 63 63 63 63 62 60 59 58 58 57 57 58 58
14 16 8 8 19 29 33 46 44 41 39 43 43 45 55 63 63 65 64 63 63 63 64 66 68 69 69 69 68 67 67 67 67 66 65 64 63 63 63 62 61 60 60 59 58 58 58 58 59
16 10 11 19 26 33 42 44 41 38 41 44 45 47 58 62 64 65 63 62 62 63 64 64 65 67 68 67 67 66 67 66 66 64 64 63 62 63 62 62 61 60 60 59 59 59 59 60 59
19 15 25 28 28 34 45 43 42 46 45 50 49 47 55 61 64 64 64 63 62 63 62 61 62 62 62 64 66 66 65 64 63 63 62 62 61 60 60 59 60 60 60 60 60 60 60 59 58
22 15 25 31 32 40 42 40 40 45 46 48 49 52 56 62 63 62 62 61 61 61 62 59 58 59 59 57 62 63 63 62 61 61 61 59 56 57 57 58 60 60 60 60 60 60 58 57 55
18 17 20 28 38 40 38 38 38 40 45 45 50 58 61 61 60 59 59 59 59 57 54 55 56 56 55 52 57 57 55 54 57 57 59 57 59 59 58 60 60 59 58 58 57 56 55 55 48
18 17 21 31 38 35 39 40 37 39 36 42 45 57 58 59 59 58 57 56 53 49 49 53 56 56 54 54 54 52 52 55 58 60 60 60 59 59 59 59 58 58 56 52 51 51 50 52 51
16 16 23 34 36 36 34 34 36 40 38 44 48 57 58 57 57 56 53 48 43 45 49 52 55 56 56 54 53 55 55 57 57 59 61 60 61 60 60 58 59 58 53 53 51 50 53 51 50
17 15 28 31 35 32 36 33 34 40 44 47 54 56 56 54 51 52 46 41 40 43 49 53 56 55 56 57 57 57 58 58 59 59 60 61 61 61 59 59 57 54 53 52 51 50 49 48 46
17 15 26 22 33 27 30 33 32 38 46 50 54 52 51 49 46 46 42 39 41 43 49 55 56 57 57 57 59 58 59 58 60 60 62 62 62 61 59 56 54 52 51 49 48 48 46 45 44
14 12 13 15 28 29 24 25 23 40 45 48 48 49 49 47 44 41 38 37 39 44 50 55 57 58 58 56 55 54 54 54 55 58 60 60 60 59 58 55 52 49 48 48 46 45 44 42 41
12 13 16 17 26 19 20 14 24 44 42 44 46 47 47 46 44 45 46 43 41 44 51 55 58 58 57 57 56 56 56 56 58 57 58 58 58 56 53 50 49 47 45 44 42 42 40 39 39
12 9 11 14 18 17 16 14 27 45 42 43 46 46 47 46 46 48 50 50 48 48 53 57 59 58 58 57 58 58 57 57 54 52 51 51 50 48 47 46 45 43 42 42 41 41 40 38 36
9 7 9 9 17 15 15 23 30 43 44 43 44 45 46 46 47 50 52 53 52 54 56 58 59 58 58 58 58 57 54 48 48 46 46 45 45 45 43 43 44 42 42 41 41 39 36 35 32
14 10 8 12 19 18 16 25 29 41 44 44 45 45 46 47 50 53 55 55 56 57 58 59 58 58 59 58 54 50 46 45 44 42 44 43 43 44 44 42 43 42 41 40 38 35 31 29 31
15 14 16 20 19 22 25 28 32 38 42 44 45 46 47 49 51 53 55 56 56 57 58 58 57 57 57 55 49 46 45 42 41 42 44 43 44 44 42 44 42 41 36 36 35 34 31 28 29
20 18 19 16 21 24 24 25 31 37 41 43 44 45 47 48 50 52 54 55 56 57 57 55 56 56 53 48 47 46 45 42 41 42 41 43 44 44 44 42 39 37 35 31 33 33 32 29 28
18 23 21 19 17 13 23 10 25 34 37 40 43 45 46 46 47 46 44 45 48 50 50 49 51 49 49 47 44 41 39 39 42 42 42 42 44 43 40 38 37 35 35 34 32 29 34 31 28
24 25 22 21 19 19 20 15 22 33 34 38 42 44 46 46 46 39 39 41 42 45 46 45 44 44 46 46 44 43 42 43 42 42 41 41 40 40 37 36 36 35 34 33 35 34 33 32 30
29 27 27 26 23 16 18 20 8 24 29 37 42 44 45 45 42 39 40 41 43 46 47 46 44 44 45 45 45 44 43 39 35 33 32 31 31 31 33 34 35 35 36 35 35 35 34 33 32
28 23 14 15 15 11 27 23 14 29 31 36 40 42 43 40 40 40 40 41 42 44 45 45 43 43 44 43 41 38 36 34 32 32 30 29 27 28 30 32 34 35 35 37 36 34 33 33 32
24 21 14 6 11 15 27 20 25 33 34 36 40 41 39 39 40 40 41 42 43 44 44 43 42 41 39 38 35 35 33 32 32 31 32 31 30 31 32 35 36 37 37 37 36 35 34 34 34
27 22 28 25 28 23 17 24 29 33 34 35 39 38 38 39 41 41 42 43 44 44 44 44 41 37 35 34 34 33 34 33 33 33 34 34 36 34 34 36 37 37 36 36 35 34 33 32 33
28 28 22 23 17 9 8 14 12 30 33 34 37 36 38 40 41 42 43 45 44 44 43 41 36 32 31 32 33 31 32 32 33 34 33 32 32 31 32 32 32 32 33 34 33 32 30 31 31
27 25 25 23 22 7 3 3 27 28 32 33 35 37 38 41 41 42 41 42 41 39 37 34 31 31 33 31 32 33 31 28 27 27 26 26 26 24 24 24 27 29 31 32 33 33 31 31 29
26 24 24 16 17 25 22 9 26 33 34 36 36 38 40 41 39 39 38 35 34 34 33 34 35 33 34 33 26 24 25 25 24 23 24 25 24 25 26 28 30 31 32 34 34 33 34 31 27

GFSSGP_sfc_30mbdewp_051.txt.gz
Dewpoint
46 37 25 19 18 13 13 17 23 45 46 48 48 48 48 54 54 50 59 60 62 64 65 65 69 69 69 70 70 70 69 68 68 68 68 68 68 67 67 66 65 65 64 62 61 61 61 59 57
29 20 13 18 13 10 14 19 24 48 49 50 51 51 51 54 59 61 61 62 62 64 64 64 69 69 70 69 69 69 68 68 68 67 67 66 66 66 67 65 65 63 61 61 60 59 57 57 58
25 17 14 10 10 4 11 20 43 47 48 47 46 49 51 54 59 61 62 63 62 63 65 67 69 69 69 69 69 69 68 68 68 67 66 66 67 67 66 65 64 61 60 59 58 56 57 58 58
17 7 14 14 7 5 14 43 44 45 45 46 47 49 52 61 60 63 64 63 63 64 66 68 69 69 69 69 69 68 68 68 68 68 66 65 64 65 65 63 62 60 59 57 56 56 58 58 59
15 12 9 11 11 9 21 45 43 43 41 41 41 47 53 59 62 65 63 62 63 65 66 67 69 69 69 69 68 68 67 67 68 67 65 63 63 63 63 62 61 59 59 58 57 57 58 59 59
8 11 11 12 12 14 25 40 45 40 40 41 39 45 50 55 60 60 64 64 66 64 65 66 68 68 68 68 68 67 67 67 67 66 64 63 63 62 62 61 60 60 59 58 58 58 59 59 59
10 10 12 13 17 26 28 45 43 40 46 47 39 43 55 57 60 62 62 62 62 64 64 65 66 67 68 67 66 66 66 66 65 64 64 63 63 63 62 61 60 60 59 59 59 59 60 59 58
9 14 12 17 24 27 38 42 41 43 40 44 46 43 51 57 63 59 62 62 62 63 62 63 64 64 64 65 66 66 65 64 63 62 61 61 60 60 60 60 60 60 60 60 60 60 59 58 55
16 14 13 33 34 33 42 41 50 44 39 44 45 47 48 61 63 62 61 61 60 60 58 56 56 57 58 60 64 64 63 62 61 60 60 58 55 57 57 58 60 60 60 60 59 59 57 56 57
13 13 21 29 41 47 42 37 37 37 39 41 48 57 60 60 60 59 59 59 59 57 55 55 56 56 53 50 56 55 54 52 55 56 57 56 57 58 58 58 59 59 58 58 57 56 55 55 48
12 15 23 24 39 37 33 37 38 36 32 36 41 56 57 56 57 57 57 56 56 51 49 53 54 54 50 53 52 51 51 55 57 59 58 59 57 58 57 56 59 59 58 53 53 52 50 51 51
16 17 16 31 39 30 32 34 33 35 44 33 51 52 55 53 54 55 54 53 45 46 50 52 54 54 52 51 48 50 50 54 55 57 60 59 58 60 59 55 55 56 53 52 50 49 53 51 50
15 20 31 40 27 31 32 30 41 35 35 38 49 50 52 51 52 52 50 43 41 43 48 52 53 54 56 54 56 56 56 58 60 60 61 62 62 60 60 60 57 55 53 51 51 50 49 49 48
19 26 30 28 30 31 32 32 33 35 37 45 48 48 48 47 47 45 39 38 40 45 51 53 54 55 56 58 59 59 58 58 58 59 61 61 62 61 59 57 55 53 52 51 50 49 48 47 47
16 26 25 22 30 29 29 26 27 36 39 42 43 43 43 41 41 39 38 39 41 46 52 54 55 57 57 57 56 56 55 55 56 57 59 60 61 60 59 56 53 51 49 49 47 47 46 44 43
20 18 17 18 23 28 25 19 26 37 38 38 39 40 40 39 36 37 37 37 41 46 52 55 56 58 58 57 57 57 57 57 58 57 57 57 57 56 53 51 50 49 46 44 45 43 42 41 40
12 14 15 16 21 20 22 16 27 35 37 38 39 39 40 40 38 42 44 43 41 45 52 56 59 60 58 57 56 58 57 57 57 54 52 53 52 50 48 47 46 44 42 43 43 41 39 37 35
9 10 12 14 19 16 12 17 31 35 33 38 40 41 41 42 43 47 48 49 47 47 52 57 60 59 58 59 57 57 56 55 53 49 48 47 46 45 43 44 45 43 42 42 41 40 36 33 31
9 6 6 7 9 9 10 19 24 33 35 38 40 42 43 44 47 50 51 52 51 53 56 60 59 58 59 58 55 53 51 50 46 44 44 44 44 44 45 42 43 43 39 39 38 35 32 30 29
13 12 9 11 12 16 15 19 25 36 37 38 39 41 43 46 49 52 54 55 55 56 57 59 58 58 57 52 52 51 48 44 41 43 45 45 45 45 41 45 41 40 38 34 33 34 32 30 28
13 14 16 14 16 15 18 20 27 32 35 39 40 41 44 47 49 52 53 55 56 57 57 57 55 55 52 48 47 46 43 43 41 43 43 45 44 44 43 41 39 37 34 31 33 32 31 29 28
15 21 16 16 17 12 18 11 24 30 35 38 41 42 44 46 49 50 51 53 54 53 51 49 49 49 47 45 42 42 38 39 43 43 43 43 44 41 39 37 35 35 35 34 33 31 34 31 28
24 22 18 15 13 20 17 9 23 30 31 35 40 42 44 45 46 44 45 46 47 48 48 48 47 45 46 45 43 43 42 43 43 42 42 40 40 38 37 34 33 35 34 33 34 34 33 31 29
26 23 21 19 16 14 12 14 15 25 25 32 37 40 43 45 43 39 39 41 44 46 46 45 44 44 45 45 46 45 44 42 39 36 36 34 31 30 30 31 33 33 33 33 33 37 36 33 33
22 20 17 17 12 12 20 18 11 26 28 30 37 40 44 45 40 37 39 40 44 45 46 45 43 43 45 45 45 42 40 37 36 35 33 31 28 28 29 31 32 31 31 32 35 36 36 33 34
21 19 15 10 7 9 22 9 18 31 31 34 38 41 43 42 39 38 39 40 42 44 45 44 43 43 44 42 39 38 36 35 35 33 32 32 31 32 33 32 32 31 32 35 33 37 37 35 36
22 18 23 19 23 19 9 18 30 31 31 34 38 40 42 38 39 39 40 42 43 44 45 44 43 42 40 38 36 36 35 35 34 33 34 33 33 30 28 30 30 29 29 29 31 35 34 34 33
24 26 19 18 17 10 5 7 14 26 28 32 36 39 38 38 39 40 41 43 44 45 45 46 43 39 35 34 35 33 34 34 33 33 30 29 27 26 24 24 24 24 26 26 27 32 32 33 34
24 21 20 21 20 14 3 5 19 20 27 29 33 37 37 38 39 41 42 44 45 45 45 42 37 34 33 33 34 36 33 29 27 27 25 24 25 24 24 24 25 26 27 26 27 32 31 29 30
24 20 21 19 16 18 20 12 21 24 27 29 31 35 36 38 40 41 43 43 43 42 40 37 35 35 34 35 37 27 25 25 24 22 22 24 24 25 26 26 26 27 26 26 28 29 29 29 29

GFSSGP_sfc_30mbdewp_054.txt.gz
Dewpoint
45 44 36 24 16 17 13 14 17 30 40 48 47 50 54 56 55 51 64 63 64 63 66 67 69 70 70 70 70 70 69 69 69 69 69 68 68 67 66 66 65 63 62 61 60 58 56 56 57
35 33 23 11 13 10 10 21 38 51 54 53 54 49 52 56 59 61 62 63 64 63 62 66 69 70 70 70 69 69 69 68 68 67 67 66 67 67 65 65 64 62 60 58 56 56 57 58 59
34 23 12 8 8 12 9 45 39 52 51 53 49 51 53 57 60 61 63 65 64 62 64 68 69 69 69 69 69 69 69 68 68 67 67 67 67 66 64 64 62 60 58 56 56 57 58 59 59
20 16 9 11 13 10 8 47 47 49 48 48 47 48 52 58 61 63 64 66 65 66 67 68 68 68 69 69 69 69 68 68 68 67 66 64 65 64 63 62 61 59 57 56 57 58 59 59 59
16 13 3 8 12 12 15 43 46 48 41 42 47 48 49 60 63 65 65 66 65 67 67 68 67 67 69 69 68 67 68 68 67 66 64 64 63 63 62 62 61 60 58 58 58 59 59 59 58
12 9 9 12 13 16 15 48 47 42 40 39 41 47 50 57 61 64 66 66 66 66 67 67 67 68 68 68 67 67 68 67 66 65 64 63 63 62 62 61 61 60 59 59 59 59 59 58 57
10 9 9 13 14 21 34 47 47 46 42 44 42 46 50 55 58 59 65 64 65 67 66 66 67 68 67 67 66 66 67 65 65 64 63 63 62 62 61 61 60 60 60 59 59 59 59 57 54
8 9 11 14 13 40 48 48 50 44 44 44 48 48 49 55 61 62 62 61 65 66 65 65 66 67 66 66 66 66 65 63 62 61 61 60 60 60 60 60 60 60 60 60 59 59 58 57 55
12 10 12 15 29 41 44 48 53 49 45 43 48 47 53 59 58 57 58 60 61 63 64 64 64 65 65 65 65 64 63 62 60 59 60 59 57 58 59 59 59 59 58 58 58 57 55 56 57
12 12 13 24 38 42 45 45 48 46 47 48 54 53 56 60 54 52 51 59 59 58 58 59 60 61 61 58 63 61 59 58 58 57 57 59 60 59 58 58 58 59 59 58 58 56 54 55 54
11 12 16 41 41 43 44 45 48 35 38 33 51 56 58 59 56 53 53 59 58 58 56 57 58 55 54 55 58 56 56 58 59 60 60 60 60 60 59 61 61 60 59 60 58 56 56 54 54
11 13 25 40 42 39 41 46 37 36 36 42 54 54 54 56 57 59 56 57 54 51 53 55 56 56 55 54 55 52 55 58 60 61 61 61 61 61 61 61 61 59 58 55 55 54 54 53 51
13 17 35 37 35 34 32 36 35 39 41 48 52 50 51 53 54 58 59 48 47 50 52 55 55 56 54 56 59 61 62 61 62 62 62 63 62 60 60 60 59 58 56 54 53 52 51 50 49
19 21 34 34 36 37 35 38 39 40 43 43 44 48 49 52 50 57 45 42 44 48 52 54 56 58 58 61 61 59 58 57 58 60 61 62 62 61 60 59 58 55 53 53 50 51 48 48 48
23 26 27 26 34 27 34 35 34 38 42 41 41 43 42 43 52 41 39 40 45 51 54 54 56 58 60 58 58 57 57 57 56 59 60 60 60 59 57 54 52 51 50 47 48 47 47 46 44
21 25 20 17 22 29 31 28 32 37 39 39 40 40 41 41 38 38 39 41 46 52 54 54 56 60 59 58 57 57 57 57 57 56 57 57 56 54 53 52 50 49 47 47 46 45 43 41 40
20 22 19 19 18 25 27 24 31 35 36 37 38 38 37 37 37 38 39 41 45 53 56 59 60 60 58 58 58 58 58 59 56 55 54 53 51 50 49 49 48 48 46 46 44 43 42 38 37
15 16 16 15 15 21 21 20 27 34 36 37 37 38 38 36 38 42 43 43 43 52 57 61 60 58 58 58 58 58 58 56 54 52 50 50 48 47 47 48 47 46 44 44 43 42 39 37 36
16 15 16 17 15 14 12 18 24 27 32 38 37 38 39 40 44 48 48 49 48 53 60 60 59 58 59 58 56 54 52 52 49 47 47 46 46 46 47 46 45 44 42 40 39 38 37 36 36
11 13 7 8 7 9 10 16 18 25 27 35 38 39 41 42 47 49 52 52 52 58 60 60 59 58 58 58 57 54 52 49 46 47 46 47 46 45 45 45 43 42 40 38 39 38 36 34 35
17 22 21 14 10 11 15 12 21 26 29 33 36 40 43 45 48 51 53 55 57 59 60 58 58 58 58 54 52 52 50 46 44 46 46 46 45 44 42 42 41 39 38 37 37 37 36 35 34
23 25 22 19 20 10 22 18 28 25 30 33 37 38 41 45 48 51 54 56 57 57 58 58 58 57 53 47 47 45 43 43 45 46 47 46 45 42 41 38 37 38 38 38 38 35 37 35 34
23 20 26 14 11 21 21 23 27 27 27 33 36 39 42 45 47 50 55 55 57 57 57 54 50 49 47 46 46 45 45 46 46 45 43 41 42 42 40 37 37 37 38 38 38 39 38 37 34
27 27 22 18 18 21 23 24 23 25 27 32 36 40 43 45 47 47 49 50 50 51 51 50 47 46 46 46 46 45 46 43 41 40 38 38 36 34 34 34 37 37 37 37 38 37 38 39 38
23 19 18 27 26 15 13 20 24 31 35 36 36 40 43 44 44 43 44 44 47 47 47 46 45 45 46 47 47 46 42 39 37 37 37 35 34 34 35 37 36 36 35 36 37 38 38 39 38
30 15 25 19 20 19 25 14 22 28 29 34 37 39 43 45 42 40 41 43 46 47 47 46 44 45 46 46 43 42 38 39 38 36 35 36 35 36 36 35 35 35 35 35 35 36 37 39 38
22 19 24 17 17 19 16 10 30 29 29 32 37 40 43 44 41 39 40 43 45 46 47 46 45 45 45 42 41 38 38 37 35 36 36 36 35 30 30 29 30 30 30 31 33 33 35 36 36
21 19 20 17 14 15 9 9 21 27 27 31 36 39 43 43 40 39 40 42 44 45 46 47 46 42 39 38 38 37 35 35 37 34 33 31 29 29 28 28 29 29 30 31 31 31 34 34 35
23 21 17 14 20 18 17 14 26 23 27 29 33 38 42 40 40 40 40 43 44 46 47 47 44 38 36 37 35 36 38 35 29 29 28 26 27 27 28 28 29 29 29 30 31 33 31 32 32
21 21 19 22 18 20 21 19 20 22 27 28 29 36 39 39 39 40 42 44 45 46 46 45 40 37 36 35 37 38 38 28 27 26 25 26 26 28 28 29 29 30 31 35 34 33 33 32 31

GFSSGP_sfc_30mbdewp_060.txt.gz
Dewpoint
51 48 39 32 20 20 17 17 20 25 46 55 55 55 55 58 54 47 64 65 68 68 70 70 70 70 70 69 69 69 69 69 68 68 68 67 66 64 63 63 61 58 56 57 57 57 56 56 57
45 42 37 26 15 10 10 22 32 49 50 54 54 57 55 56 61 62 62 65 68 68 69 69 70 70 69 69 69 68 68 68 68 68 67 66 64 63 62 61 59 58 58 57 57 56 56 56 57
38 34 26 21 9 5 9 45 47 49 50 52 52 56 57 58 62 63 63 64 67 68 69 69 69 69 69 69 68 68 68 68 68 68 66 64 63 61 60 60 59 59 58 57 56 56 56 55 55
27 21 18 10 8 8 30 35 51 50 50 50 50 51 57 63 62 64 64 65 66 68 69 69 69 69 69 68 69 68 68 68 68 67 65 63 62 60 60 60 59 59 58 57 57 56 55 54 54
23 19 14 6 6 38 48 49 48 47 49 48 49 50 56 63 65 65 63 65 66 67 67 67 68 69 68 68 68 68 67 67 67 66 65 63 60 60 60 61 61 60 58 58 58 57 55 53 51
24 15 10 8 13 47 47 49 47 46 46 47 48 51 55 64 64 65 66 66 65 64 64 64 64 64 65 68 67 67 65 65 65 65 64 63 61 61 61 61 61 60 60 58 57 56 55 54 54
22 18 12 9 9 42 47 49 48 47 45 47 51 51 56 62 65 65 65 65 65 64 64 65 64 63 65 66 66 65 64 64 64 64 62 61 61 60 60 60 59 59 58 57 56 56 56 55 54
19 15 12 9 11 35 47 48 51 47 45 50 53 50 52 59 64 64 64 64 64 64 64 64 63 66 66 66 64 63 63 62 61 60 60 59 59 59 59 59 59 59 58 57 56 56 55 54 55
18 15 13 12 20 40 47 46 49 51 48 49 53 52 56 61 62 62 62 62 62 63 63 62 65 65 65 65 63 62 61 60 59 60 59 58 58 59 59 58 59 59 58 57 57 57 56 56 53
14 12 12 31 42 41 43 46 47 47 45 48 51 58 59 59 59 58 59 59 60 60 61 64 64 64 64 63 62 61 60 59 59 58 58 58 58 59 60 59 59 59 59 59 59 59 56 53 52
15 12 26 40 42 43 42 45 48 45 42 46 47 57 59 57 57 56 57 58 58 58 62 63 63 63 62 61 60 59 58 57 57 57 57 58 60 60 59 60 60 60 60 58 53 51 51 49 49
12 20 32 43 44 44 43 46 45 45 44 47 47 58 58 57 57 55 56 55 56 58 60 62 63 61 59 59 57 56 56 58 59 61 61 61 60 59 59 59 56 54 53 51 49 48 48 46 45
18 38 40 41 40 41 43 37 39 44 53 51 56 56 55 54 56 55 56 57 56 59 59 60 61 56 58 58 57 59 61 62 62 62 62 61 60 60 56 55 53 51 50 48 46 45 43 42 40
31 35 36 37 39 38 36 37 40 47 49 51 52 55 54 54 56 58 59 59 58 58 55 56 56 56 59 59 59 60 60 60 61 61 61 60 60 57 54 52 50 48 48 46 44 42 40 38 37
34 34 33 36 34 32 37 32 36 43 49 52 53 55 53 53 56 55 58 58 54 54 53 54 56 60 58 57 57 57 58 59 59 60 59 57 55 53 51 49 47 47 47 44 42 40 38 37 36
23 26 27 33 31 32 33 30 35 43 48 51 54 55 53 54 54 56 57 57 53 54 53 56 60 58 56 56 56 55 57 57 57 57 55 54 52 49 47 46 47 49 46 43 41 39 37 36 35
22 20 25 30 31 29 30 28 40 47 48 48 53 53 51 49 52 52 57 52 52 52 53 57 58 57 56 56 56 55 55 55 55 54 52 51 50 48 47 46 47 46 44 43 41 39 37 35 34
18 20 22 24 30 31 29 28 38 43 43 44 49 53 49 49 50 52 54 51 52 53 56 58 58 57 57 56 56 56 54 54 53 50 49 49 50 49 48 47 44 43 40 41 38 36 37 36 34
24 23 22 24 26 31 28 26 33 38 40 40 47 50 52 50 49 53 53 51 53 56 57 58 57 56 56 55 55 54 52 53 50 50 49 48 48 48 46 45 42 40 38 38 37 37 35 34 35
27 26 24 23 23 29 25 24 32 38 38 39 39 38 40 43 43 45 48 53 57 57 58 57 56 56 56 55 55 55 53 52 49 49 49 46 47 46 44 42 40 38 38 37 36 36 35 35 35
27 27 23 21 22 25 20 24 28 36 37 37 38 39 39 42 45 47 51 57 58 58 57 56 56 56 56 55 55 53 50 49 48 47 46 46 45 44 42 40 38 37 37 36 36 36 35 33 35
25 26 25 21 18 11 22 17 25 28 36 37 36 41 42 45 48 54 56 58 58 58 57 57 56 56 56 56 56 51 48 46 46 46 46 46 44 42 40 39 38 38 39 37 38 38 37 37 35
25 27 25 24 24 23 23 18 19 27 30 34 37 40 43 47 49 55 57 58 58 58 58 57 57 57 57 57 56 51 47 46 46 47 46 46 44 43 41 39 38 39 38 37 36 37 36 37 35
26 25 30 29 27 19 22 21 19 23 25 30 36 40 44 47 51 55 57 58 58 58 58 58 57 57 57 56 52 49 46 46 46 46 44 41 38 38 38 37 37 36 35 35 35 35 35 36 38
27 25 21 19 19 19 25 24 23 25 26 28 33 40 44 49 53 55 56 57 57 57 57 57 56 52 50 48 48 46 44 43 42 40 37 35 36 37 36 35 32 32 32 31 31 31 32 33 35
29 25 20 16 17 17 27 23 22 30 31 35 38 43 47 51 54 55 55 55 55 55 55 53 49 47 45 42 41 39 39 39 39 38 38 38 37 34 34 31 30 29 29 30 31 32 32 34 37
26 26 32 28 27 22 20 24 30 31 30 33 37 45 48 50 53 53 53 52 51 50 49 48 46 47 43 40 39 38 38 37 37 39 39 40 38 33 30 29 28 29 29 32 33 33 34 33 34
25 30 25 28 15 11 16 19 23 29 32 37 37 42 46 46 49 50 50 49 47 46 46 46 46 45 41 39 38 37 36 38 38 39 40 37 31 29 28 28 28 29 31 33 33 33 33 32 32
24 23 24 24 21 16 16 17 24 29 34 35 37 42 45 44 45 47 48 47 47 47 46 45 45 43 39 38 37 35 37 39 38 35 33 30 28 28 28 29 29 29 32 34 33 32 32 31 31
29 26 24 21 18 24 21 18 25 30 31 37 38 43 45 43 43 44 46 47 47 47 46 44 42 39 37 36 36 38 38 39 35 30 29 29 28 29 29 29 29 30 33 33 31 30 31 30 29

GFSSGP_sfc_30mbdewp_063.txt.gz
Dewpoint
51 45 39 30 20 21 16 16 20 18 36 54 56 55 54 58 52 45 63 63 67 69 69 70 70 69 69 69 69 69 68 67 67 67 66 65 63 63 61 60 60 58 57 56 55 54 54 57 61
44 42 32 21 14 9 7 16 38 45 50 56 55 55 56 55 61 61 62 66 67 68 69 69 70 69 68 69 69 68 68 67 67 66 64 63 63 61 59 59 60 59 57 55 54 53 56 58 61
37 32 27 22 10 6 7 32 47 49 50 52 53 56 56 58 61 62 65 67 67 68 68 69 69 69 69 68 69 69 68 68 67 66 63 63 61 59 58 60 61 59 56 54 54 54 56 58 60
26 20 16 12 9 9 34 44 47 49 48 50 52 52 58 64 62 63 66 67 67 68 68 68 68 69 68 69 68 68 68 68 67 65 64 62 60 59 59 61 60 58 56 55 55 55 56 57 57
23 18 14 7 6 27 48 48 47 47 49 48 50 53 56 63 64 62 65 67 67 68 68 67 67 68 68 68 68 68 68 67 66 65 64 62 60 59 60 62 61 60 58 57 56 57 58 57 57
24 15 10 9 9 45 47 49 48 46 47 47 50 52 56 64 62 63 66 66 65 65 65 65 64 64 64 66 67 67 67 66 66 65 63 62 62 61 61 61 61 60 59 57 57 56 57 59 56
21 18 13 10 9 25 46 49 46 46 45 48 52 50 56 62 64 65 65 64 65 64 64 64 65 65 64 66 65 65 65 65 65 64 63 62 62 61 61 60 60 59 58 57 57 56 57 58 57
21 17 13 12 9 15 46 48 50 48 45 51 53 49 53 61 64 64 64 63 63 64 64 64 64 64 65 65 64 63 63 63 63 62 60 61 60 60 60 60 59 59 59 58 58 57 57 57 58
17 16 14 13 16 27 47 46 51 51 48 50 54 53 59 62 63 62 62 61 61 63 63 63 63 63 64 64 63 62 62 62 60 60 59 59 59 59 58 60 59 59 59 59 59 58 55 53 53
16 13 12 18 36 40 44 46 47 46 45 49 55 59 61 61 61 60 59 59 60 61 58 59 61 64 64 63 62 61 61 59 59 59 58 58 58 59 59 59 59 60 59 59 56 52 50 49 47
17 15 14 38 42 43 42 44 48 45 42 46 53 55 58 58 59 59 59 59 57 59 60 61 61 64 63 62 61 59 58 58 58 58 57 58 59 60 60 60 60 59 54 51 50 48 47 44 43
15 14 23 36 44 42 41 46 45 44 45 46 57 57 56 56 57 57 57 58 58 59 58 60 59 63 61 60 58 57 56 57 57 57 58 61 60 59 58 55 54 53 50 48 47 45 43 41 39
15 36 40 43 43 43 43 40 40 45 53 53 58 56 56 55 55 56 56 56 57 57 59 61 62 61 60 58 56 57 58 59 61 61 61 60 58 57 55 53 51 49 48 45 43 41 39 37 36
34 36 37 39 39 41 36 39 40 48 53 56 56 56 56 54 54 54 55 55 54 57 59 59 61 57 59 57 58 59 61 61 61 61 60 60 58 55 53 51 49 48 45 43 40 38 37 36 35
35 33 36 37 37 32 36 35 39 47 49 53 53 52 55 53 53 49 53 56 57 57 57 57 57 58 58 58 59 59 60 61 60 59 59 58 55 53 50 48 47 45 44 42 39 38 37 35 34
27 31 30 32 32 33 32 31 39 45 51 53 53 52 53 52 53 52 56 57 58 56 55 55 58 58 57 57 57 58 59 59 59 58 56 54 52 49 47 47 48 46 43 41 39 37 35 34 33
22 20 26 30 32 30 30 32 40 44 51 52 54 53 52 54 55 55 57 57 57 55 54 57 58 57 56 56 56 56 56 56 56 54 53 51 48 47 47 48 46 44 43 41 38 37 35 33 33
22 21 23 24 26 31 29 28 41 44 49 50 53 53 52 52 53 54 55 56 54 54 54 59 57 56 56 55 55 54 54 54 52 51 50 49 49 48 46 46 45 42 41 39 36 35 36 35 33
26 25 23 24 25 28 29 28 34 44 45 48 51 52 50 50 49 52 55 55 52 53 56 58 56 56 55 54 53 52 51 52 49 49 49 49 49 48 45 43 41 39 38 37 35 36 34 34 35
26 26 24 26 25 25 27 27 27 41 42 46 49 51 50 48 48 50 53 53 52 54 56 57 56 56 55 54 55 54 52 51 49 49 48 48 48 46 44 41 39 38 37 36 36 36 35 35 35
26 26 25 25 22 26 23 24 27 38 40 43 48 49 51 49 48 49 52 52 54 54 56 57 56 56 55 55 54 52 51 49 48 48 47 47 46 44 42 41 39 38 37 36 36 36 35 34 35
24 27 27 25 19 18 20 16 27 35 38 39 43 44 45 47 46 46 48 53 54 55 57 57 56 56 56 55 54 52 50 47 47 47 46 46 46 44 42 40 39 38 39 37 38 38 37 36 34
25 28 26 25 23 22 23 18 20 27 36 37 37 40 39 43 43 44 48 54 56 56 56 56 57 56 56 56 55 51 49 47 47 47 46 46 44 42 40 39 39 39 37 36 36 36 36 37 35
28 27 28 29 26 19 22 20 20 24 28 35 37 38 40 45 47 50 51 56 57 57 57 56 57 56 56 56 55 52 49 46 46 46 45 43 41 40 38 37 36 36 35 33 33 33 33 34 36
27 24 18 17 18 17 25 23 23 24 25 28 35 37 41 45 50 55 55 56 57 57 57 57 56 56 56 56 54 53 49 46 46 45 42 37 37 37 36 37 38 32 30 30 30 30 31 31 32
28 24 18 15 15 16 26 22 21 28 32 32 31 38 43 46 52 55 56 57 57 57 57 57 56 54 54 53 51 47 45 44 43 41 38 38 38 36 39 39 32 29 29 30 31 32 33 35 35
27 24 30 25 26 23 21 22 24 29 33 35 41 42 45 49 52 54 56 56 57 56 56 55 53 50 46 46 44 42 41 40 38 40 41 41 40 41 38 32 29 29 30 32 33 32 32 32 32
25 30 23 27 17 13 14 18 18 23 28 35 36 43 46 51 53 54 55 55 55 55 54 51 49 45 42 41 40 39 39 39 40 43 43 43 41 36 31 30 30 30 31 33 33 33 33 31 31
27 24 25 25 21 15 14 16 23 26 29 33 36 42 46 49 52 53 53 53 52 51 50 49 46 43 40 39 38 37 39 40 40 39 39 39 35 30 30 30 29 29 31 33 33 32 32 30 30
26 23 24 20 18 23 20 17 22 28 29 33 33 39 46 47 50 51 52 50 48 48 47 47 46 42 40 39 37 39 40 39 40 42 41 32 29 29 29 29 29 29 31 32 32 30 30 30 29

GFSSGP_sfc_30mbdewp_066.txt.gz
Dewpoint
49 41 38 26 18 19 13 15 22 19 28 56 56 56 53 57 51 46 62 64 67 69 69 69 69 69 69 68 68 68 68 68 67 66 65 64 63 61 61 61 61 59 56 54 57 59 63 64 64
42 41 30 20 14 9 6 15 37 48 50 56 55 55 56 55 61 61 60 66 68 69 69 69 69 68 68 68 68 68 68 67 66 65 64 63 61 60 59 60 60 58 55 56 57 60 63 64 64
36 30 26 19 11 6 5 11 43 48 51 52 53 56 57 57 61 62 64 67 68 68 67 69 68 68 68 69 68 68 68 67 66 64 63 62 60 59 60 62 60 58 56 55 56 59 63 63 63
25 20 15 13 10 9 10 38 47 50 49 51 53 52 58 63 63 64 66 67 67 67 68 68 68 68 69 69 69 68 68 67 65 65 63 61 59 59 60 62 60 59 56 55 56 57 60 61 62
22 18 14 9 6 9 45 48 48 47 48 48 50 52 55 63 63 65 65 67 67 67 68 67 67 68 69 68 68 68 67 66 65 64 63 61 60 60 62 62 61 60 58 57 57 57 58 59 58
23 15 10 9 10 25 47 48 48 46 48 49 52 53 56 63 63 65 66 65 67 66 67 66 65 65 65 63 64 67 67 66 65 64 63 62 62 62 62 61 60 59 59 60 59 59 57 57 56
21 18 13 10 9 10 41 49 46 46 46 49 53 52 58 61 64 64 64 64 64 64 64 65 65 64 63 64 67 67 66 65 65 64 63 62 62 62 61 61 60 59 59 59 60 60 58 56 56
21 18 14 12 11 12 43 48 50 48 46 52 53 50 53 61 64 64 64 63 63 63 64 64 64 64 64 64 65 65 64 64 64 62 61 61 61 60 60 60 60 60 60 60 59 59 59 56 56
18 16 15 14 13 18 47 46 50 51 48 53 57 54 59 63 63 62 61 62 62 62 63 64 64 62 63 64 64 63 63 63 61 61 60 59 59 58 59 60 60 60 60 59 57 55 54 53 53
18 15 14 14 17 39 45 46 46 46 46 52 54 59 61 62 61 60 59 59 60 59 60 61 61 60 63 63 62 61 61 60 59 59 58 58 58 58 59 60 61 60 58 55 53 49 47 44 43
17 17 16 15 41 43 42 45 48 45 42 49 53 57 59 59 59 59 59 59 56 57 59 60 61 61 61 61 60 59 58 58 58 57 57 59 59 58 59 60 58 53 51 48 46 43 41 41 39
18 17 17 37 42 41 40 46 45 44 48 52 55 57 58 57 58 58 57 56 56 56 57 56 57 60 62 60 58 57 57 57 57 57 59 59 60 59 57 55 52 50 48 45 43 40 39 38 36
17 29 38 43 42 42 44 40 41 49 54 56 56 56 55 57 57 58 58 57 56 56 57 54 55 60 60 58 57 56 56 57 57 58 60 59 58 54 53 51 49 47 44 42 39 37 36 35 34
34 36 39 42 42 42 36 38 40 52 56 54 55 55 56 56 56 56 56 56 54 54 56 58 60 60 59 57 56 56 59 60 60 60 60 59 56 54 51 49 47 45 42 40 37 36 35 34 32
35 34 35 38 39 36 38 36 42 52 54 51 54 54 54 55 55 54 55 55 55 55 58 58 60 59 58 57 57 59 60 61 60 60 60 58 55 52 49 47 44 43 41 39 37 36 35 33 32
31 30 29 32 33 33 34 31 44 50 51 40 49 54 54 54 53 54 53 53 53 54 57 57 58 58 58 57 58 59 60 60 59 58 57 55 52 49 47 46 45 44 42 39 37 35 34 33 32
22 21 25 27 32 30 30 32 41 47 51 49 49 53 54 52 52 52 54 54 55 56 55 55 58 57 57 56 57 58 58 58 57 55 54 52 49 48 48 47 45 44 41 39 37 36 34 32 32
22 22 23 23 24 29 28 29 41 45 51 50 50 52 53 52 50 54 56 57 56 56 55 57 57 56 56 56 56 55 55 55 54 53 51 48 47 47 47 46 44 43 41 38 36 35 36 34 33
25 25 24 25 25 26 26 27 41 42 48 50 51 52 52 52 53 54 55 56 55 54 55 57 56 56 55 55 54 53 52 52 51 50 49 48 48 46 46 44 41 40 38 36 35 35 34 34 35
27 24 23 26 25 25 27 26 29 42 47 48 51 52 51 51 51 52 54 55 54 53 55 57 56 55 55 54 53 52 52 51 49 49 49 49 48 46 43 41 40 39 37 36 36 35 35 35 35
26 24 25 25 25 27 26 24 27 35 44 45 48 51 52 50 50 49 52 54 53 53 54 56 56 55 55 54 54 52 51 49 48 48 47 48 48 46 43 41 39 38 37 36 36 36 35 34 35
24 27 27 26 22 18 21 16 24 30 38 41 43 49 50 51 49 48 50 53 53 53 55 56 56 56 55 55 54 52 50 47 47 48 47 46 46 44 42 41 39 38 38 37 38 38 36 36 34
24 27 27 25 23 22 22 17 18 30 33 38 40 45 48 50 50 48 49 52 53 54 55 56 56 56 56 55 55 53 51 48 47 47 46 46 44 42 40 39 39 39 38 37 36 36 36 36 34
28 28 26 27 25 20 21 20 19 25 30 33 39 40 44 45 47 47 47 51 54 55 55 56 56 56 56 56 55 54 51 47 46 46 45 44 42 40 39 39 38 36 36 34 32 32 32 33 35
27 23 18 16 18 16 25 23 22 24 25 29 35 39 40 42 44 45 48 52 55 56 56 56 56 56 56 56 56 54 51 47 46 46 44 41 40 38 37 37 38 35 33 31 30 30 30 31 31
26 23 19 13 14 15 24 21 20 27 31 32 31 37 39 41 45 48 50 54 55 56 56 56 56 56 56 56 55 54 51 47 46 45 41 40 38 38 39 42 40 34 30 30 31 30 31 33 34
28 23 26 24 25 24 21 21 19 24 31 35 39 36 38 42 46 50 53 54 55 56 56 56 56 56 55 55 54 51 49 47 44 42 40 40 39 40 43 42 39 30 29 31 31 31 31 33 32
25 31 23 25 16 15 15 17 15 17 23 33 39 40 41 44 46 51 54 55 56 56 56 57 56 54 52 51 50 48 44 42 41 42 42 41 43 42 43 39 32 30 30 32 32 32 32 32 32
26 25 25 24 21 16 15 14 21 22 26 30 34 39 45 48 50 52 54 55 56 56 56 55 53 51 49 46 45 42 41 41 43 43 43 42 42 43 38 33 30 30 30 32 33 33 33 32 30
27 25 25 21 19 23 21 19 22 22 26 31 33 35 44 48 51 53 54 54 54 54 53 52 50 46 42 40 40 40 40 40 40 40 41 43 41 37 32 30 30 30 31 32 33 32 31 31 29

GFSSGP_sfc_30mbdewp_069.txt.gz
Dewpoint
50 39 37 26 17 19 12 14 23 20 25 54 56 54 51 54 51 47 63 63 67 67 66 67 69 69 68 68 68 68 69 68 67 66 66 65 63 62 62 61 60 59 58 60 63 64 62 64 64
42 39 30 22 13 8 7 15 27 42 47 56 55 56 56 56 60 60 60 65 67 67 65 66 68 68 68 68 68 68 68 67 66 65 65 63 62 62 62 61 59 60 60 61 64 65 64 63 66
33 27 27 18 13 7 5 10 34 43 50 53 53 56 56 57 61 60 64 66 68 67 66 66 68 68 69 68 68 68 67 67 66 65 63 62 62 62 61 60 60 60 59 62 63 63 64 65 65
25 21 17 15 11 11 9 20 48 49 49 52 54 52 59 63 63 63 65 67 68 67 66 67 68 68 68 68 68 68 67 66 65 64 62 62 62 61 61 60 59 59 58 60 63 63 64 65 64
22 20 16 12 10 8 23 44 48 47 49 50 50 52 56 62 65 65 66 67 67 67 66 67 67 68 68 69 68 67 66 66 65 63 62 62 62 62 62 61 60 60 59 59 60 61 62 62 61
24 17 12 10 11 12 39 48 48 47 48 50 52 53 56 63 64 65 66 66 67 67 67 66 66 66 68 67 67 67 66 65 64 63 62 63 63 63 62 62 61 61 61 60 59 59 59 59 58
22 19 15 12 11 12 32 49 46 46 46 49 53 52 58 61 64 65 65 66 66 66 65 65 64 64 64 67 67 66 66 65 64 63 63 63 63 62 61 61 61 61 61 61 59 60 60 59 58
22 19 15 14 13 14 35 48 50 48 47 52 53 49 53 61 63 63 63 63 64 64 65 64 64 64 63 61 66 65 65 64 62 62 61 61 60 60 60 60 61 61 61 61 60 59 58 58 58
19 18 16 15 14 17 46 46 50 51 48 54 56 54 58 63 63 62 62 62 62 63 63 63 61 61 60 60 62 64 63 62 61 60 60 59 58 57 57 60 61 61 59 58 56 54 53 53 51
20 18 15 17 16 32 44 47 46 47 47 52 54 58 61 62 61 60 60 59 59 60 61 61 60 60 60 60 63 63 61 59 60 58 58 58 58 58 58 60 61 58 56 53 51 49 46 43 41
19 18 18 16 21 43 42 45 47 45 43 48 51 58 60 60 60 60 59 58 58 59 59 59 59 60 61 62 61 60 59 58 59 58 57 59 59 60 60 61 56 52 50 44 44 43 40 40 38
20 18 18 25 43 41 39 46 45 44 47 52 54 57 58 58 59 59 57 56 57 58 57 58 58 60 62 61 59 58 58 57 57 57 60 61 60 61 59 56 54 50 47 45 43 42 41 39 38
19 26 39 38 42 42 43 42 43 50 54 54 56 58 57 57 58 57 56 56 56 55 56 58 60 59 61 59 58 57 57 57 58 59 61 62 60 57 55 53 50 47 44 42 41 39 37 37 36
32 37 40 42 42 42 36 40 40 50 53 54 55 55 55 56 57 56 55 55 53 54 53 55 57 58 60 58 57 56 57 58 58 60 61 60 57 55 53 51 48 45 42 40 38 37 34 34 34
36 34 35 38 39 37 38 37 42 51 53 53 54 54 56 56 57 56 56 55 55 53 50 52 55 60 60 57 56 57 58 60 60 60 61 59 56 54 51 48 45 42 42 41 39 37 36 33 32
31 30 28 31 35 34 35 30 44 52 51 50 52 53 53 53 55 56 55 55 55 54 52 52 57 59 59 57 56 58 60 61 61 61 60 58 55 52 49 46 45 44 42 40 38 36 35 34 32
24 21 25 25 33 31 31 32 42 51 49 45 50 50 53 53 53 53 53 54 53 55 55 57 59 59 59 58 59 60 61 61 60 60 58 55 52 51 48 47 46 45 42 41 38 38 36 34 33
21 22 23 23 26 30 28 31 41 48 50 46 49 51 53 52 52 52 52 53 53 54 56 57 59 59 58 58 59 59 60 59 58 57 56 53 50 50 49 47 46 44 41 39 38 38 38 36 36
24 24 24 25 26 26 26 29 39 46 49 49 49 49 50 53 51 52 53 54 54 55 55 57 57 58 57 57 57 57 57 57 57 55 52 50 49 50 49 46 45 43 41 39 40 38 38 37 37
27 25 24 25 26 27 26 26 34 42 46 48 48 50 49 50 52 52 54 55 55 54 55 57 57 57 57 56 56 56 55 54 54 52 50 49 49 49 47 45 43 42 40 40 40 39 37 37 38
27 25 24 24 26 27 26 23 27 36 43 47 49 50 51 51 50 52 53 55 56 56 56 57 57 57 57 56 55 54 53 52 51 50 49 49 48 47 46 44 43 42 40 39 40 40 38 36 38
24 27 26 26 24 18 22 16 20 29 37 43 46 49 51 52 52 51 52 53 55 55 56 56 57 56 56 56 55 53 52 50 49 49 49 49 49 47 45 43 43 41 40 40 40 40 39 38 34
25 28 28 27 23 22 23 18 19 28 30 34 41 46 48 51 52 51 50 51 54 55 55 57 57 56 56 56 55 54 53 52 51 49 48 48 47 46 43 43 42 42 41 42 42 40 39 37 32
29 28 26 27 26 21 22 20 19 21 25 31 35 41 45 48 51 51 50 50 53 55 56 57 56 56 56 56 55 54 53 52 49 47 47 46 45 44 43 41 42 41 40 39 38 37 36 34 34
27 25 20 18 20 18 25 23 22 24 26 26 28 38 42 46 49 51 50 50 52 54 55 56 56 56 56 57 56 55 54 52 50 48 47 46 44 42 41 41 40 39 37 36 34 34 34 34 32
26 24 20 13 14 15 24 20 19 27 28 32 34 36 39 43 46 48 49 50 52 54 55 56 56 55 56 57 56 56 55 52 50 49 47 46 44 42 41 41 41 40 40 36 34 34 33 34 36
28 24 26 23 25 23 22 22 20 23 26 32 35 41 37 41 43 45 47 50 52 54 55 56 56 56 56 56 57 56 55 53 50 49 47 46 44 41 43 45 43 43 37 33 34 33 33 36 36
28 31 25 25 17 15 17 17 16 17 21 30 33 36 41 41 43 45 48 51 53 54 55 56 56 56 56 57 56 56 54 54 51 48 45 43 42 42 45 45 44 39 33 34 34 34 34 34 35
29 27 25 25 22 18 16 17 22 21 23 28 32 36 39 43 45 47 51 52 53 55 55 56 56 56 55 55 55 54 52 50 47 45 43 43 44 44 45 44 39 33 33 33 34 34 34 34 34
27 24 26 22 20 23 22 19 23 24 24 27 31 35 38 44 47 50 52 54 54 55 55 56 55 54 53 51 50 48 46 45 45 44 44 44 44 46 42 38 34 32 32 32 33 33 33 33 33

GFSSGP_sfc_30mbdewp_072.txt.gz
Dewpoint
50 34 28 26 15 9 7 8 13 18 29 32 41 49 48 51 45 43 62 62 64 64 61 66 69 69 69 69 69 69 69 68 67 66 65 64 63 63 62 61 61 61 60 62 64 65 64 64 65
33 33 30 21 10 6 5 10 16 30 37 50 49 50 48 47 58 59 61 63 65 63 60 62 69 68 68 68 69 69 68 67 67 65 64 63 63 63 62 61 62 63 64 64 63 64 64 65 65
32 30 22 16 11 6 5 9 19 38 42 50 41 49 52 53 58 60 62 65 66 63 60 62 68 68 68 69 69 68 67 67 66 64 64 63 63 62 61 62 62 63 64 65 65 64 65 66 65
24 22 19 10 9 6 9 15 35 45 45 50 51 47 56 62 61 61 63 66 66 63 61 67 68 69 69 68 68 67 67 66 65 63 63 63 62 62 62 62 62 64 64 64 64 65 66 65 64
20 17 11 8 5 8 11 26 38 43 46 48 50 48 51 60 64 63 64 67 66 64 63 66 68 68 68 68 68 67 66 65 64 63 63 63 63 62 62 61 62 62 63 63 64 65 64 63 61
18 16 8 5 6 12 16 35 42 45 46 48 48 50 51 63 63 63 66 67 66 64 65 64 67 67 68 67 67 66 66 64 63 63 64 64 63 63 62 62 62 62 61 62 63 63 62 60 60
18 15 9 8 13 20 26 43 44 43 43 46 51 48 56 61 64 65 65 64 64 65 64 65 65 66 66 66 66 66 65 64 63 64 64 63 63 62 62 61 61 61 61 61 61 61 60 59 59
18 14 11 10 15 20 31 45 48 45 44 51 51 45 50 61 64 65 66 65 66 65 65 64 64 64 62 64 65 65 64 64 63 63 62 61 61 61 61 60 61 62 61 60 60 60 59 58 57
21 15 9 12 19 17 36 40 49 48 46 50 53 52 57 63 64 63 63 63 63 63 63 62 61 60 61 60 64 63 63 62 61 60 59 55 52 52 53 60 62 61 60 58 57 57 54 52 49
19 15 11 14 14 17 33 43 44 45 46 48 51 55 60 62 62 60 60 60 60 59 60 60 59 58 58 58 61 60 59 54 52 53 53 51 52 51 54 59 60 58 56 54 52 49 47 47 45
21 17 18 17 20 23 34 40 43 41 37 41 47 54 60 61 61 60 60 60 60 60 59 59 59 58 57 57 57 60 57 57 54 53 51 54 55 56 56 56 54 52 51 46 46 46 45 45 44
21 21 22 21 34 37 36 40 39 41 44 49 49 55 59 59 59 59 57 58 58 59 58 59 58 57 57 56 55 57 56 56 55 56 55 56 56 57 58 56 53 51 49 48 47 46 46 44 41
24 24 35 32 38 40 38 38 40 41 51 51 51 56 57 58 58 58 57 57 57 56 56 55 56 57 57 59 59 57 56 56 55 58 57 58 58 59 58 56 52 50 49 48 46 44 41 39 36
32 35 37 39 39 38 34 37 39 46 52 53 55 54 56 57 57 56 55 55 54 55 55 56 55 55 54 54 57 56 56 56 57 58 60 61 60 59 56 54 52 49 48 46 43 39 35 33 33
35 33 35 36 36 33 35 34 36 46 50 49 52 54 55 57 57 54 54 55 55 55 56 57 57 58 58 57 55 54 55 55 56 59 62 60 59 58 56 53 50 47 46 43 40 37 35 32 30
31 30 23 31 33 33 35 24 38 46 47 45 49 51 54 56 56 56 53 54 55 56 56 57 54 58 59 56 54 53 55 58 60 61 62 60 58 57 54 51 48 46 43 40 38 35 33 32 31
25 18 19 24 29 31 31 24 38 43 41 40 45 47 50 54 54 55 54 52 52 51 50 50 53 58 59 58 53 54 57 60 61 62 61 60 58 55 52 50 48 46 42 41 36 36 35 34 32
17 18 20 20 24 27 25 25 35 44 41 40 41 44 48 49 51 52 52 54 52 49 49 51 56 59 60 59 58 58 59 61 62 61 60 59 56 54 52 50 48 44 42 40 37 37 37 36 35
21 20 20 21 24 24 23 23 29 42 44 41 42 43 48 46 49 50 51 51 51 51 51 54 57 60 60 57 54 55 58 60 60 60 59 57 52 53 51 48 47 44 42 39 41 40 40 38 37
22 21 21 22 25 26 23 22 25 39 42 42 42 42 42 49 47 48 49 51 51 52 53 55 57 59 59 54 52 56 58 59 59 58 56 54 52 52 49 47 45 44 42 41 41 40 39 38 38
23 23 23 21 25 26 25 21 24 31 39 43 44 43 44 43 48 48 49 50 51 51 53 53 55 56 58 56 53 56 58 57 57 56 53 51 51 49 47 47 45 45 41 40 41 41 41 39 39
22 25 24 24 24 17 23 12 17 24 32 38 42 44 44 45 44 48 48 49 51 52 51 52 53 55 58 58 55 55 54 54 55 54 52 49 49 48 47 46 46 44 40 41 41 42 41 40 36
24 27 26 26 23 22 20 13 15 23 23 26 36 42 45 47 46 44 47 48 50 52 53 55 55 57 58 59 57 56 55 55 54 53 51 49 49 48 46 46 45 43 41 42 42 42 41 38 33
29 28 28 28 24 18 19 17 12 15 20 23 27 32 42 46 47 48 47 47 49 53 56 56 56 57 57 58 58 57 56 55 53 52 51 49 48 48 47 45 45 44 42 42 43 41 40 35 31
28 26 20 20 18 16 24 20 16 17 23 26 26 29 34 40 46 47 48 49 48 52 56 56 56 55 56 57 57 57 57 56 53 52 50 48 47 47 46 45 45 42 41 41 40 40 34 32 31
24 24 19 13 15 15 23 15 15 24 27 26 32 34 35 37 40 46 48 49 49 51 54 55 55 55 56 57 57 57 57 56 54 53 50 48 47 46 46 45 43 42 40 41 41 36 33 33 33
27 23 25 23 26 19 16 18 16 20 21 28 30 35 38 36 38 42 46 49 51 52 54 54 54 54 55 57 57 57 57 56 55 54 53 51 49 47 46 44 44 44 44 43 37 34 33 33 33
27 27 23 23 17 14 13 15 13 15 18 26 23 24 37 38 39 41 43 47 50 52 53 54 53 53 55 56 57 56 57 57 55 55 53 51 48 45 45 45 45 45 43 37 35 33 33 32 33
27 25 24 23 22 16 15 15 18 16 19 23 25 30 32 40 40 41 43 45 49 51 53 54 53 52 54 56 56 56 56 57 56 54 52 49 46 44 45 45 47 47 38 34 34 33 31 32 32
25 23 25 19 19 22 22 18 20 21 24 26 27 29 33 37 42 43 45 47 49 51 53 53 53 54 54 55 56 57 55 53 49 48 47 47 46 46 47 47 44 37 33 33 32 31 29 30 30

GFSSGP_sfc_30mbdewp_075.txt.gz
Dewpoint
51 42 27 20 16 13 6 6 8 9 14 23 27 28 36 49 50 47 59 59 62 61 62 67 70 70 70 70 69 69 69 68 67 66 65 64 64 63 63 63 63 65 66 66 65 64 64 64 64
35 24 23 19 13 6 6 7 9 11 27 35 31 30 33 50 52 61 60 62 63 61 62 66 70 70 69 69 69 69 68 68 66 65 64 64 63 63 63 64 64 64 65 65 65 65 65 64 64
34 26 23 18 12 8 5 12 10 22 36 41 37 38 39 50 60 58 61 65 64 61 61 65 69 69 69 69 69 68 68 67 65 64 64 64 63 63 64 64 65 66 64 65 65 65 65 65 64
23 20 19 10 6 8 6 9 19 30 34 37 40 34 41 59 60 62 62 65 64 60 60 67 68 68 69 68 68 68 67 66 65 64 64 63 63 64 63 65 66 66 66 65 65 65 65 64 62
19 16 11 9 6 5 11 29 32 34 38 40 46 40 44 56 53 61 63 64 64 60 64 66 68 68 68 68 68 67 66 64 64 64 63 63 63 63 64 64 65 65 66 66 66 65 63 61 60
17 16 9 7 7 9 29 36 31 38 42 44 46 47 46 55 50 59 64 64 65 62 65 65 68 68 68 67 67 66 65 64 64 64 64 64 63 63 63 63 63 65 65 66 65 63 61 61 61
16 15 11 7 6 25 26 38 40 38 36 45 46 48 54 57 54 62 63 65 64 65 64 65 66 67 67 66 66 65 64 64 64 64 64 64 63 62 62 62 62 63 63 64 62 61 61 60 59
13 13 9 7 10 26 28 35 41 42 40 46 48 43 50 57 63 63 64 63 66 64 65 64 64 64 65 64 65 65 64 65 65 64 62 61 61 61 60 61 62 62 62 62 61 60 59 58 55
17 13 10 7 10 28 25 32 44 45 41 43 47 50 57 61 63 63 63 63 62 62 63 64 62 61 61 61 64 63 63 63 62 61 59 55 55 53 56 62 62 61 61 60 59 57 55 51 48
17 15 11 11 12 14 19 31 37 38 38 39 46 52 61 62 62 61 61 60 59 60 60 60 59 58 59 60 60 60 58 56 55 54 52 48 51 54 55 60 60 58 57 57 56 53 51 50 46
18 14 16 14 20 23 23 30 37 35 31 40 40 48 57 60 61 60 60 59 59 59 59 59 59 59 59 59 59 57 55 53 54 53 51 52 55 56 57 57 54 52 52 49 49 48 48 48 47
17 15 18 19 23 30 29 32 32 34 38 44 44 48 57 58 58 59 58 59 58 58 58 58 59 58 57 57 54 56 59 56 55 54 56 58 56 57 56 53 53 52 50 49 49 49 49 47 43
19 16 20 29 28 33 33 31 32 33 45 51 49 54 58 57 57 58 58 59 58 57 58 58 57 57 56 53 51 51 56 56 56 57 57 58 57 57 56 55 53 51 51 50 49 49 46 41 37
24 25 26 30 31 33 31 30 32 43 48 50 52 53 55 57 56 56 56 56 55 55 55 56 57 58 57 56 56 56 57 56 57 58 58 59 59 59 58 56 53 52 51 50 49 45 39 35 36
29 26 27 28 28 29 31 32 39 41 43 47 50 52 54 57 56 55 55 54 54 54 55 55 55 55 54 54 52 51 54 55 55 58 61 60 60 60 57 55 54 51 50 48 44 39 37 34 33
27 26 24 38 32 28 28 35 41 42 40 41 46 50 54 55 55 55 54 53 54 54 54 55 55 55 54 54 51 51 52 55 57 59 61 61 61 59 58 55 52 50 49 44 40 38 36 36 35
23 21 24 24 23 24 26 23 35 39 38 40 42 43 48 55 54 55 54 55 54 55 54 56 56 55 56 55 54 52 54 58 59 61 61 60 59 58 55 53 51 50 46 42 39 38 39 38 36
19 24 17 14 27 23 20 21 26 37 36 36 40 43 40 43 53 52 53 53 53 53 53 55 57 57 56 57 55 54 55 58 60 61 60 60 58 57 54 52 52 48 44 42 39 40 39 39 39
19 17 17 18 22 21 19 20 22 35 37 39 37 43 43 42 49 51 51 51 48 50 50 50 52 56 58 58 54 52 52 58 61 60 60 60 57 56 54 52 51 46 43 41 43 43 43 41 41
20 18 18 20 20 23 21 20 22 31 35 39 40 39 42 43 46 49 51 51 47 48 47 49 52 56 57 54 51 49 51 58 60 59 59 58 56 55 54 51 49 45 43 43 43 42 41 41 41
21 21 21 22 22 23 21 19 19 25 34 37 40 39 42 42 44 45 48 49 50 48 49 50 53 56 58 52 48 50 54 56 58 58 57 57 55 55 53 50 48 45 44 43 44 44 43 41 41
20 22 22 22 20 23 22 16 24 20 27 34 38 39 39 42 43 44 47 49 50 50 51 52 53 56 57 58 50 51 55 55 56 56 56 54 54 53 51 49 47 47 44 43 44 44 44 43 40
22 25 23 23 22 19 17 10 15 15 18 24 32 38 39 40 42 44 45 46 49 50 51 52 53 52 54 57 57 52 52 52 55 56 55 54 52 51 50 48 47 47 44 44 43 44 44 42 39
25 25 24 24 23 19 16 15 15 14 12 19 22 32 38 40 41 42 44 45 46 51 53 53 52 51 53 58 58 56 54 53 55 56 53 53 53 50 49 47 47 47 45 45 45 45 44 39 37
25 24 22 21 19 18 22 17 12 21 16 20 21 24 31 38 42 42 40 44 45 47 51 53 53 53 54 58 59 58 57 56 56 55 54 53 51 49 49 48 48 47 45 44 46 43 41 40 37
23 22 21 20 18 18 23 14 13 18 19 19 21 24 27 31 39 43 44 43 44 47 51 53 54 54 54 55 58 58 58 57 56 55 54 54 52 51 50 49 48 46 44 44 43 43 40 39 37
22 21 22 22 21 19 17 16 17 16 16 18 21 26 29 34 33 37 42 45 46 47 49 53 54 53 54 55 57 58 58 57 57 56 56 54 53 50 50 49 47 46 45 45 43 39 40 36 35
24 26 22 21 17 20 14 14 12 14 15 21 20 22 31 35 35 36 38 43 46 49 49 54 54 52 53 54 57 58 57 58 57 57 56 55 53 52 49 49 46 47 45 45 43 40 35 35 35
22 23 23 21 22 19 16 13 22 15 16 18 21 22 24 30 36 37 39 41 45 49 51 53 53 51 51 54 56 57 57 57 58 57 56 56 53 48 48 47 45 46 47 47 41 36 35 33 33
20 21 21 19 17 19 18 18 20 19 19 21 21 22 24 28 33 37 40 41 43 48 50 52 54 51 51 53 56 57 57 56 54 52 51 50 49 48 47 46 47 49 46 39 37 36 33 32 31

GFSSGP_sfc_30mbdewp_078.txt.gz
Dewpoint
50 45 40 29 17 15 13 10 9 9 10 19 26 23 24 41 49 46 53 60 65 64 68 70 70 70 70 70 69 69 69 68 68 67 66 65 65 65 65 66 67 67 66 65 65 63 62 61 60
43 39 26 19 16 14 8 12 13 12 32 35 30 27 26 43 52 54 52 59 59 64 68 69 70 70 69 69 69 69 69 68 67 66 65 64 64 65 65 66 67 67 66 64 64 62 62 61 59
41 30 22 21 19 13 10 12 12 13 33 33 27 28 29 51 57 58 62 64 63 63 66 69 69 69 69 69 69 69 68 67 65 65 64 64 65 65 66 66 66 67 66 64 64 63 63 62 59
28 22 20 17 7 6 7 15 22 26 41 41 40 36 52 57 52 50 50 63 64 62 66 69 69 69 68 68 68 68 67 65 65 65 64 64 65 65 67 67 66 66 66 65 65 63 63 61 59
24 18 14 12 11 12 17 24 25 24 43 43 46 45 47 57 57 59 62 63 63 62 68 69 68 68 67 68 67 67 66 65 65 64 64 65 65 66 67 66 67 66 67 66 64 63 61 60 58
19 17 13 12 13 23 34 34 37 37 47 46 43 49 45 52 51 54 63 64 65 65 67 68 68 68 67 67 67 66 65 65 65 64 65 65 65 65 66 66 67 67 67 66 64 62 61 59 57
17 14 12 10 7 22 27 36 34 40 43 44 46 45 49 51 55 63 65 65 64 63 66 68 66 66 67 66 66 65 65 65 65 65 64 64 64 64 64 65 66 66 65 64 62 61 60 59 54
15 11 10 10 10 21 30 31 33 38 41 49 51 47 39 50 62 64 65 63 61 60 60 64 66 66 65 65 65 65 65 65 65 64 63 62 62 63 63 63 64 64 63 62 61 60 58 55 51
14 12 13 17 12 16 26 25 27 39 39 42 48 51 54 61 63 62 61 61 60 59 61 63 63 63 64 64 64 65 64 63 62 61 60 57 56 59 60 62 63 63 62 60 59 57 54 51 48
15 14 18 18 11 14 17 17 23 32 39 43 45 53 60 60 61 60 59 58 59 60 61 61 61 62 62 62 62 63 62 60 59 57 55 54 58 59 61 61 61 61 60 58 56 53 51 49 47
16 14 15 16 17 18 21 32 33 30 41 42 43 46 58 59 60 60 59 59 59 59 59 59 59 59 59 60 59 59 57 55 56 55 54 56 59 59 59 57 56 56 55 52 53 53 51 52 49
17 16 14 16 18 22 23 35 30 31 43 45 47 53 56 56 59 58 57 58 58 58 57 58 58 56 55 55 54 54 56 56 52 55 56 58 58 57 57 56 54 54 52 51 51 53 51 47 42
18 19 15 16 23 22 28 26 29 45 49 49 50 55 57 58 58 58 59 58 57 57 57 57 58 56 55 54 55 57 57 55 55 56 59 58 58 57 56 56 55 53 53 53 51 51 49 42 39
20 20 23 21 25 29 28 33 36 43 47 48 51 54 56 56 56 56 55 55 56 56 56 57 57 57 54 54 54 56 55 55 56 58 58 58 58 59 58 57 55 53 53 52 52 51 44 42 39
23 22 24 33 35 34 34 31 37 40 38 44 49 51 54 56 55 55 55 54 54 55 55 55 56 56 55 55 52 53 55 55 55 57 57 58 59 59 59 56 55 53 55 53 49 43 41 38 37
23 21 27 35 33 31 29 28 35 36 41 43 46 50 54 55 55 55 54 54 55 55 55 55 55 55 54 53 52 51 51 54 56 57 57 56 58 60 58 57 55 55 50 48 44 41 40 39 40
19 22 26 25 34 31 25 30 40 39 42 41 40 47 53 54 54 53 54 54 54 54 54 55 55 55 54 53 51 49 48 54 55 56 56 56 60 60 59 58 56 52 51 48 44 42 41 40 39
22 27 24 22 27 26 23 18 40 44 33 41 40 47 50 51 53 54 54 54 53 54 54 54 54 54 53 52 50 51 55 55 56 57 59 59 61 61 58 56 53 52 48 46 44 42 42 43 42
19 18 16 18 22 23 22 15 21 32 33 37 39 38 43 47 52 53 53 54 54 54 54 53 53 54 54 56 54 54 53 57 58 57 58 60 60 59 58 55 54 53 48 45 46 46 43 42 43
18 16 17 19 19 23 20 17 22 31 32 38 41 39 42 48 49 52 52 53 53 53 54 55 55 56 56 57 55 53 54 58 59 59 59 60 59 59 57 55 54 52 48 47 46 46 45 45 44
18 18 20 21 21 23 22 18 20 27 31 38 38 43 42 45 48 49 49 52 52 53 53 54 56 56 57 57 56 52 56 57 59 59 59 59 58 58 57 56 53 50 49 47 48 46 45 45 45
19 20 22 20 20 18 28 20 20 23 29 32 39 38 42 43 46 49 49 50 49 50 52 51 51 56 58 58 52 50 51 55 57 58 58 58 58 56 56 54 52 49 49 47 48 47 47 45 43
20 23 25 22 21 21 24 23 15 23 24 27 35 40 40 42 45 46 48 51 51 50 50 50 51 55 57 58 57 51 55 55 57 58 58 56 56 55 57 55 52 50 49 49 47 48 45 45 43
22 23 25 23 23 20 20 19 19 22 22 20 30 36 39 41 42 44 47 49 50 52 52 52 54 55 57 58 58 56 56 56 56 57 57 56 55 55 54 53 51 51 49 49 49 48 47 43 39
22 23 21 25 23 20 22 21 21 25 23 20 20 30 38 40 43 44 45 46 49 50 52 54 54 53 55 58 58 58 57 55 56 57 56 54 54 54 53 52 51 50 49 49 48 47 45 41 40
23 23 22 23 27 27 30 20 13 20 20 21 19 21 31 37 42 43 45 45 46 49 52 53 53 53 53 58 59 58 59 57 57 57 56 54 54 53 51 52 51 50 49 48 46 45 44 41 41
23 22 23 22 24 28 27 27 25 18 16 16 18 21 24 28 36 42 43 46 46 47 51 54 54 53 53 57 59 59 59 59 58 58 57 56 55 54 53 52 51 50 47 46 46 43 40 41 42
22 25 23 21 20 19 15 16 25 24 19 18 20 23 29 35 35 35 42 45 46 48 49 53 54 53 54 55 57 59 58 59 59 58 57 56 56 54 53 52 49 47 46 45 43 42 43 44 43
20 20 27 24 21 20 21 18 30 25 22 18 20 23 24 26 35 36 37 40 47 48 49 53 54 54 54 55 56 58 59 59 59 58 57 56 54 52 49 48 47 46 46 46 45 45 44 42 38
20 21 23 23 19 25 27 24 22 21 20 20 21 21 22 26 28 34 38 39 42 49 50 52 54 55 54 54 56 59 59 58 58 56 54 52 50 49 48 48 47 47 48 49 46 43 40 39 37

GFSSGP_sfc_30mbdewp_081.txt.gz
Dewpoint
49 47 45 37 23 20 16 16 16 13 28 34 30 29 37 48 42 37 56 61 61 60 62 70 70 70 70 69 69 69 69 68 68 67 66 66 67 67 68 67 67 66 65 62 60 58 59 61 62
46 44 40 30 17 15 15 16 13 36 42 40 37 39 36 40 51 53 58 60 59 60 62 67 70 70 69 69 69 69 68 67 67 66 66 66 66 67 68 67 66 66 65 61 59 57 58 60 61
42 37 28 22 20 19 17 22 27 41 43 42 40 43 50 52 55 59 59 60 59 58 60 61 69 68 69 69 69 68 67 66 66 65 65 65 66 67 67 67 66 65 64 61 59 58 59 59 59
33 27 24 18 17 18 24 34 36 37 43 42 41 39 48 54 56 55 58 60 58 57 57 62 68 67 69 69 69 68 66 66 65 65 65 66 66 67 67 67 67 66 65 61 60 59 59 58 57
35 28 17 16 16 17 30 33 40 39 43 40 42 39 45 51 54 56 62 63 58 62 63 67 67 67 69 69 68 67 66 65 65 65 66 66 67 67 67 67 67 66 65 62 60 59 58 57 56
30 21 17 16 15 20 30 33 39 44 42 40 41 45 46 51 52 63 63 62 61 60 65 68 68 68 68 68 67 66 66 65 65 66 66 67 67 67 67 67 67 67 65 63 61 59 57 55 53
24 20 16 13 10 21 26 35 34 40 42 41 47 43 48 51 60 63 61 61 60 61 60 61 67 67 67 66 66 66 65 65 66 65 66 66 66 67 68 68 67 66 64 62 60 59 56 52 50
24 19 13 11 15 21 28 27 36 41 43 48 50 46 45 52 63 62 61 59 61 60 60 60 63 66 65 65 65 65 65 65 65 64 64 64 65 66 67 66 66 64 62 61 60 57 54 50 48
23 17 10 12 17 16 27 28 30 46 47 49 51 46 52 61 62 60 60 58 59 58 59 59 61 64 65 65 65 65 64 63 63 62 62 61 62 62 64 65 64 63 62 60 57 55 51 48 47
18 14 14 17 18 17 20 31 28 40 43 44 46 45 53 61 60 59 58 57 58 58 59 61 63 64 64 64 64 63 61 60 59 57 56 59 60 61 62 63 63 62 60 56 56 53 52 48 47
20 13 15 16 15 22 22 29 45 41 43 47 45 50 58 60 59 59 58 59 58 59 60 61 62 63 63 63 62 60 59 57 56 55 57 60 60 59 59 59 59 59 56 55 55 53 50 49 44
19 19 18 18 16 23 21 32 43 46 48 50 57 58 58 59 58 58 58 58 58 58 58 59 59 58 57 57 57 57 56 55 54 54 58 59 58 56 55 54 54 53 51 52 51 52 47 42 40
22 21 20 26 31 31 29 36 37 39 47 51 57 57 57 57 58 58 58 58 57 56 57 56 56 55 53 52 51 50 50 48 54 56 59 58 57 56 56 53 53 52 51 53 52 50 45 40 38
21 22 21 27 30 30 32 33 36 37 44 50 55 56 56 57 57 56 56 56 56 56 56 56 56 56 55 54 53 54 55 55 57 58 58 58 58 57 57 54 54 54 53 52 51 50 42 39 37
25 24 24 26 29 31 32 33 33 38 42 47 51 54 54 55 56 55 56 55 56 56 56 55 55 54 55 54 56 57 56 57 57 56 56 57 59 58 58 56 54 54 53 53 52 48 43 40 38
24 23 20 29 30 32 31 28 35 39 44 46 49 54 54 54 55 55 55 54 55 54 54 55 55 54 54 53 54 55 55 54 54 54 56 57 59 58 58 56 53 54 53 49 44 40 39 36 37
25 22 22 29 32 32 32 31 35 40 39 43 49 53 53 53 53 54 54 54 54 54 54 53 53 53 53 53 53 53 52 52 53 54 57 52 54 59 58 56 56 52 48 45 42 42 39 40 40
22 23 28 26 30 33 30 30 36 38 41 45 51 52 51 51 52 54 54 54 54 54 53 53 52 52 53 52 50 49 49 52 55 54 56 52 54 57 59 58 55 52 49 46 43 42 44 41 41
25 23 25 28 29 29 26 28 38 39 42 45 48 51 51 50 52 53 52 53 53 54 53 53 53 53 52 50 48 46 47 54 54 55 56 56 56 57 58 57 54 51 48 44 44 43 41 42 43
23 21 18 19 24 24 23 21 27 37 40 41 41 44 47 52 51 52 53 52 52 52 53 53 53 53 51 50 48 49 51 55 56 57 57 56 57 58 59 54 53 52 48 46 45 43 43 44 43
22 18 19 19 22 22 24 23 24 30 39 39 40 45 48 51 51 52 52 53 52 52 52 52 52 52 52 52 52 54 54 56 57 57 57 59 59 60 59 55 53 52 50 45 45 45 44 43 44
20 21 21 24 20 18 26 20 23 29 37 39 38 42 48 49 51 52 52 53 53 52 52 50 51 51 52 55 55 55 52 54 56 57 58 59 59 58 58 56 54 52 49 45 46 47 46 45 43
22 22 25 25 23 22 23 23 24 26 30 37 41 40 44 48 49 50 52 52 53 51 51 51 54 55 55 56 56 56 52 55 57 58 57 58 58 57 57 56 54 51 48 47 47 47 47 45 42
23 23 24 25 24 21 23 24 23 23 28 31 39 43 42 47 48 48 49 51 52 50 52 53 53 55 56 57 57 57 52 55 56 57 57 57 56 56 56 56 54 50 49 48 47 47 45 44 42
22 21 21 23 24 23 33 29 24 24 24 27 38 40 43 44 48 48 49 49 50 50 51 51 50 51 56 57 57 57 54 54 56 57 57 55 55 55 55 55 54 51 50 50 49 47 44 41 39
20 22 22 20 23 30 35 28 23 26 25 24 26 38 41 43 45 47 48 49 50 49 50 49 49 50 54 57 57 58 57 56 56 57 57 56 55 55 54 54 53 51 50 48 47 46 44 42 41
23 22 25 27 33 29 30 28 27 24 23 20 18 20 39 41 43 45 46 48 50 50 51 49 49 51 53 56 57 58 58 57 57 57 57 56 55 54 53 53 52 51 48 47 46 46 44 42 42
22 26 23 25 23 26 24 26 23 23 23 22 21 29 33 36 42 44 45 47 48 50 50 52 53 53 53 53 57 58 58 58 58 58 57 56 55 54 53 53 50 47 47 47 46 45 44 42 42
22 22 26 26 26 20 19 20 28 25 23 22 22 24 28 34 34 39 45 45 47 49 50 51 53 52 53 53 58 58 59 58 59 58 57 56 56 54 52 48 47 46 47 48 46 45 45 45 45
22 22 23 25 25 26 24 23 29 25 24 22 23 24 25 27 36 35 36 43 46 48 49 50 54 54 54 54 58 59 59 59 59 58 57 55 53 50 48 48 48 48 47 47 46 46 46 44 42

GFSSGP_sfc_30mbdewp_084.txt.gz
Dewpoint
52 48 43 35 20 19 18 17 20 27 34 38 38 36 40 50 46 40 56 59 63 65 69 69 70 69 69 69 69 69 68 68 68 68 68 68 68 68 67 67 65 63 61 60 61 60 61 62 63
44 44 39 30 17 15 15 17 31 36 38 41 40 42 46 45 52 51 52 59 63 63 67 68 69 69 69 69 69 69 68 67 67 67 67 68 68 67 67 67 65 63 61 61 60 60 61 61 61
38 38 29 23 20 18 18 22 32 41 41 39 35 44 50 49 54 56 56 59 60 62 64 68 68 68 69 69 69 68 67 67 66 66 67 67 68 67 67 66 64 63 60 59 59 59 59 60 59
33 27 24 19 16 18 19 20 35 41 42 41 41 36 45 50 56 56 59 59 60 60 62 62 67 64 67 69 69 68 67 66 66 66 67 67 67 67 66 66 65 63 61 59 59 59 60 58 58
34 26 18 16 16 17 18 29 38 39 40 39 41 39 43 52 55 61 58 60 58 61 61 61 65 67 68 69 68 67 66 66 66 66 67 67 68 67 67 66 65 63 61 60 59 59 57 57 57
27 23 17 15 15 17 25 31 42 40 39 40 43 44 46 54 62 62 62 61 61 61 64 62 63 66 66 68 67 66 65 66 66 66 67 67 67 68 67 67 65 64 62 61 59 56 55 56 54
24 22 20 18 18 14 25 34 38 40 42 42 46 44 47 57 61 61 61 60 60 60 61 61 59 64 65 68 66 65 65 66 66 66 67 67 67 68 67 67 65 64 61 59 57 55 53 53 53
25 22 19 18 15 12 25 29 40 43 42 49 50 42 42 52 62 60 59 60 61 61 61 59 59 60 64 66 65 65 66 66 67 67 66 67 67 67 67 66 64 62 61 59 55 52 51 50 52
23 20 17 16 13 15 23 28 43 48 45 48 51 46 47 60 61 60 59 57 58 59 58 59 61 61 63 65 65 65 65 65 65 65 65 66 66 66 65 64 63 62 60 58 54 52 52 48 51
22 18 18 18 15 17 21 33 38 43 45 44 47 49 51 57 59 58 58 56 56 56 57 62 63 64 64 64 64 64 63 62 62 62 61 62 64 65 64 64 63 61 58 56 55 53 49 45 40
20 18 20 19 17 19 22 39 46 43 45 49 48 50 53 60 59 58 58 57 57 58 59 62 62 63 63 63 62 60 59 58 57 59 60 61 62 63 63 62 60 59 57 55 53 50 50 43 38
18 19 20 19 27 28 26 42 41 47 48 56 57 56 59 57 58 58 58 58 58 59 60 61 62 62 62 62 60 58 57 56 57 59 59 59 59 59 59 58 56 54 54 52 51 49 43 40 38
22 22 24 27 31 31 34 35 37 46 50 57 57 57 57 56 57 57 58 58 58 57 57 58 59 59 59 59 58 56 55 54 58 58 58 56 56 55 55 55 53 51 52 51 52 45 40 39 37
23 25 25 25 27 30 30 35 37 38 50 55 55 55 56 57 57 56 57 56 56 56 55 56 55 54 54 53 53 51 52 56 58 59 58 57 56 56 54 53 51 51 52 52 50 44 39 37 35
27 24 24 23 25 29 33 32 32 38 45 54 54 54 55 56 56 56 56 55 55 56 55 54 54 54 53 53 51 50 56 58 57 59 59 57 57 56 54 53 53 52 53 52 51 44 41 38 36
25 25 21 23 28 31 29 25 32 38 43 51 53 53 54 55 55 55 56 55 55 55 54 54 54 54 54 55 55 56 57 57 57 57 58 58 58 58 56 55 53 54 53 52 50 44 41 39 37
26 23 23 24 30 31 30 27 33 38 44 49 53 52 51 53 53 54 55 55 54 55 55 54 54 53 54 54 55 54 54 54 55 55 55 56 58 59 57 55 54 54 52 50 45 41 39 38 38
23 24 25 26 27 31 30 29 32 39 42 46 51 51 50 51 52 54 54 55 54 54 54 54 54 54 54 54 54 53 52 52 53 54 55 55 55 59 57 56 55 52 49 46 42 40 42 40 40
26 25 24 25 27 29 28 28 32 39 45 47 50 50 49 49 53 54 54 54 54 53 53 53 53 54 53 52 51 51 50 50 52 54 53 56 54 57 58 57 55 51 47 45 42 42 41 42 43
25 25 24 22 22 27 25 24 26 40 44 47 48 49 49 48 50 52 53 53 53 53 53 52 52 52 50 50 49 48 47 51 53 55 55 56 56 56 58 57 55 52 49 45 44 42 42 42 43
26 24 23 18 20 23 24 23 27 36 42 45 47 49 50 49 49 51 51 52 52 52 52 52 51 51 50 49 48 49 49 53 53 54 55 55 56 57 58 56 55 52 49 46 45 43 42 42 43
25 25 22 24 23 20 25 20 23 32 39 41 41 44 49 50 50 51 51 51 52 52 53 52 52 51 50 50 48 48 46 48 54 54 55 56 57 57 58 57 55 53 50 46 45 45 44 44 42
25 26 22 24 24 23 23 23 23 33 38 38 40 43 48 50 51 50 50 52 52 52 52 52 52 52 50 51 50 49 52 54 54 55 56 56 57 58 59 58 55 53 51 47 46 46 45 45 44
26 23 25 27 25 22 30 29 23 25 30 38 38 43 47 49 50 51 51 52 52 51 51 52 51 51 51 52 52 52 52 54 55 56 56 56 57 58 57 57 55 53 51 49 47 47 46 45 44
23 21 19 19 21 20 34 29 27 27 27 36 39 39 46 48 48 50 51 52 52 51 50 51 50 50 50 51 52 54 55 54 54 55 56 56 56 56 56 56 55 53 51 49 48 48 46 45 41
22 21 19 17 20 25 34 25 26 29 28 29 39 41 41 48 48 49 50 51 51 50 49 49 49 50 52 54 54 55 56 55 55 55 56 56 56 56 56 56 55 53 51 50 49 47 45 45 45
21 21 24 25 33 28 29 30 30 27 24 24 33 39 43 43 48 48 49 50 51 51 47 48 49 51 52 54 56 57 57 57 55 56 57 57 57 57 55 55 54 53 50 49 47 46 46 46 45
22 26 23 27 23 23 26 28 25 23 21 23 22 38 41 43 45 48 48 49 50 51 51 49 50 51 51 52 56 57 57 57 56 56 57 57 57 56 55 54 52 49 48 47 47 46 46 46 46
23 23 26 25 26 23 22 21 26 24 24 22 26 30 38 42 44 45 47 49 49 50 51 51 52 51 50 50 54 56 57 58 57 57 57 57 56 55 54 53 50 48 47 47 47 47 47 46 44
23 22 24 24 25 27 25 23 28 26 26 26 23 25 33 39 42 44 45 46 48 50 52 51 51 51 51 52 52 55 57 58 58 57 57 56 55 55 52 51 49 48 47 48 47 46 45 44 44

GFSSGP_sfc_30mbdewp_087.txt.gz
Dewpoint
51 50 42 31 18 19 17 17 20 25 31 38 40 39 41 47 43 35 55 61 64 68 69 70 69 69 69 69 69 69 69 69 68 68 68 68 68 67 65 64 62 63 62 61 61 62 62 61 61
46 44 36 25 17 15 15 17 20 32 37 40 41 41 47 45 52 52 51 58 63 64 68 69 69 69 69 69 69 69 68 68 68 68 68 68 67 67 65 63 63 63 63 62 62 62 63 63 63
39 35 27 23 19 16 17 19 20 36 41 39 36 45 49 47 55 58 57 59 63 63 66 69 68 68 68 68 69 68 68 68 68 68 68 67 67 66 65 63 63 64 63 62 61 60 60 60 62
32 26 22 19 16 18 19 18 20 37 42 42 40 38 45 50 56 56 57 59 61 62 63 68 67 66 63 64 66 68 67 67 67 67 67 67 67 66 65 63 62 63 62 60 59 57 59 60 62
33 24 18 16 16 17 19 18 27 33 39 39 41 38 42 53 56 59 57 59 59 61 62 65 65 64 64 65 66 66 67 67 67 67 67 67 67 66 65 63 62 62 62 61 57 58 62 62 61
26 22 16 13 15 18 19 23 38 40 39 41 42 43 46 55 60 61 63 60 60 61 61 62 65 66 64 63 65 66 65 66 66 67 67 67 67 66 65 64 63 62 62 60 58 58 61 61 60
23 22 19 17 18 17 16 34 36 40 40 40 46 43 47 58 60 61 61 61 61 61 61 61 60 65 65 65 65 65 65 66 66 67 67 67 67 66 65 64 63 62 61 59 57 56 59 60 60
24 23 20 19 15 15 16 32 41 41 40 48 49 43 40 52 61 60 60 60 60 61 61 60 59 62 64 64 64 65 64 66 66 67 67 67 67 66 65 64 62 61 59 57 56 55 58 60 59
23 20 18 17 15 14 17 26 44 47 43 47 50 46 52 60 60 59 57 58 58 60 61 60 59 59 63 64 64 64 64 66 67 67 66 66 66 66 64 62 61 59 58 58 56 54 58 58 58
23 19 19 19 17 18 20 28 40 43 43 45 45 51 51 59 59 58 58 55 55 57 57 60 62 61 59 63 64 63 62 64 65 65 65 65 65 64 62 62 61 59 57 57 54 50 49 48 50
22 20 20 19 20 20 18 36 43 42 43 48 47 52 51 59 58 58 57 57 55 56 59 62 61 62 60 58 61 61 63 63 63 64 64 63 64 64 62 61 58 58 56 53 50 46 40 41 42
18 19 19 20 23 29 26 39 41 44 44 54 57 53 58 58 58 58 57 57 56 58 59 60 60 61 61 61 61 61 61 60 61 62 62 63 63 62 61 58 57 55 53 50 49 45 39 38 39
20 21 24 25 26 31 37 36 37 44 54 57 57 58 56 57 57 58 58 58 58 57 58 59 60 60 60 60 59 59 58 59 60 61 62 62 61 60 59 56 53 53 51 51 45 41 39 37 38
24 25 25 25 25 28 31 35 39 42 54 55 55 55 57 55 56 57 57 57 57 56 57 57 57 60 60 59 58 57 56 58 59 59 59 59 59 58 56 53 51 51 51 51 44 40 38 37 36
26 24 24 23 24 26 31 30 34 37 54 54 54 54 55 54 55 56 56 56 56 56 56 56 55 56 57 57 56 55 56 59 58 58 57 57 57 57 55 52 51 51 52 50 44 40 38 36 36
25 25 21 22 26 29 29 23 31 42 53 53 53 53 52 53 55 56 56 56 56 55 54 55 55 54 54 52 54 56 57 58 58 58 57 56 56 54 54 52 51 52 52 50 44 41 39 37 36
26 21 22 24 27 28 30 26 32 40 48 51 52 52 50 51 52 55 55 55 55 54 54 54 54 55 54 54 56 56 56 57 58 58 57 57 57 55 54 53 53 53 52 51 46 42 39 37 36
22 23 24 25 27 30 29 29 32 39 45 48 51 50 50 51 50 54 54 55 55 55 54 54 54 54 54 54 54 54 54 55 55 56 57 57 58 57 55 54 53 53 52 49 45 41 40 38 37
25 25 24 23 25 27 26 27 28 35 40 46 49 50 49 50 53 54 54 54 54 54 54 54 53 54 53 53 52 52 53 53 53 54 56 55 57 58 56 55 54 52 51 49 44 41 40 40 41
25 24 23 25 25 24 24 25 25 35 39 44 48 49 48 48 51 53 54 54 53 53 53 53 53 53 52 51 48 49 51 52 52 54 54 56 54 57 57 56 54 52 50 47 43 41 41 41 42
25 24 23 23 25 24 25 23 23 33 41 46 49 49 48 48 49 51 52 53 53 53 53 52 53 52 52 51 49 48 50 51 51 52 54 54 55 55 58 58 56 54 50 47 44 43 41 40 43
24 26 26 25 24 21 24 20 22 27 38 44 46 48 48 48 49 50 50 50 51 52 52 52 52 52 50 49 48 48 46 46 48 49 54 53 55 55 56 57 57 54 51 48 45 44 43 42 40
25 27 26 26 24 23 23 22 22 33 33 38 42 45 47 49 49 50 51 51 51 51 52 52 51 51 50 50 48 47 46 46 49 53 53 54 55 56 57 58 56 54 52 49 47 45 44 44 42
27 26 25 28 25 22 26 26 23 25 28 34 40 42 44 49 50 50 51 51 51 52 52 52 51 51 50 50 49 48 48 49 50 52 53 54 55 56 57 58 56 55 53 50 48 48 47 45 44
26 24 21 19 19 20 30 31 26 27 28 30 34 40 42 47 49 50 50 50 52 51 51 52 51 51 50 50 49 49 49 50 51 51 53 54 54 55 55 56 56 55 54 52 51 49 47 47 44
21 22 20 17 18 19 32 27 25 30 30 30 35 38 41 46 48 49 49 50 52 51 51 51 51 50 50 50 49 49 50 50 52 53 54 55 55 54 55 56 57 56 53 52 50 49 47 46 44
19 19 23 21 32 27 27 29 30 29 29 25 33 39 40 46 47 47 48 50 51 52 51 50 50 50 50 50 50 49 50 51 52 54 55 55 56 56 56 56 56 55 53 51 49 47 46 46 46
20 25 21 26 21 22 25 26 24 25 23 23 31 38 40 44 47 47 47 50 51 52 52 51 50 49 49 50 50 50 51 52 53 54 55 55 56 56 56 55 55 54 52 50 49 47 47 46 46
21 20 24 23 24 18 20 22 27 27 27 23 23 34 41 42 45 48 48 48 50 51 51 50 50 49 48 49 51 52 53 55 56 56 55 56 56 56 55 55 55 52 51 50 48 47 47 46 46
21 20 22 22 24 26 23 22 26 28 27 26 26 26 34 43 43 46 48 48 49 50 51 50 49 48 49 50 51 52 55 56 57 57 57 56 56 56 55 54 53 52 50 49 48 47 47 47 46

GFSSGP_sfc_30mbdewp_090.txt.gz
Dewpoint
51 47 41 27 17 17 15 16 20 21 29 38 40 39 43 47 43 33 54 58 65 69 69 69 70 70 69 69 69 68 69 69 69 69 69 68 68 67 66 64 63 63 62 60 60 61 61 60 61
47 43 33 23 17 14 14 17 18 23 34 39 38 41 45 43 51 52 53 58 65 68 69 69 69 69 69 69 68 68 68 69 69 69 68 68 67 66 64 64 64 64 63 62 61 61 61 60 60
38 34 26 21 18 14 14 18 18 26 39 38 35 44 49 43 53 56 56 59 64 66 69 69 69 69 69 69 69 68 68 68 68 68 68 67 66 64 64 64 64 64 64 62 62 62 62 62 61
30 26 21 19 15 18 18 17 20 25 41 41 39 37 44 49 54 58 59 60 63 63 66 68 69 69 68 68 68 68 68 68 68 67 67 67 65 64 65 64 64 64 64 63 61 61 63 62 60
29 23 18 16 16 17 19 19 19 31 37 39 41 37 41 49 56 57 60 59 62 62 64 68 67 68 68 67 67 67 68 68 67 67 67 66 65 64 64 64 64 63 62 60 59 60 63 61 60
25 21 16 13 14 17 19 19 33 35 37 40 41 42 43 55 58 60 61 60 60 61 62 63 66 65 67 66 66 66 67 67 67 67 67 66 65 64 64 64 63 62 60 61 63 63 62 61 60
23 21 17 17 16 17 16 34 33 38 38 40 45 40 45 55 59 61 60 61 61 62 61 62 65 65 65 65 66 66 66 66 67 67 67 66 65 65 64 63 63 60 60 62 63 62 61 60 59
24 23 20 19 17 15 17 32 39 39 38 48 47 41 40 52 60 60 60 60 61 61 61 61 61 64 65 64 65 64 64 64 65 66 67 66 66 65 64 63 61 59 58 61 62 61 61 60 60
23 20 18 18 16 16 17 22 41 46 44 46 49 48 51 60 60 59 58 58 59 60 61 60 60 60 63 64 65 64 63 63 63 66 66 66 65 64 63 61 60 58 58 59 61 61 60 60 60
24 21 19 19 18 18 20 21 34 41 43 43 46 50 59 59 58 57 56 56 57 58 58 59 60 59 60 64 64 63 62 60 62 65 66 65 65 63 61 61 60 59 57 59 61 60 59 57 56
23 22 22 21 20 21 20 25 40 41 39 43 43 47 51 57 57 57 58 57 56 56 58 61 62 62 60 60 63 63 62 61 61 65 64 63 64 62 61 60 59 56 54 52 54 51 50 50 47
20 20 20 19 22 26 27 33 39 42 39 50 51 55 52 58 57 57 57 57 56 57 59 60 60 61 61 61 63 62 60 59 60 62 63 63 62 61 59 56 57 54 51 47 44 44 44 43 41
19 19 22 24 25 25 32 32 38 41 49 56 57 55 57 57 57 58 58 58 58 57 58 59 60 60 61 61 61 60 59 59 60 63 62 63 62 59 57 56 54 52 50 46 41 40 40 39 40
24 23 25 26 25 25 27 31 38 38 54 55 55 56 55 55 56 57 57 57 58 57 57 58 59 60 60 60 60 59 59 59 60 62 62 63 61 59 56 53 52 51 50 45 41 38 38 39 40
27 25 25 24 23 23 28 28 33 38 55 53 53 54 53 53 55 55 57 57 57 57 57 57 58 59 58 58 58 59 60 60 61 61 61 60 60 58 55 52 51 51 50 45 40 38 37 37 38
27 25 22 21 25 26 30 24 28 38 51 52 53 52 52 53 53 56 57 56 56 56 56 56 57 57 57 57 57 58 59 59 59 59 59 59 58 57 54 52 51 52 50 45 40 38 36 36 37
26 21 22 21 27 28 29 27 29 40 50 51 52 50 50 51 52 55 56 56 55 55 55 55 56 55 54 56 56 57 59 59 58 58 58 57 57 55 54 52 52 52 51 45 41 40 38 36 36
22 22 24 23 26 26 27 27 28 34 41 48 51 50 49 49 50 53 55 55 55 55 55 55 55 54 55 56 56 56 57 57 57 57 57 57 56 55 54 52 53 53 51 48 43 40 40 38 36
24 24 24 24 25 24 23 24 24 29 37 41 49 50 48 50 50 54 54 55 54 54 54 54 54 54 54 55 54 55 55 55 56 56 56 55 56 55 53 52 52 52 51 49 44 41 39 39 39
26 24 24 25 23 24 24 24 25 29 34 37 44 49 49 50 51 53 53 54 54 53 54 54 54 54 53 54 53 54 54 53 54 56 56 56 57 56 55 53 53 52 51 49 45 42 40 40 41
26 25 24 23 22 25 24 23 23 28 37 43 46 48 49 49 50 50 53 53 53 53 53 53 53 54 52 53 51 52 52 51 51 53 54 55 56 58 57 54 54 53 51 49 46 43 41 39 41
24 26 25 24 24 21 24 21 23 23 28 39 43 47 48 48 49 49 50 52 53 53 53 53 53 53 52 51 50 51 51 48 46 50 53 54 55 55 57 57 55 54 52 50 48 45 43 42 39
25 26 26 26 25 24 24 23 23 30 26 27 35 44 47 48 49 49 50 50 53 53 52 52 52 51 51 50 49 48 49 48 48 50 50 52 53 55 55 56 57 55 53 51 49 47 44 44 42
29 27 27 27 26 23 24 23 23 23 25 30 34 40 46 48 49 49 50 50 50 51 52 52 52 52 50 49 48 48 46 47 47 48 50 51 52 53 55 56 56 56 54 53 51 49 47 46 45
25 25 20 19 22 21 25 29 25 25 26 28 29 35 42 47 49 49 50 50 50 50 50 51 51 51 51 50 49 48 48 47 47 47 49 52 52 53 53 55 56 55 55 54 51 50 49 48 46
24 23 20 17 17 18 32 27 25 29 31 32 31 34 41 44 48 49 50 50 51 50 50 50 51 51 51 50 49 49 48 48 49 49 49 50 51 53 54 55 55 55 55 54 52 51 51 49 48
19 23 24 21 28 24 24 29 29 29 26 27 28 37 39 43 46 47 49 50 51 51 51 51 51 51 51 51 50 49 49 49 48 50 52 52 54 54 54 54 55 55 55 54 53 52 50 49 48
17 21 18 25 19 19 24 27 22 23 24 25 25 35 38 43 46 46 48 49 50 52 51 51 51 51 50 51 50 50 49 49 50 50 52 53 54 55 55 55 55 55 54 53 52 51 49 48 47
20 19 23 23 23 18 18 21 27 24 24 27 24 27 39 41 45 46 46 48 49 51 52 51 51 50 50 50 50 50 49 50 50 50 51 53 54 55 55 55 55 55 53 52 51 50 49 49 48
21 19 20 18 20 26 22 19 26 26 28 28 25 25 31 41 42 47 47 47 48 50 52 52 51 50 50 49 49 49 50 50 51 51 52 53 54 55 55 55 55 55 53 51 51 51 50 50 48

GFSSGP_sfc_30mbdewp_093.txt.gz
Dewpoint
51 43 39 26 18 18 15 17 20 20 27 36 39 38 39 43 40 31 55 61 63 66 66 68 70 69 69 70 70 70 70 69 69 69 69 69 68 68 67 66 66 64 63 61 61 60 60 60 60
45 41 32 24 18 13 13 18 17 23 29 39 39 40 42 41 50 51 54 58 64 67 66 65 69 69 69 69 70 70 70 69 69 69 69 68 68 67 66 65 64 63 63 61 60 60 60 60 59
36 32 26 22 19 13 14 18 18 19 32 38 36 42 47 44 52 55 57 59 66 68 68 67 69 69 69 69 69 69 69 69 69 69 68 68 66 65 65 64 64 64 63 61 61 59 60 60 60
29 27 22 20 16 18 18 18 21 21 38 41 39 35 42 46 54 58 59 61 65 67 68 68 68 69 69 69 69 69 69 69 69 68 68 67 65 66 65 65 64 64 63 63 61 60 60 61 60
28 24 19 17 16 17 19 20 20 23 34 39 40 36 40 47 55 60 61 59 63 64 65 68 68 67 69 69 69 69 69 68 68 68 67 65 65 65 65 65 64 64 64 63 63 63 61 61 60
25 22 17 14 14 17 19 21 25 32 36 39 40 40 42 55 57 61 61 61 60 63 63 64 67 66 64 68 68 68 68 68 67 67 66 65 65 65 65 65 64 64 63 63 64 62 61 61 60
23 20 16 15 16 18 18 29 34 32 36 38 43 40 43 53 59 61 61 62 61 62 62 63 64 63 62 64 65 67 67 67 67 66 65 65 65 65 65 65 64 62 63 63 64 61 61 60 59
25 23 20 20 17 16 17 28 36 35 30 47 46 41 41 52 60 60 60 60 61 61 62 62 64 63 64 64 62 66 67 67 67 66 66 65 65 65 64 64 62 63 65 64 63 61 60 60 59
24 22 19 19 18 17 18 22 36 44 43 45 47 47 50 59 60 59 59 59 60 60 61 62 62 63 63 63 63 66 66 67 67 66 65 64 64 63 62 60 61 63 64 63 61 61 60 60 59
24 22 20 21 19 19 20 22 23 39 43 43 45 50 57 58 57 56 57 57 58 58 59 61 61 61 62 64 64 65 65 66 66 66 65 64 64 63 60 59 60 61 63 62 61 61 60 57 55
24 21 23 22 21 21 22 23 33 39 34 39 39 45 54 58 57 56 57 57 57 57 58 60 61 61 61 62 64 63 62 63 65 65 64 64 63 61 59 57 56 59 61 59 59 58 54 55 54
23 23 23 21 21 25 24 29 36 41 32 50 47 54 52 53 55 57 58 58 57 57 58 60 61 61 62 61 63 62 61 62 64 63 64 63 61 60 58 55 53 54 57 58 57 54 53 52 52
21 20 20 21 22 26 28 28 31 36 42 53 56 54 53 55 58 58 59 59 57 57 59 60 60 61 61 61 61 62 60 61 63 63 62 62 60 58 56 55 51 50 52 53 52 52 49 48 48
24 22 22 26 26 26 25 26 36 30 44 54 56 55 55 55 55 56 55 58 58 58 58 59 60 60 60 60 60 62 60 59 61 63 61 62 60 57 55 54 51 50 49 50 49 48 45 42 40
27 26 26 26 25 23 26 26 30 34 52 52 54 54 53 53 53 54 56 57 58 58 57 58 59 59 59 60 61 60 59 59 61 62 63 62 60 57 55 53 51 49 46 46 45 44 42 41 40
27 26 21 22 25 26 28 22 27 34 48 49 52 53 53 52 52 52 56 57 57 57 57 57 58 58 58 59 59 59 59 59 61 62 62 62 59 56 55 53 51 51 47 44 42 41 41 41 40
26 15 21 21 27 28 30 26 28 41 46 45 51 51 51 51 51 52 56 56 56 56 56 56 57 56 57 58 59 59 59 60 61 61 60 60 59 56 54 53 52 52 48 45 42 41 40 39 39
18 22 24 21 26 26 24 24 26 29 39 42 49 51 50 50 50 52 55 56 55 56 55 56 56 56 56 57 58 59 59 59 59 60 59 59 58 56 54 53 53 52 48 45 43 42 41 39 38
24 23 22 25 26 24 21 22 24 26 31 37 46 50 50 50 50 52 54 55 55 55 55 55 55 56 56 55 56 56 56 57 58 58 58 58 58 56 55 53 54 53 50 46 45 44 42 40 41
26 23 23 25 25 25 23 22 23 26 28 34 39 47 49 49 50 51 52 54 54 54 54 55 54 55 55 55 56 56 56 57 57 57 58 57 57 56 55 53 53 53 52 49 46 44 44 43 42
26 25 25 23 24 25 24 23 24 26 33 38 42 45 49 49 49 50 52 53 54 53 54 54 54 54 55 55 55 55 54 54 55 56 56 56 56 55 55 54 54 54 53 51 49 47 44 42 42
21 26 26 25 24 18 24 18 24 25 25 29 40 46 48 49 49 49 50 52 52 54 54 54 54 54 54 53 53 54 53 53 53 53 54 55 56 57 56 55 54 54 54 53 52 50 48 46 41
24 27 26 26 25 24 23 23 23 27 25 26 29 44 47 48 49 49 49 51 53 54 53 53 54 53 53 52 53 52 51 52 50 53 54 54 54 55 56 57 56 55 54 54 54 51 49 49 47
28 27 27 28 27 23 25 23 22 23 25 26 30 37 46 48 49 49 49 51 52 53 53 53 53 53 52 52 52 51 51 51 48 50 51 53 53 54 55 55 56 57 56 55 54 53 52 51 50
27 24 18 21 22 20 25 24 22 26 27 27 27 31 44 47 48 49 49 49 50 51 52 52 53 52 51 51 50 50 51 50 49 48 49 51 51 52 53 55 56 56 57 56 56 55 53 52 51
24 22 17 14 18 19 31 25 24 30 31 32 33 33 41 47 48 48 49 49 50 50 51 51 51 51 51 51 50 50 49 49 50 49 48 50 50 51 52 54 54 55 56 56 56 55 54 54 52
23 22 22 17 26 23 23 29 29 28 29 29 27 30 36 44 47 48 48 49 50 51 50 51 51 51 52 51 51 50 50 49 48 48 50 50 50 51 53 54 54 54 55 55 55 55 55 54 53
20 26 22 23 16 13 19 24 19 23 23 25 26 28 36 42 45 47 48 49 50 51 51 51 51 50 51 52 51 51 50 50 49 50 50 50 51 52 52 53 54 54 55 55 55 55 55 54 53
20 18 20 24 23 15 14 20 29 24 25 25 27 29 30 41 44 46 48 49 50 51 51 52 52 52 52 51 51 51 51 50 50 50 50 50 51 52 52 53 54 54 55 55 55 55 54 52 51
22 21 19 17 17 26 21 18 26 28 28 29 29 28 28 39 43 45 47 48 49 50 51 51 52 52 52 51 51 51 52 51 51 51 51 51 51 53 53 53 53 54 55 55 53 53 53 51 51

GFSSGP_sfc_30mbdewp_096.txt.gz
Dewpoint
48 40 39 30 19 16 12 14 17 17 21 28 33 33 30 35 29 26 55 61 64 63 62 65 70 71 71 70 69 69 70 69 69 68 69 69 69 69 68 68 66 65 64 62 61 61 61 61 61
39 39 35 24 16 9 10 17 17 18 21 30 32 34 35 33 43 46 50 59 65 64 63 63 69 70 71 70 69 70 69 69 69 69 69 69 69 68 68 66 65 64 63 61 60 60 60 60 60
37 36 24 19 15 9 11 17 17 20 21 28 29 37 36 33 47 48 57 57 61 62 65 63 69 69 70 70 70 70 70 69 69 69 69 69 68 67 67 65 64 64 63 61 60 60 60 60 61
27 24 22 17 12 15 15 16 19 21 28 32 34 32 37 41 45 53 57 58 59 62 66 64 67 69 70 70 70 70 69 69 69 69 68 68 67 66 65 64 64 64 63 60 60 60 60 61 60
28 21 11 10 13 16 17 19 20 20 25 32 36 29 35 43 46 56 58 58 60 62 67 65 66 67 69 70 70 69 69 69 68 68 67 67 66 65 65 64 64 64 63 61 60 60 60 60 60
20 19 10 4 11 16 17 20 22 26 27 29 35 34 34 49 52 53 60 60 61 61 65 62 62 63 66 69 70 69 69 68 68 67 66 66 66 65 65 65 64 64 64 62 62 61 60 60 59
17 13 6 6 10 15 17 22 26 22 21 26 36 34 32 46 53 58 59 61 62 63 63 60 60 63 63 65 69 68 68 68 67 66 66 66 66 65 65 65 65 65 64 64 62 61 61 60 59
20 16 11 7 6 12 17 21 26 26 23 42 40 30 31 45 57 58 59 61 61 62 62 62 61 61 61 65 63 63 64 66 67 65 66 65 65 65 65 65 64 64 65 63 61 61 60 59 58
24 15 10 8 9 9 19 21 24 33 33 37 40 39 44 53 55 55 55 59 61 60 61 63 59 59 60 63 62 59 64 65 66 65 65 65 64 64 64 62 64 64 64 62 61 61 60 59 59
19 13 10 12 12 13 18 22 23 27 27 33 35 41 48 54 54 52 54 55 57 59 60 62 61 60 61 62 61 60 62 65 66 65 64 60 63 62 60 62 64 65 64 62 61 61 60 55 51
18 15 12 16 16 19 18 20 23 25 23 23 25 29 43 52 54 54 55 56 56 58 60 61 62 63 63 63 62 64 63 63 65 65 62 62 62 61 60 59 60 62 62 59 57 57 52 51 49
21 20 17 17 17 21 19 20 22 23 25 26 38 40 48 51 52 53 55 56 57 58 59 61 61 61 63 63 63 63 62 64 64 64 62 63 62 61 58 54 56 58 57 57 55 53 52 52 50
24 18 18 17 19 19 21 22 22 22 23 26 39 50 49 50 52 56 57 58 57 58 58 60 61 61 62 62 63 63 64 63 64 63 62 62 61 59 56 54 55 55 55 56 55 54 53 52 50
16 20 17 18 18 20 23 21 19 23 23 35 46 48 51 52 53 54 53 55 58 57 58 59 60 61 61 61 61 62 62 63 64 64 63 61 61 58 55 53 53 54 55 55 54 53 49 47 47
22 20 17 18 19 19 19 18 16 21 33 38 44 49 50 51 52 51 52 54 57 58 58 58 59 60 60 60 61 62 62 61 62 63 62 61 59 57 55 54 51 51 52 53 52 50 46 42 41
22 21 18 19 18 20 24 13 23 29 34 31 37 46 49 51 51 51 52 55 57 58 58 59 59 59 60 59 60 61 61 61 61 63 63 60 58 56 55 52 50 49 50 51 49 46 43 42 40
19 16 15 18 20 17 24 17 24 32 32 31 33 41 46 49 52 52 53 55 57 57 57 58 59 58 58 59 60 60 61 60 60 62 62 61 58 56 53 52 50 50 48 47 46 44 44 43 41
17 17 18 16 17 24 19 22 22 24 25 28 31 39 44 46 48 51 52 55 56 57 57 57 58 58 58 59 59 60 60 61 61 61 61 61 58 56 54 53 53 50 47 47 46 45 45 44 42
18 18 16 16 21 23 20 15 17 22 23 25 30 38 42 45 48 50 52 55 56 56 56 56 56 57 58 57 57 57 57 59 60 60 60 60 58 55 55 52 53 50 48 47 48 47 46 44 43
21 19 16 17 19 21 19 16 18 21 23 25 27 34 39 44 48 49 51 54 55 55 56 56 56 56 56 57 57 57 58 58 59 59 59 59 58 55 54 52 53 51 49 49 49 47 46 46 44
20 17 17 17 19 21 20 17 13 16 25 28 33 34 37 41 46 48 51 53 55 54 54 55 55 56 56 57 56 56 57 57 57 58 58 58 58 56 54 51 52 52 51 50 50 48 48 46 44
16 18 19 18 17 16 20 11 10 18 21 22 23 34 38 41 45 48 49 51 54 54 55 55 54 56 56 56 55 55 54 52 55 57 56 58 58 57 56 54 52 53 53 52 52 50 49 47 45
19 21 18 21 19 18 18 17 13 18 22 22 22 24 38 43 45 47 48 50 53 53 54 54 54 55 55 55 55 54 53 53 56 55 55 56 57 57 56 56 55 54 53 54 53 52 51 49 48
24 25 25 25 23 20 20 16 12 14 22 21 23 29 38 43 45 47 48 49 52 54 54 54 54 54 54 54 53 53 52 52 54 54 54 55 56 55 55 55 55 55 54 53 54 54 54 53 51
23 24 20 21 20 18 18 19 15 22 23 24 24 25 37 42 45 47 47 47 50 52 53 54 53 53 54 54 53 53 53 52 52 53 53 51 51 53 54 55 56 55 54 53 54 55 55 55 54
22 24 17 12 14 16 21 19 19 24 24 24 30 31 35 42 45 46 47 47 49 51 52 53 53 53 53 52 52 51 51 52 52 51 50 52 49 49 51 52 52 54 53 54 54 55 55 55 55
18 20 21 16 17 19 20 23 27 25 26 26 26 26 31 39 44 46 47 48 47 50 52 52 52 53 53 53 52 51 51 51 51 51 50 49 49 50 51 52 53 53 53 53 54 54 54 55 55
15 18 20 20 15 13 13 15 18 20 21 22 25 25 29 36 41 44 46 48 48 49 51 52 51 51 52 53 52 51 50 50 50 50 50 50 49 49 49 51 52 52 52 52 53 53 53 53 54
12 16 18 17 18 14 13 14 21 21 21 22 25 26 30 35 40 43 46 48 49 49 50 52 52 51 51 52 53 52 52 52 51 50 50 50 50 50 50 50 51 51 51 51 52 52 52 52 53
28 20 15 13 12 18 18 16 22 23 25 26 27 30 30 36 40 42 45 47 48 49 50 51 52 51 51 51 51 52 52 52 51 51 50 50 49 50 51 51 50 50 50 51 52 53 53 53 53

GFSSGP_sfc_30mbdewp_099.txt.gz
Dewpoint
48 40 34 31 20 15 10 12 14 12 15 22 26 24 24 25 25 26 51 56 62 60 61 65 69 70 71 70 70 70 70 70 70 69 69 69 69 69 68 67 67 66 64 62 62 62 61 62 62
37 31 33 28 15 11 7 13 13 14 17 24 24 25 25 26 31 36 44 58 62 62 61 63 69 70 70 70 70 70 70 70 69 69 70 69 69 68 68 67 66 65 64 62 62 61 61 62 62
41 32 28 20 15 10 8 14 13 15 19 20 21 25 28 25 36 40 55 57 59 59 61 62 67 69 70 70 70 70 70 69 69 69 69 69 69 68 67 66 65 64 63 61 61 61 61 62 62
25 20 18 11 11 12 13 12 15 17 17 22 22 24 25 33 35 47 54 55 55 57 60 67 68 68 70 70 70 70 69 69 69 69 69 69 68 67 66 65 64 64 63 61 60 60 61 62 61
24 19 13 11 9 11 14 14 17 16 16 22 24 25 22 31 43 52 55 56 56 57 61 68 65 68 68 68 69 70 69 68 69 69 69 68 67 67 65 64 64 63 62 61 60 60 60 61 60
18 14 11 9 7 9 15 16 19 18 19 21 24 25 25 44 47 48 58 56 58 59 63 66 63 65 64 64 64 68 69 69 68 68 68 68 67 66 65 64 64 63 62 62 61 61 60 60 59
20 14 12 9 7 6 14 17 20 19 19 19 23 26 25 34 50 56 56 58 61 62 63 63 62 61 57 58 60 64 68 68 68 68 67 67 66 65 65 65 64 63 63 62 61 61 60 59 58
17 14 12 10 8 5 11 16 20 20 19 24 29 22 24 48 55 55 57 60 61 62 62 63 60 60 62 62 61 61 68 67 67 67 66 66 65 65 65 65 64 63 63 62 61 61 60 59 57
19 12 12 12 10 9 9 16 19 22 24 23 24 31 33 46 51 52 54 58 61 61 61 62 62 60 61 61 62 63 66 65 66 66 65 65 64 63 64 63 65 64 62 62 61 61 60 59 57
16 12 11 13 11 9 10 14 18 19 19 20 23 26 33 48 50 49 50 51 55 61 60 62 62 60 61 63 61 64 64 65 65 65 65 63 63 62 59 64 65 63 62 61 61 60 59 54 48
15 13 12 13 12 12 12 12 14 15 18 20 21 24 30 39 48 50 51 53 53 56 61 61 62 60 60 61 62 63 63 62 65 65 64 62 63 62 63 64 63 62 59 55 57 56 50 48 46
16 16 15 15 14 13 13 15 13 14 16 18 20 25 36 40 47 50 52 54 53 55 57 61 61 62 62 61 62 63 61 60 65 65 63 62 62 61 62 62 59 60 57 55 54 51 51 50 48
18 17 19 17 17 16 15 14 13 14 15 17 20 25 37 44 46 50 55 56 55 56 58 60 61 61 63 62 64 63 62 63 64 63 62 62 61 62 60 58 58 57 56 55 54 51 52 51 49
16 17 19 19 17 16 15 15 16 16 16 19 23 31 40 46 48 51 54 53 55 57 58 59 60 61 61 62 62 63 63 63 64 63 62 62 62 61 57 57 57 56 56 54 54 52 52 51 48
18 17 18 17 18 17 17 16 15 16 15 15 28 34 42 45 48 50 50 51 54 56 58 58 58 60 60 61 61 63 63 63 63 62 62 63 61 59 57 57 56 55 55 56 54 54 51 48 46
22 20 18 18 19 17 17 15 15 19 20 27 28 29 40 45 47 48 50 52 53 57 58 58 59 59 60 60 61 63 63 63 62 63 61 62 60 58 57 56 55 55 55 55 52 52 48 45 42
20 17 17 18 20 18 17 17 15 24 26 26 26 26 32 42 48 49 50 53 55 57 57 58 59 59 59 60 60 60 62 62 63 63 62 62 60 57 55 54 53 55 54 53 52 50 47 44 41
17 16 17 18 19 18 18 16 17 17 22 23 23 23 29 36 44 49 50 53 55 57 57 58 58 58 59 59 60 60 60 61 61 63 62 61 59 58 55 54 54 52 52 52 50 49 46 45 44
20 17 17 18 20 18 18 19 17 16 16 20 22 22 26 34 42 47 50 53 54 57 57 57 58 58 58 58 58 58 58 59 61 62 61 60 59 57 56 51 53 52 50 50 50 49 49 47 46
20 19 19 19 20 18 20 20 19 17 15 16 21 22 24 30 42 47 50 52 54 55 56 56 57 57 58 57 58 58 58 60 60 61 60 59 58 57 57 55 54 52 50 51 51 50 48 47 46
18 20 21 20 20 18 18 19 20 19 17 15 17 24 25 28 39 46 49 51 54 54 55 56 56 57 57 57 58 58 58 58 58 59 59 59 57 56 54 55 55 53 52 51 52 52 49 48 47
11 18 19 19 17 16 18 15 17 16 12 13 22 24 26 28 35 45 48 50 53 54 55 55 56 55 57 57 56 57 56 55 57 57 58 58 58 56 56 55 54 54 53 53 53 52 51 49 48
13 16 17 17 17 18 18 15 16 18 16 13 18 21 21 30 36 43 47 49 52 54 55 55 55 55 56 57 56 56 55 56 57 57 57 58 58 57 55 54 54 55 53 53 54 53 53 52 50
18 18 19 21 18 17 19 18 17 17 16 21 21 20 25 30 38 43 47 47 50 54 54 54 55 54 56 56 56 55 54 54 56 56 56 56 57 58 57 55 55 55 55 55 56 55 53 53 52
20 18 17 16 19 19 19 18 19 18 16 22 21 23 30 34 39 43 46 47 49 53 53 54 54 54 55 55 55 55 54 54 55 56 55 54 54 56 56 56 56 56 55 55 56 55 55 55 55
19 19 20 12 14 19 21 16 17 20 20 21 24 25 28 34 40 43 45 46 48 52 53 53 53 53 54 54 55 54 54 52 52 54 55 54 53 55 55 54 53 53 54 55 55 56 53 53 56
11 19 20 20 20 21 25 21 21 25 24 23 22 23 25 33 39 42 44 46 47 50 52 53 53 52 54 54 54 54 53 52 50 53 54 54 54 54 55 55 53 53 53 54 53 52 52 53 55
15 14 16 18 17 14 14 15 18 22 22 22 22 23 23 28 37 41 43 46 47 49 51 52 52 51 52 54 53 53 52 53 52 52 52 54 54 51 52 54 53 53 52 53 53 53 54 54 55
13 14 15 15 14 13 16 18 21 18 23 23 23 26 24 28 35 40 43 46 47 49 50 52 51 50 51 52 53 54 52 51 52 52 53 52 52 52 51 52 52 52 52 53 53 54 54 53 53
24 13 14 16 14 14 17 18 23 22 22 25 27 26 29 29 33 38 42 45 47 48 49 51 51 49 50 51 52 53 53 52 51 51 52 53 52 52 51 51 50 51 51 52 52 53 52 52 53

GFSSGP_sfc_30mbdewp_102.txt.gz
Dewpoint
45 43 36 33 24 19 16 12 13 12 11 18 23 22 21 20 21 28 52 59 58 62 67 68 70 71 70 70 70 70 70 70 70 70 70 70 69 68 67 67 66 65 65 63 63 62 61 62 63
37 34 31 28 23 16 13 12 13 12 16 22 21 20 22 23 28 35 54 59 60 57 66 66 69 70 71 70 70 70 70 69 70 70 69 69 69 68 68 67 66 64 64 62 62 61 61 62 63
44 39 26 26 22 15 13 11 12 13 17 18 17 18 22 24 36 48 55 57 57 57 58 66 68 69 70 70 70 70 70 70 69 69 67 67 68 68 68 66 65 65 64 61 61 61 62 62 62
33 25 20 15 10 12 11 13 14 15 15 18 21 22 22 28 31 49 53 53 54 55 64 67 68 68 69 70 70 70 69 70 69 67 64 67 66 68 67 66 65 64 63 61 61 62 62 62 61
26 20 17 15 13 11 10 14 14 15 14 17 20 20 23 25 48 52 53 54 54 55 62 68 67 68 69 69 69 70 69 69 69 68 67 66 66 67 66 65 64 63 63 62 61 62 62 61 59
21 18 14 10 10 9 10 15 15 17 18 18 20 21 24 40 44 50 57 55 57 58 64 68 64 65 68 69 68 68 68 66 68 68 67 66 66 66 65 65 64 63 62 62 62 61 61 59 58
19 19 16 14 13 11 9 16 16 18 17 18 21 22 23 44 53 55 56 57 60 63 63 64 65 63 64 65 65 64 64 64 66 67 65 64 65 66 65 65 64 63 62 62 62 61 60 59 56
19 18 15 12 12 11 11 9 18 19 17 20 23 23 25 52 55 56 58 59 61 63 63 63 63 61 61 62 61 60 59 58 59 66 65 65 65 65 65 64 64 63 62 62 61 61 59 58 56
19 16 13 12 12 12 11 10 16 18 17 20 22 22 28 46 53 54 56 59 61 61 61 63 62 61 62 62 62 61 58 60 57 66 65 66 64 64 64 63 63 63 62 62 61 60 58 56 54
17 16 14 12 11 12 12 11 11 15 16 17 20 22 28 46 48 48 51 52 59 61 62 63 63 62 61 62 61 61 60 59 58 64 65 64 64 64 63 64 63 62 62 61 60 59 56 52 52
17 15 15 13 12 13 12 12 12 12 12 14 17 20 24 43 47 48 49 51 52 56 62 61 62 61 61 63 61 62 60 60 60 64 64 64 63 63 64 64 62 61 60 59 59 56 51 48 48
15 14 14 14 15 14 15 14 13 14 14 14 15 17 21 32 39 47 50 52 53 58 61 61 61 61 60 62 60 62 62 61 62 64 64 63 62 63 64 63 60 58 56 56 55 52 51 48 48
18 17 16 18 16 17 17 16 16 15 15 14 15 17 23 34 41 45 51 55 56 55 58 61 61 62 62 61 61 63 62 60 60 63 64 62 61 63 63 62 61 55 55 55 53 52 54 52 49
23 21 18 17 17 19 18 17 16 16 17 17 17 19 25 35 42 46 55 56 54 55 58 60 61 62 63 62 61 61 62 59 62 64 63 62 61 63 62 61 60 57 56 55 53 52 54 54 51
22 20 18 16 16 17 17 17 16 18 18 17 16 17 27 39 43 47 51 52 54 55 57 58 60 61 61 61 62 62 63 61 63 63 62 62 62 62 60 59 60 58 56 56 54 54 54 52 50
22 22 20 21 19 19 18 16 18 18 17 16 15 25 29 38 42 47 49 50 53 56 57 58 59 59 60 61 62 63 63 63 62 61 63 62 62 61 58 58 57 57 57 57 55 55 53 51 49
17 18 19 20 21 19 18 17 17 18 18 22 25 25 26 37 45 47 48 51 53 57 57 58 59 59 60 60 61 63 62 62 63 61 62 62 61 60 58 57 58 58 56 56 56 54 51 48 47
12 17 18 19 20 19 18 18 18 19 18 22 25 25 24 26 45 48 49 52 55 57 58 58 58 59 59 60 60 61 62 62 63 61 61 61 61 59 57 56 57 58 57 56 55 52 50 47 46
11 14 20 25 26 24 21 19 19 20 19 18 20 21 23 24 38 49 50 53 55 57 57 57 58 58 58 58 58 59 58 60 62 62 60 60 60 58 56 54 54 54 56 55 54 52 48 47 49
6 15 19 22 25 24 23 20 19 20 20 20 17 17 20 24 41 49 51 53 56 56 56 56 58 58 58 58 58 58 58 59 60 62 60 60 59 58 54 54 54 53 53 54 52 50 49 50 49
10 8 19 23 24 26 24 21 20 19 21 21 20 19 19 23 40 48 51 53 55 55 55 56 56 58 58 58 58 58 59 59 59 60 60 59 58 57 55 54 55 53 52 53 51 52 50 50 49
14 14 14 14 17 20 23 18 19 19 19 21 21 20 18 24 28 47 50 52 55 55 55 55 56 57 57 57 57 57 57 56 58 59 59 59 58 57 57 57 56 55 54 53 53 53 52 50 47
17 16 14 17 18 18 17 16 18 19 18 19 18 17 23 27 29 46 48 51 53 55 55 55 56 57 56 57 57 57 56 57 58 58 57 57 57 56 56 57 56 55 54 54 54 54 52 53 50
19 18 18 17 16 16 18 16 17 18 18 18 19 17 22 24 31 44 48 50 52 55 55 55 55 55 57 57 57 56 56 56 56 56 56 56 56 56 56 55 56 56 55 55 55 54 53 54 53
20 18 16 15 17 15 18 17 18 20 20 21 19 21 26 29 38 42 47 48 50 55 54 55 54 54 56 56 57 56 56 56 56 56 56 55 55 55 55 55 57 57 56 55 54 56 55 55 54
15 20 20 19 16 20 28 28 22 21 22 21 22 23 27 31 39 42 46 48 50 54 54 54 54 53 55 56 56 56 55 56 56 56 56 55 55 54 55 55 56 56 54 54 56 56 56 56 56
12 17 20 21 21 21 26 26 26 24 21 21 21 23 26 33 38 42 46 48 50 53 54 54 54 52 54 55 55 55 54 54 55 55 55 55 56 57 56 55 55 56 55 55 55 54 54 55 54
10 12 14 20 19 19 19 21 27 29 28 25 24 23 25 29 38 42 44 48 50 53 54 54 54 53 53 55 55 55 54 53 53 55 55 54 55 55 56 55 54 54 53 54 54 54 53 53 54
10 12 15 18 20 19 18 18 26 26 28 24 28 27 27 26 35 41 44 48 48 52 53 54 53 52 54 55 55 54 54 54 52 53 55 55 55 55 55 55 55 54 53 54 53 53 52 52 53
27 17 14 14 15 20 20 18 22 29 30 27 26 29 30 29 31 40 43 47 48 50 52 53 53 52 53 54 54 53 53 54 53 53 51 52 55 54 53 55 54 53 53 53 53 53 53 54 54

GFSSGP_sfc_30mbdewp_105.txt.gz
Dewpoint
45 44 43 35 29 24 19 19 18 13 21 23 21 21 20 20 19 30 58 60 67 67 70 71 70 70 70 70 70 70 70 70 71 70 70 69 68 67 67 67 66 66 65 64 64 64 64 63 64
40 37 36 31 25 22 22 17 15 20 21 20 18 19 20 22 49 56 58 60 66 67 69 70 70 70 70 70 70 70 70 70 70 70 70 69 68 68 67 66 66 65 64 63 62 63 62 62 63
40 40 34 26 26 22 21 17 16 17 19 18 17 19 22 26 47 54 58 60 59 66 66 68 70 70 70 70 70 70 70 70 70 70 69 68 68 68 68 66 66 65 64 62 62 62 62 64 64
37 35 27 17 18 16 18 15 16 15 16 19 20 22 23 33 46 55 57 56 55 61 67 68 69 70 70 70 70 70 70 70 69 69 68 67 67 66 66 66 65 64 63 62 62 62 63 63 62
32 27 18 17 17 17 17 15 16 15 16 20 23 20 24 43 54 55 54 55 55 63 66 67 68 69 70 70 70 69 70 70 69 66 66 64 65 66 64 65 65 64 63 63 62 63 63 61 60
29 21 16 15 16 15 15 16 17 18 19 18 18 21 27 51 52 55 56 56 57 63 67 66 67 68 69 71 70 69 69 69 67 66 65 64 63 64 64 64 65 64 63 63 63 63 61 59 58
26 23 18 17 17 16 13 17 17 18 20 20 24 23 44 50 55 57 57 59 62 64 66 66 65 64 67 69 68 69 68 67 65 65 65 65 64 65 65 65 64 64 63 63 63 62 60 59 56
27 21 18 18 16 14 15 16 20 19 18 20 25 22 29 52 56 57 58 60 62 63 62 64 63 63 62 63 64 65 67 66 64 66 65 65 64 65 65 65 64 63 63 63 62 61 59 56 55
22 18 17 16 15 14 14 13 19 19 17 18 20 22 26 55 56 57 57 60 60 62 62 62 62 60 61 61 62 62 63 65 65 62 62 63 64 65 64 64 63 63 63 62 61 60 57 55 53
20 18 17 18 17 16 15 15 13 15 18 18 20 24 43 55 55 55 56 58 60 60 61 62 62 61 62 62 62 62 61 61 61 62 60 63 64 64 63 64 63 63 62 61 60 58 55 54 52
21 17 18 18 18 17 17 15 16 13 13 15 16 21 48 53 53 52 53 54 59 61 61 62 62 62 61 62 60 61 61 61 59 59 59 63 64 63 63 63 62 62 61 59 57 55 53 51 51
22 21 19 17 16 15 14 16 17 17 16 17 17 16 28 48 49 49 49 50 58 61 61 61 62 60 60 61 60 60 59 59 59 59 61 61 63 63 62 61 61 60 58 57 54 51 50 49 49
23 22 21 20 18 17 18 18 19 19 18 18 17 16 17 41 42 49 51 55 57 60 61 61 62 61 59 62 60 62 61 61 61 59 63 63 63 63 61 60 58 57 57 55 51 51 48 48 48
26 25 24 24 22 19 17 18 20 20 20 18 18 19 19 28 41 49 54 55 55 58 60 60 61 61 61 61 60 62 61 60 62 60 63 63 62 62 61 58 56 55 55 53 50 52 50 49 49
22 23 24 23 22 20 19 17 17 18 19 18 19 19 22 32 42 49 52 55 55 57 59 59 60 61 62 62 61 62 60 61 62 63 64 63 63 62 61 57 54 55 54 52 52 52 53 51 51
13 14 19 23 23 23 22 18 19 20 19 19 19 19 23 32 40 47 53 54 55 57 57 59 60 60 61 61 62 63 60 60 62 63 63 63 63 62 61 59 55 57 54 52 53 53 54 51 50
12 12 13 17 22 22 22 20 22 28 20 19 19 19 24 27 41 48 51 53 56 57 57 58 59 59 60 60 62 63 62 61 62 62 63 63 62 61 60 60 57 58 55 55 55 55 53 49 49
7 12 13 15 19 24 25 25 27 28 26 18 21 26 26 26 42 48 51 55 57 57 58 58 58 59 60 59 60 61 62 62 61 61 62 63 62 60 59 59 58 59 55 57 57 54 51 49 48
2 6 8 10 16 23 24 25 27 27 27 19 20 24 26 26 44 49 52 55 57 57 58 58 58 59 59 58 57 57 60 61 61 60 61 61 61 60 59 59 59 59 57 58 56 52 49 47 45
2 6 7 9 18 19 21 26 28 29 28 27 21 21 21 24 47 50 54 55 57 57 56 56 58 58 58 57 58 58 58 59 62 61 61 61 60 59 58 57 57 58 58 57 54 50 49 47 49
12 13 11 8 12 20 23 25 28 28 26 24 22 21 22 29 48 51 53 55 56 55 55 55 57 57 58 58 58 57 58 59 58 61 60 60 59 59 56 56 55 57 57 55 52 50 49 47 50
14 17 15 15 13 12 21 18 26 26 23 23 21 21 22 28 49 51 53 55 55 55 55 55 57 57 58 58 57 57 56 55 58 57 59 59 59 59 56 56 54 55 57 55 53 51 50 49 48
12 19 18 17 15 15 16 16 21 21 19 19 21 22 22 23 49 51 52 55 55 55 55 55 56 57 57 57 57 57 57 57 58 58 59 59 59 58 56 56 55 54 55 54 53 53 52 50 49
16 20 20 18 17 14 16 16 16 18 19 19 21 21 22 23 48 50 52 54 54 55 55 55 56 57 56 56 57 57 56 57 57 58 57 58 58 57 55 56 56 55 55 54 54 54 54 54 52
18 18 18 16 16 15 17 17 18 22 22 20 20 22 26 28 47 50 52 53 54 54 54 55 56 56 56 56 57 56 57 56 56 57 57 56 56 56 56 56 56 56 57 56 55 54 53 54 54
16 17 18 16 16 16 22 25 25 26 28 29 22 24 33 46 47 49 50 52 54 54 54 55 54 54 56 56 56 56 56 56 56 56 56 56 55 56 56 55 56 57 57 57 56 55 55 55 54
6 14 16 20 20 19 22 24 26 36 35 34 26 23 32 43 47 49 49 52 54 54 54 54 54 54 55 55 56 55 56 56 56 56 55 55 55 56 55 54 54 56 57 56 55 55 54 55 55
9 13 11 18 19 19 19 18 22 29 34 36 30 30 30 40 44 48 48 51 54 54 54 54 54 53 55 55 55 55 55 56 56 56 55 55 55 55 55 54 53 55 56 55 55 54 54 53 53
27 12 11 14 24 20 19 19 32 36 39 38 36 30 30 34 42 47 48 50 53 54 54 54 54 52 54 55 55 55 54 55 56 55 55 55 55 54 55 54 53 54 55 55 54 53 54 54 54
30 28 29 9 12 21 19 19 26 31 34 39 36 34 35 34 39 46 48 50 53 53 53 54 53 53 53 55 55 54 54 53 53 55 55 55 55 56 55 55 54 54 53 53 53 53 53 53 52

GFSSGP_sfc_30mbdewp_108.txt.gz
Dewpoint
49 45 40 35 28 24 21 19 21 17 21 22 21 20 20 21 19 23 56 65 67 68 70 70 70 70 70 70 70 70 71 71 70 70 69 69 68 68 68 68 68 67 66 64 64 65 65 65 66
39 38 35 31 26 21 20 23 18 20 22 21 19 19 21 31 53 57 58 65 66 69 70 69 69 70 70 70 70 70 70 70 70 69 69 68 68 68 68 67 67 66 65 65 65 64 64 64 65
36 40 35 26 26 22 20 18 18 20 21 18 17 19 23 33 54 57 58 65 67 68 70 69 69 69 70 70 70 70 70 70 70 69 69 68 68 68 67 66 66 66 65 64 64 63 63 64 63
37 36 31 20 21 24 24 23 15 17 18 19 20 19 27 47 53 55 60 64 66 66 68 69 68 69 69 70 70 70 70 69 69 69 68 68 68 68 67 66 66 65 64 63 62 62 64 64 64
32 25 21 17 17 17 18 18 18 15 18 20 24 22 24 47 53 57 59 58 62 65 67 69 69 69 69 70 70 70 70 69 69 68 66 64 67 67 67 66 65 64 64 63 63 64 64 64 63
28 22 16 15 16 17 18 19 18 17 20 19 21 21 38 53 54 56 56 55 61 65 67 68 69 69 70 70 70 70 69 69 68 66 64 63 65 66 66 66 65 64 64 63 64 64 62 61 59
26 24 20 18 19 19 19 17 17 19 19 19 24 27 47 52 53 55 55 58 65 66 66 67 67 68 69 70 70 69 68 66 66 65 64 65 64 64 65 65 65 64 64 64 64 63 61 60 56
29 26 22 20 17 17 18 16 21 19 19 22 25 28 45 49 55 57 59 62 64 66 65 65 64 64 65 67 67 68 69 66 64 65 63 63 62 62 65 65 65 64 64 64 63 61 60 57 56
24 21 20 19 17 17 18 17 17 19 18 19 22 23 25 51 57 57 59 61 61 62 62 64 63 62 61 62 63 64 65 66 64 64 63 63 60 63 65 64 64 64 64 63 62 61 59 57 57
24 20 20 19 19 18 19 18 17 15 16 18 19 26 51 55 56 56 56 57 59 60 60 62 62 60 60 61 61 61 62 64 65 63 63 63 62 64 64 64 64 63 63 63 62 60 57 55 54
24 19 19 19 19 19 18 18 18 15 14 16 16 19 51 54 55 54 54 57 58 60 61 61 61 61 61 61 60 61 61 62 63 63 63 63 63 63 63 63 63 63 62 61 60 58 54 51 51
27 26 23 21 20 19 18 17 15 15 16 18 18 18 52 54 54 53 53 55 58 60 61 62 62 61 60 60 59 60 60 61 61 62 62 63 62 63 64 62 62 61 60 58 55 53 51 50 50
25 26 26 24 22 21 21 19 18 19 20 21 21 20 41 51 52 52 52 53 58 60 61 61 61 60 60 60 59 59 59 60 60 60 60 61 62 62 62 61 60 59 57 55 53 50 49 49 50
26 25 25 25 24 24 22 22 19 19 20 20 20 20 21 39 49 50 52 54 59 60 61 61 61 60 59 61 59 60 61 60 60 60 60 59 62 62 61 60 58 57 56 53 50 49 48 48 49
18 19 19 21 23 23 23 21 19 20 22 23 22 21 21 23 44 48 52 55 59 60 60 60 61 61 60 61 60 61 61 60 60 60 60 59 62 62 60 58 56 55 53 50 49 51 48 48 50
15 17 19 23 23 23 23 20 23 24 27 27 29 27 22 21 35 48 53 55 57 60 60 59 61 61 61 61 61 61 60 61 61 60 61 61 60 62 59 56 54 54 53 49 50 52 50 49 50
12 14 17 18 16 16 18 16 22 27 27 27 28 28 25 21 33 46 54 55 57 59 59 58 60 60 60 62 62 61 60 61 62 61 62 62 62 62 58 55 53 54 52 48 52 53 52 50 50
9 11 12 11 13 17 19 21 24 26 27 28 29 29 26 25 33 46 53 56 57 58 58 58 59 60 59 60 62 62 60 61 62 62 62 63 62 61 59 55 54 53 53 49 53 53 53 51 50
9 6 3 4 4 11 15 20 21 23 24 24 28 29 28 26 32 50 55 56 57 57 57 58 58 59 58 58 59 60 59 60 61 62 62 62 62 61 60 56 56 54 53 50 54 54 51 49 49
2 0 -1 1 6 9 13 14 13 21 25 26 28 29 26 26 48 52 55 56 56 57 57 57 57 59 58 57 57 58 60 60 60 61 62 62 62 61 60 58 56 55 53 54 55 53 50 48 47
5 2 1 5 11 13 15 15 18 22 27 29 29 28 25 25 48 52 55 56 56 56 56 57 58 58 58 57 57 57 58 59 60 60 60 61 61 60 60 59 57 57 56 56 54 52 50 47 47
17 17 14 15 15 14 15 12 15 16 20 25 26 25 24 29 48 52 54 55 56 56 56 56 58 57 57 58 57 56 55 56 57 60 59 61 60 60 59 59 58 58 57 56 55 52 50 47 45
16 16 16 17 16 16 15 14 13 17 17 19 21 21 21 22 44 51 53 54 55 55 55 56 57 57 58 58 57 56 55 56 56 57 59 59 60 59 58 57 58 58 58 56 54 52 51 49 49
13 16 20 20 18 15 16 15 14 16 17 19 20 21 23 23 40 50 53 55 54 55 55 56 57 57 57 57 57 57 56 57 56 57 57 58 59 59 57 57 57 58 57 55 55 55 54 53 51
13 16 14 15 15 13 16 16 16 18 19 23 27 29 33 34 37 51 53 54 54 54 55 55 56 56 56 56 57 57 57 57 57 57 58 57 58 58 57 57 57 57 58 58 57 56 55 55 54
13 11 10 12 13 14 18 16 21 26 29 38 39 38 36 32 38 51 53 53 53 54 54 55 56 56 56 56 57 57 56 56 56 58 58 57 57 57 57 57 57 57 57 57 57 56 56 55 55
13 12 15 14 20 18 19 20 21 22 39 38 39 40 36 46 48 51 53 53 53 53 54 55 55 55 55 56 57 56 56 56 56 56 57 57 57 58 57 57 57 57 57 56 56 55 55 54 54
23 19 12 18 11 11 19 20 20 28 36 39 39 41 39 41 48 51 52 53 54 54 54 55 54 55 55 56 56 56 56 56 56 55 56 56 56 56 56 56 56 57 57 56 56 55 55 54 54
22 25 27 17 18 13 17 19 35 35 36 38 43 43 40 40 39 49 50 54 54 54 54 54 53 53 54 54 56 55 56 56 56 55 55 55 56 56 55 55 55 55 56 56 56 55 54 54 53
22 27 28 25 20 25 21 18 22 36 38 40 41 40 39 35 35 45 49 53 53 53 54 54 53 53 53 53 55 55 55 56 55 55 55 55 54 55 55 54 54 54 55 55 55 54 54 53 52

GFSSGP_sfc_30mbdewp_111.txt.gz
Dewpoint
53 45 38 34 28 24 21 19 21 18 20 22 23 21 20 20 19 18 49 59 66 68 69 70 70 70 70 69 70 70 70 70 70 70 70 70 70 69 69 69 69 68 67 67 66 67 67 67 67
40 39 34 30 25 20 17 23 20 21 21 22 20 21 22 26 50 53 56 64 66 68 69 69 70 70 70 70 70 70 70 70 70 70 69 69 69 69 69 69 68 67 67 65 66 67 66 66 66
37 40 33 26 25 19 18 21 18 18 20 22 17 20 24 31 53 56 58 66 67 68 69 69 69 70 70 70 70 70 70 70 69 69 69 69 68 68 68 68 67 66 65 64 64 65 66 66 65
36 36 28 23 21 25 24 23 23 18 18 19 18 19 26 41 49 57 59 66 66 68 69 68 69 69 70 70 70 70 70 69 69 69 68 68 68 68 68 67 67 66 64 64 65 64 66 65 65
30 26 22 18 17 18 20 21 19 18 17 18 22 20 24 44 54 57 61 66 65 66 69 68 68 69 70 70 70 70 70 69 69 68 68 67 67 66 67 66 66 65 65 65 64 64 64 65 64
26 22 18 12 15 18 19 19 20 18 19 21 23 23 29 49 54 58 61 64 65 65 67 68 68 69 69 70 70 70 69 69 68 66 68 66 65 63 64 66 66 65 64 64 64 65 65 63 61
25 23 17 15 15 17 19 19 17 20 19 19 23 23 42 51 54 59 58 60 64 65 66 68 68 68 69 70 70 69 69 68 67 65 65 65 63 63 63 65 64 65 64 64 65 64 62 60 60
27 25 22 21 18 16 19 18 18 18 17 20 27 30 34 45 54 57 59 61 63 64 65 66 67 68 69 68 69 69 68 68 66 63 62 64 64 63 63 63 64 64 64 64 64 62 60 58 59
26 25 23 21 18 17 18 19 20 19 17 19 22 33 38 51 57 57 58 61 63 64 64 65 65 66 66 67 67 68 68 66 65 63 63 64 64 63 63 64 65 65 65 64 63 61 58 59 60
27 23 22 22 21 19 20 19 19 18 18 17 18 28 49 55 55 56 57 57 60 62 63 64 63 63 62 63 64 65 66 66 65 63 64 62 61 61 61 64 64 64 64 64 62 60 58 58 58
24 23 21 20 20 20 19 19 20 19 18 17 16 17 48 54 54 55 57 57 58 60 61 62 62 61 60 61 60 61 61 63 64 63 63 61 61 61 64 64 64 63 63 63 61 59 55 55 56
26 24 23 22 24 23 21 21 19 18 17 18 18 19 47 53 54 55 55 56 56 58 60 61 62 60 60 61 60 60 60 62 63 63 62 62 61 62 61 62 63 62 61 61 59 56 52 52 52
25 26 26 27 27 25 23 21 21 21 21 21 22 22 37 52 53 54 55 55 56 57 59 61 61 60 60 60 59 59 59 60 62 62 63 62 61 62 61 62 62 61 59 59 55 53 51 51 52
25 25 26 25 25 25 24 24 23 22 22 21 23 25 29 43 50 53 54 53 54 57 60 61 61 61 60 60 59 58 59 60 61 62 62 62 61 61 62 62 61 59 57 55 54 51 50 50 52
17 16 17 20 22 23 24 23 22 22 22 27 28 29 29 29 34 48 51 52 52 57 60 60 61 60 59 59 58 59 59 60 59 60 61 62 62 62 62 61 59 57 55 53 51 50 49 50 52
13 14 14 22 23 23 22 20 22 22 25 26 27 28 29 29 29 34 47 51 54 59 60 60 61 60 59 60 59 60 60 60 60 60 60 61 62 61 61 59 58 56 53 51 50 50 49 49 52
12 10 12 15 20 20 18 12 18 23 23 26 26 27 29 29 29 30 38 51 56 59 60 60 60 60 59 60 60 60 59 60 61 61 60 60 62 61 59 58 56 54 51 49 49 50 49 49 51
11 11 12 13 13 15 15 13 12 18 23 23 25 25 26 28 28 30 41 54 58 59 59 59 60 60 60 61 61 60 59 60 61 61 60 60 62 60 59 56 54 53 49 48 49 50 51 50 51
12 10 9 8 8 4 3 5 8 11 19 21 20 21 25 27 29 33 51 56 58 58 58 58 59 59 59 59 59 58 58 60 60 61 60 60 61 60 58 55 54 51 47 47 50 51 49 50 50
5 5 4 3 2 4 5 7 10 14 15 19 23 24 27 26 29 43 53 56 56 57 57 58 58 58 58 59 59 59 59 60 61 61 62 61 61 60 58 54 54 51 47 48 51 51 51 49 49
11 8 6 5 4 9 11 13 15 17 19 24 26 27 27 28 28 38 54 55 56 56 56 57 58 58 57 57 58 58 59 60 59 60 61 62 62 61 58 55 54 51 50 48 52 52 51 48 48
20 15 12 8 12 13 15 12 14 16 16 18 20 20 24 26 28 42 54 55 55 56 56 57 57 58 57 57 57 58 57 57 58 59 60 61 62 61 61 57 55 52 52 48 52 53 52 50 47
19 21 19 18 16 16 14 15 13 16 15 17 18 19 22 24 30 44 53 55 55 56 56 56 57 57 57 57 56 56 56 56 58 59 59 60 61 61 61 59 56 54 52 54 52 54 52 49 48
17 13 16 19 17 13 12 14 11 13 15 18 20 22 37 37 34 39 50 55 55 55 55 56 56 56 57 57 56 55 54 55 55 57 58 59 60 60 60 60 58 57 56 56 54 54 52 50 48
14 14 8 5 14 12 13 14 13 17 18 25 36 38 40 41 40 39 47 54 54 54 55 56 56 55 56 57 56 56 55 56 55 55 56 57 59 59 59 59 59 59 58 57 55 54 53 52 50
14 13 10 0 4 8 16 15 16 25 30 39 40 42 42 42 41 45 48 53 54 54 54 55 56 56 55 56 56 56 56 56 56 56 56 57 57 59 58 58 58 59 58 56 56 55 55 55 54
17 12 14 11 11 15 13 18 16 24 32 36 40 43 43 42 41 43 51 53 54 54 54 55 55 55 55 55 56 56 56 56 57 57 58 58 59 58 58 58 58 58 58 57 57 56 56 56 56
24 25 13 17 10 8 11 18 16 22 33 35 37 42 43 42 41 42 53 53 54 54 54 55 55 55 55 55 56 56 56 56 56 57 57 57 58 58 57 57 57 58 58 57 57 56 56 55 56
17 24 26 26 20 16 9 10 31 34 37 37 38 41 42 42 44 43 45 53 53 54 54 54 55 55 55 55 56 56 56 56 56 56 56 56 57 57 57 57 56 56 56 57 56 56 55 55 54
24 29 30 24 23 25 25 20 27 27 39 39 40 39 42 44 45 41 40 53 53 54 54 54 54 54 54 55 55 55 56 56 55 55 55 56 56 56 56 56 56 56 56 55 55 55 55 55 54

GFSSGP_sfc_30mbdewp_114.txt.gz
Dewpoint
54 44 37 33 27 25 20 19 21 19 20 22 23 21 20 20 22 15 44 61 65 66 68 69 69 69 70 70 70 70 70 70 71 71 71 70 70 70 70 70 70 69 67 66 68 68 67 68 68
45 39 33 29 23 17 15 23 21 20 20 23 20 21 21 20 45 48 50 60 65 67 69 69 69 70 70 70 70 70 70 69 69 69 70 70 70 70 70 70 69 68 67 66 66 67 67 67 68
37 39 31 25 24 13 16 23 19 20 19 22 18 20 23 26 50 53 55 62 66 67 68 69 70 70 70 70 70 70 70 69 69 69 70 70 70 69 69 68 68 67 67 66 66 67 67 67 66
35 35 26 23 17 24 23 23 24 19 18 20 19 18 24 37 47 55 56 66 66 67 68 69 70 70 70 70 70 70 70 70 70 70 69 69 69 69 69 68 67 67 66 66 67 67 67 66 65
28 27 22 19 17 20 22 23 19 17 18 19 20 18 24 37 53 57 60 65 65 67 68 68 69 69 70 70 70 70 69 70 69 68 66 67 67 68 68 67 66 65 64 65 66 67 66 65 64
22 22 17 8 13 17 18 19 19 19 20 21 21 22 23 45 52 56 62 65 65 66 68 68 69 69 69 70 70 70 69 69 68 67 66 66 65 64 64 65 65 65 64 64 66 66 65 65 63
17 21 16 14 13 15 18 20 17 18 18 19 24 21 30 41 50 58 60 65 65 66 67 68 68 69 69 69 70 69 69 69 68 67 66 65 64 64 62 63 64 64 64 64 65 65 63 64 62
25 24 21 17 12 12 18 18 19 18 17 20 30 26 27 42 55 59 59 62 64 65 65 67 67 68 69 69 68 69 69 68 67 66 66 65 62 62 64 63 64 63 64 64 65 63 62 63 61
27 21 20 14 16 13 18 19 21 20 19 19 20 26 32 46 57 57 57 59 62 63 64 66 66 66 67 67 67 69 68 68 66 65 64 63 61 62 64 63 63 63 64 64 64 62 60 62 61
26 23 22 22 20 17 20 20 20 19 19 20 22 23 40 53 55 54 56 55 59 61 63 64 65 66 66 66 66 68 68 67 65 64 64 63 63 62 62 63 63 63 64 64 63 60 58 61 60
27 24 24 23 22 22 20 20 21 20 20 20 21 20 40 49 53 53 54 55 56 61 62 63 63 64 64 65 65 65 65 66 65 63 63 63 63 63 62 62 63 63 64 63 61 58 59 58 58
24 25 24 23 23 23 22 24 23 22 22 22 21 20 26 44 52 53 54 55 56 59 61 62 62 62 62 62 62 63 62 64 65 64 63 62 61 61 62 63 63 63 62 62 59 55 55 57 55
27 27 26 27 27 27 27 25 25 22 21 21 22 23 23 36 49 54 55 55 56 57 59 61 62 61 60 60 59 60 60 62 64 64 63 62 61 60 62 62 63 61 61 60 57 53 53 53 53
27 26 25 26 26 26 24 24 24 24 24 23 23 23 27 32 43 51 53 54 55 56 57 60 61 61 60 59 59 60 60 60 61 63 63 62 61 61 62 62 62 61 60 59 55 52 51 52 53
20 16 17 18 21 22 24 23 23 24 24 23 27 28 28 30 35 40 43 48 52 54 56 59 60 60 59 59 59 59 58 59 60 61 63 62 61 61 61 61 61 59 58 57 53 50 51 52 52
13 14 13 19 20 22 23 21 23 21 22 21 20 24 27 28 30 30 36 42 46 52 56 60 61 60 59 59 58 58 59 58 59 60 62 62 62 61 61 61 60 58 56 55 53 50 50 51 52
12 11 12 13 21 22 21 17 15 19 13 13 20 23 24 25 26 30 30 31 38 51 58 59 61 60 59 59 58 59 59 59 58 59 60 61 62 62 61 61 59 56 54 54 52 49 49 51 52
11 11 13 12 13 15 15 13 13 7 10 13 16 21 22 22 23 27 29 32 40 54 59 59 60 60 59 59 59 60 58 59 60 61 60 60 61 61 61 60 57 55 52 51 52 49 50 51 52
13 12 11 11 11 8 8 5 4 6 9 12 15 18 20 22 24 28 33 46 55 58 59 59 59 59 59 59 59 59 58 59 60 60 61 60 60 60 60 57 56 54 51 50 50 49 49 50 52
9 9 9 5 5 5 4 5 9 10 12 14 15 19 21 24 25 25 32 52 56 57 58 59 59 58 59 59 59 58 58 59 60 60 60 60 61 59 58 57 55 52 49 49 49 49 49 50 51
5 3 4 4 7 8 10 12 12 15 16 19 21 23 24 23 22 25 30 49 55 57 58 58 58 58 59 58 58 59 59 60 59 60 59 60 60 59 57 56 55 52 48 47 48 49 48 48 49
15 17 16 16 11 14 16 10 11 14 16 17 16 18 19 25 34 31 30 47 54 56 57 57 58 58 57 58 58 58 57 57 59 59 60 60 61 59 57 55 54 51 47 47 48 50 49 49 48
22 20 18 17 17 16 15 13 11 12 11 13 18 20 31 40 40 40 40 48 54 56 56 57 57 57 57 57 58 57 57 57 58 60 60 60 60 60 58 56 55 52 50 47 48 51 50 50 49
19 19 16 19 16 10 12 10 5 9 15 18 27 37 41 42 41 41 41 47 54 56 56 56 56 57 57 57 56 57 56 57 58 58 58 59 60 60 60 57 56 53 52 50 50 53 53 51 50
16 13 6 1 11 5 12 13 9 13 16 33 39 41 43 43 41 41 42 48 55 55 55 56 56 56 56 56 56 55 55 56 57 58 58 59 59 59 60 59 57 56 53 54 51 54 53 51 50
14 13 8 -3 -1 1 16 10 14 21 32 37 40 42 44 43 42 42 44 45 53 54 54 55 55 56 56 56 56 55 55 55 55 56 57 58 59 59 60 60 58 57 54 56 54 54 53 52 51
17 14 16 12 12 11 10 14 15 26 32 35 35 39 41 40 42 42 43 43 53 54 54 55 55 55 55 56 56 56 56 56 55 56 56 56 57 58 60 60 60 58 57 57 55 54 53 53 53
21 26 15 17 10 8 9 14 14 29 34 35 36 37 38 38 41 42 42 43 44 54 54 55 55 54 55 55 56 56 56 56 56 57 57 57 58 58 58 59 60 59 58 57 56 55 55 54 54
18 21 25 24 23 17 14 12 29 25 32 34 37 39 40 40 43 44 43 44 45 54 54 54 55 54 54 55 55 56 56 56 56 56 56 57 58 58 58 58 58 58 57 57 56 55 55 54 54
29 28 28 19 22 24 23 20 27 21 23 24 37 41 43 43 44 46 47 48 51 54 54 54 55 54 54 54 55 56 56 56 56 56 56 57 57 57 57 57 58 57 57 57 56 55 55 55 54

GFSSGP_sfc_30mbdewp_117.txt.gz
Dewpoint
53 40 37 34 26 26 20 20 22 20 20 23 24 22 24 24 34 20 47 59 64 65 68 68 67 68 69 71 70 69 70 72 71 71 71 71 70 70 71 70 69 69 69 69 69 69 68 68 68
46 36 33 30 22 15 14 23 21 21 20 24 22 22 22 21 38 46 49 62 65 66 67 67 68 68 69 71 70 69 69 70 71 71 71 70 70 70 70 70 69 69 68 68 68 68 68 68 68
40 37 29 25 23 9 12 22 20 23 22 23 19 21 23 25 47 49 51 62 66 66 67 68 68 68 69 70 70 69 69 70 71 71 70 70 70 70 70 69 69 67 67 67 67 67 68 68 68
35 34 27 20 14 22 22 23 22 21 19 21 20 18 23 32 46 54 54 62 65 66 67 68 68 68 68 70 71 69 69 69 69 70 70 70 69 67 66 64 66 66 66 67 67 67 68 67 66
29 29 19 19 18 21 23 25 22 18 19 21 20 19 23 34 50 55 58 63 64 66 67 68 68 68 69 70 70 70 69 68 68 70 69 69 66 65 65 64 66 65 65 65 66 66 67 66 65
24 24 14 5 10 17 18 20 19 19 21 23 21 22 24 43 51 56 61 64 65 66 67 68 68 69 68 70 70 70 69 68 69 69 68 67 66 66 65 65 65 64 65 65 66 66 66 65 64
15 20 12 12 12 14 16 21 20 19 18 20 24 23 28 38 49 59 63 65 66 67 67 68 69 69 69 69 69 69 69 69 69 68 66 67 65 65 65 64 63 63 64 64 65 66 65 64 63
23 22 17 15 5 7 18 19 21 19 17 20 29 27 21 26 55 59 62 65 65 66 67 67 68 67 69 68 69 69 69 68 68 67 66 66 65 65 65 64 64 64 63 63 65 65 65 63 62
28 18 14 9 12 10 19 20 21 21 19 20 21 24 26 43 56 58 59 62 64 65 66 67 66 66 67 68 68 69 68 68 67 66 65 64 63 64 63 61 63 64 64 65 64 64 64 62 61
26 20 17 19 16 16 19 20 21 20 21 21 24 27 28 48 52 53 55 57 60 63 64 66 66 66 66 67 67 68 68 68 67 66 65 65 63 62 61 62 64 65 64 64 63 62 63 61 58
27 20 23 22 22 23 21 20 21 21 20 24 25 25 30 37 46 51 54 55 57 60 63 65 65 65 66 66 66 68 68 68 67 66 66 64 62 62 63 63 64 65 64 63 62 61 61 59 58
24 26 24 23 23 23 21 23 22 24 25 27 26 25 23 27 38 47 52 54 56 58 61 63 65 65 65 65 66 66 67 67 66 65 65 64 63 63 62 63 64 63 62 62 61 59 59 60 59
27 26 25 25 24 25 26 26 26 25 25 25 24 24 26 27 30 45 53 55 56 57 59 62 64 65 65 64 64 65 65 66 66 65 63 64 63 62 62 62 63 63 62 61 60 58 58 58 57
27 27 26 26 25 26 25 25 26 25 26 25 26 27 28 30 32 41 49 50 54 55 57 60 63 64 64 64 64 63 63 64 65 64 63 63 63 62 62 62 63 63 62 60 58 56 57 56 56
21 19 19 20 22 24 25 23 23 25 26 25 26 28 26 28 31 35 40 40 41 48 54 58 61 63 63 63 62 62 62 62 63 64 64 63 62 61 61 61 62 62 61 59 57 55 55 55 55
13 15 14 18 18 21 22 19 23 23 20 13 13 18 23 25 27 30 33 34 36 42 48 56 59 62 62 62 61 60 60 61 61 62 62 63 62 61 61 61 61 61 60 58 55 54 53 54 54
13 12 14 15 21 22 23 20 21 20 12 8 10 14 19 23 27 28 30 31 33 36 41 54 59 61 62 62 61 60 60 60 59 60 61 62 62 62 61 61 61 59 58 56 55 53 53 53 53
6 11 13 12 13 16 17 18 17 14 7 7 11 15 20 23 22 24 27 30 33 36 42 54 59 60 61 61 60 60 60 59 58 59 60 61 62 62 61 61 60 58 57 56 54 53 52 52 52
11 13 12 13 13 11 11 10 9 7 7 10 14 16 19 22 24 27 30 33 38 51 54 57 59 60 60 60 59 58 57 57 58 60 60 60 61 61 62 61 59 58 56 55 55 53 52 52 53
7 8 10 12 10 9 7 8 11 11 13 14 16 18 21 24 25 33 37 37 44 52 57 58 59 59 60 60 59 59 58 59 58 60 60 61 61 60 61 61 58 57 56 55 53 52 51 52 53
6 7 8 5 6 10 11 12 13 15 15 18 20 22 23 24 38 40 42 43 47 52 57 58 59 59 60 60 60 59 59 59 59 60 60 60 60 60 60 59 58 56 54 53 53 52 51 50 52
11 10 6 5 13 12 16 7 12 14 16 15 17 22 32 41 42 41 42 42 47 50 57 58 59 59 59 59 58 58 57 56 58 60 59 60 59 58 58 58 57 54 53 52 53 52 51 51 51
11 20 13 16 16 15 15 13 11 14 8 15 20 33 41 42 42 41 43 44 48 53 56 58 59 58 58 59 58 58 57 57 59 60 59 59 59 58 57 57 56 53 52 51 51 52 51 51 51
23 21 20 20 18 12 13 9 5 8 13 17 33 39 43 43 43 42 43 43 46 56 57 58 58 57 57 58 58 57 57 57 58 59 59 58 59 58 58 57 55 54 51 50 50 51 52 52 52
19 15 8 10 11 2 12 12 9 15 25 35 37 38 41 40 39 40 42 43 44 52 55 56 57 56 57 57 57 57 57 58 57 58 59 58 58 59 58 57 56 54 53 51 50 51 52 52 52
18 15 6 -5 -2 -0 15 7 14 32 36 36 37 39 38 37 38 40 42 43 44 46 54 55 55 55 56 57 57 58 58 58 58 59 59 58 59 59 59 58 57 56 54 51 51 52 52 52 53
16 14 14 6 13 12 12 14 24 31 31 29 30 36 38 39 40 42 44 45 48 47 48 54 55 55 56 56 57 57 57 56 56 57 58 59 59 59 60 59 58 57 55 55 52 52 52 53 53
20 22 15 16 10 8 10 11 17 21 22 20 23 31 38 40 41 43 46 47 48 52 50 55 55 55 56 56 57 57 57 56 56 56 56 56 57 58 60 60 59 58 56 55 53 52 53 53 53
19 22 24 22 22 8 7 10 25 23 23 14 14 20 35 41 42 42 44 46 46 50 54 55 55 55 56 56 56 56 56 56 56 56 57 57 57 58 58 58 59 58 57 56 55 53 53 52 53
28 28 28 18 20 24 20 16 27 24 18 14 14 16 30 42 43 42 43 43 45 45 53 55 55 55 55 55 56 55 56 56 55 56 56 57 58 58 58 58 58 58 58 57 56 54 53 52 53

GFSSGP_sfc_30mbdewp_120.txt.gz
Dewpoint
50 36 31 31 19 17 10 15 20 19 20 24 24 27 24 22 22 17 45 53 58 54 62 67 68 68 70 71 70 71 72 72 71 71 71 71 71 71 71 71 70 69 69 69 68 68 68 67 69
42 31 33 25 13 5 3 18 19 20 20 23 23 24 22 21 27 36 46 58 58 58 61 64 68 68 69 71 70 70 71 72 71 70 71 71 71 71 70 70 69 68 68 68 68 68 68 68 68
36 33 23 14 8 1 -1 18 19 20 20 23 21 22 22 21 34 36 44 59 59 59 61 63 68 68 68 70 70 69 70 71 71 70 71 71 71 71 70 69 68 67 67 68 67 68 68 68 68
29 26 19 10 4 8 8 17 22 20 18 21 21 19 21 25 35 42 46 57 58 58 59 66 68 68 68 70 70 69 69 71 71 71 71 71 70 69 65 65 65 66 66 66 67 67 68 68 67
24 20 10 8 4 7 14 22 24 17 19 20 19 19 20 32 40 48 47 54 55 59 61 67 68 68 69 70 70 69 69 70 71 71 70 70 68 66 63 66 65 65 64 66 67 68 67 67 66
16 17 8 3 2 10 11 15 17 15 21 21 20 21 22 39 42 47 52 54 58 61 65 67 68 68 68 70 70 69 68 68 70 70 70 69 67 66 66 65 65 65 64 67 67 67 66 65 65
18 14 8 6 4 6 9 13 15 12 19 21 22 22 24 28 42 53 55 58 62 64 66 66 67 68 68 69 70 69 68 68 69 70 69 68 66 66 65 65 66 65 65 66 66 66 65 65 64
20 16 12 9 7 4 9 16 19 15 16 19 21 22 23 24 43 54 60 61 63 66 66 66 68 68 68 67 69 69 68 67 68 69 68 66 66 65 66 66 65 64 65 65 66 66 65 64 62
24 17 15 13 10 9 13 15 18 20 19 19 19 21 24 31 41 47 53 59 61 63 65 66 67 68 68 67 68 69 69 68 68 68 66 66 64 64 63 62 63 65 65 65 66 65 64 62 61
21 18 17 16 14 11 14 17 18 17 15 17 20 24 27 28 34 36 39 47 57 60 63 66 67 67 68 68 68 68 68 67 67 67 66 63 62 63 61 61 64 65 64 66 65 64 63 61 60
23 19 19 18 17 15 15 14 15 15 12 15 17 21 25 29 31 35 39 41 47 56 60 64 66 67 67 67 67 68 68 67 65 65 66 64 62 63 61 59 63 63 64 64 64 63 61 59 55
23 22 22 20 21 19 19 18 18 19 18 19 22 25 26 27 28 30 35 40 44 52 57 62 65 66 66 66 67 67 68 68 67 65 65 64 63 61 60 59 59 61 63 63 63 62 59 55 53
24 22 21 24 23 23 22 21 21 22 23 24 23 26 28 28 29 30 37 43 46 50 55 59 64 66 66 66 67 67 67 67 67 67 66 65 63 61 61 62 61 63 63 62 60 59 56 56 58
18 23 22 22 22 22 22 22 23 23 26 27 27 27 28 29 29 32 35 38 39 44 48 55 60 64 66 66 66 66 66 66 67 67 66 66 64 63 62 61 63 62 62 61 59 57 55 56 57
19 18 17 19 21 22 24 23 23 25 25 25 26 27 28 25 23 27 29 29 30 30 31 47 53 61 64 65 65 65 65 65 66 66 66 66 65 63 62 62 62 63 63 61 60 58 55 55 56
14 15 13 14 16 19 21 15 20 23 24 24 21 15 16 18 19 19 22 24 25 27 29 36 45 54 61 63 65 65 64 64 65 64 65 65 65 64 63 62 62 62 63 61 59 56 55 55 56
5 7 8 12 17 17 20 17 20 22 19 16 14 10 10 15 21 21 22 24 27 29 31 35 41 51 58 62 63 64 63 63 63 64 64 65 64 63 62 62 62 63 61 60 58 57 55 55 54
1 2 6 7 11 16 16 16 16 17 17 14 11 8 14 16 18 19 23 30 35 37 37 38 40 48 57 61 63 63 62 61 62 63 62 62 63 63 62 62 61 62 60 59 58 56 54 54 53
3 0 2 3 10 12 11 11 11 12 11 6 7 12 14 18 19 22 34 40 44 45 45 48 49 53 58 61 62 61 60 59 60 61 61 61 62 63 62 62 61 60 59 58 58 56 54 52 53
6 1 -1 -0 9 13 9 6 5 4 7 8 10 13 17 19 22 33 37 41 44 48 51 52 53 56 58 60 61 60 60 60 60 60 60 60 60 62 62 61 61 60 59 58 57 55 53 51 53
8 6 3 2 3 5 4 1 2 6 9 12 17 18 20 27 34 37 41 42 44 47 52 53 53 57 58 58 60 60 60 60 59 59 60 60 60 60 61 61 61 59 58 57 56 55 54 52 53
11 10 7 5 6 2 4 2 6 10 11 14 14 20 30 36 38 39 39 41 43 50 55 54 55 57 59 59 59 59 59 58 58 59 61 61 61 61 61 60 60 59 58 57 56 55 54 53 52
11 11 14 14 9 6 5 8 2 8 11 11 18 31 37 40 40 37 37 40 42 49 55 56 56 58 58 60 60 59 58 57 58 59 60 60 60 60 60 60 59 59 58 57 56 55 55 54 53
10 13 18 18 12 10 9 8 1 6 8 12 29 36 37 36 36 36 37 40 42 46 53 57 57 58 59 60 60 59 58 57 58 60 59 59 59 58 59 58 57 57 57 56 56 55 55 54 54
13 15 11 11 11 8 0 2 2 6 20 28 33 34 35 36 37 37 39 41 44 47 48 53 56 56 58 59 59 59 58 57 57 59 58 58 58 57 57 57 56 55 55 56 56 55 54 54 54
17 16 8 7 5 4 7 2 10 30 32 32 32 34 36 36 36 37 40 44 46 49 51 50 53 55 57 58 58 59 58 57 58 58 58 58 59 59 58 57 55 55 54 55 54 54 54 55 55
17 20 17 11 10 5 5 20 29 28 23 23 25 28 33 35 37 36 37 43 45 47 51 53 52 55 56 57 58 58 58 58 57 58 59 59 59 59 59 58 57 56 54 54 54 53 53 54 55
20 19 12 13 8 1 -1 8 10 22 15 8 4 6 18 28 32 35 37 40 40 44 47 51 55 54 55 56 58 59 58 57 57 58 59 59 59 60 60 59 58 57 56 54 54 53 52 53 54
30 24 23 20 11 6 3 4 18 21 18 12 9 7 9 19 29 35 38 38 39 43 45 48 53 55 55 56 57 58 57 57 57 57 57 58 58 58 59 59 59 58 57 56 54 54 54 52 53
26 31 32 25 17 15 11 11 21 25 22 10 11 8 11 12 30 35 37 39 40 43 45 47 48 55 56 56 57 58 57 56 56 56 56 56 55 57 57 58 58 59 57 56 55 54 54 53 52